Time,TemperatureF,DewpointF,PressureIn,WindDirection,WindDirectionDegrees,WindSpeedMPH,WindSpeedGustMPH,Humidity,HourlyPrecipIn,Conditions,Clouds,dailyrainin,SoftwareType,DateUTC
2013-01-13 00:00:00,42.6,28.0,29.97,WNW,292,0.0,0.0,56,0.00,,,0.00,VWS V14.01,2013-01-13 08:00:00,
2013-01-13 00:01:00,42.6,28.0,29.97,WNW,292,0.0,0.0,56,0.00,,,0.00,VWS V14.01,2013-01-13 08:01:00,
2013-01-13 00:02:00,42.6,28.5,29.97,WNW,292,0.0,0.0,57,0.00,,,0.00,VWS V14.01,2013-01-13 08:02:00,
2013-01-13 00:03:00,42.6,28.5,29.97,WNW,292,0.0,0.0,57,0.00,,,0.00,VWS V14.01,2013-01-13 08:03:00,
2013-01-13 00:04:00,42.6,28.5,29.97,WNW,292,0.0,0.0,57,0.00,,,0.00,VWS V14.01,2013-01-13 08:04:00,
2013-01-13 00:05:00,42.6,28.5,29.97,WNW,292,0.0,0.0,57,0.00,,,0.00,VWS V14.01,2013-01-13 08:05:00,
2013-01-13 00:06:00,42.6,28.5,29.97,WNW,292,0.0,0.0,57,0.00,,,0.00,VWS V14.01,2013-01-13 08:06:00,
2013-01-13 00:07:00,42.6,28.5,29.97,WNW,292,0.0,0.0,57,0.00,,,0.00,VWS V14.01,2013-01-13 08:07:00,
2013-01-13 00:08:00,42.6,28.5,29.97,WNW,292,0.0,0.0,57,0.00,,,0.00,VWS V14.01,2013-01-13 08:08:00,
2013-01-13 00:09:00,42.4,28.7,29.97,NW,315,0.0,0.0,58,0.00,,,0.00,VWS V14.01,2013-01-13 08:09:00,
2013-01-13 00:10:00,42.4,28.7,29.97,NW,315,2.5,2.5,58,0.00,,,0.00,VWS V14.01,2013-01-13 08:10:00,
2013-01-13 00:11:00,42.4,28.7,29.97,NW,315,0.9,2.5,58,0.00,,,0.00,VWS V14.01,2013-01-13 08:11:00,
2013-01-13 00:12:00,42.4,28.7,29.97,NW,315,0.0,0.9,58,0.00,,,0.00,VWS V14.01,2013-01-13 08:12:00,
2013-01-13 00:13:00,42.4,28.7,29.97,NW,315,0.0,0.0,58,0.00,,,0.00,VWS V14.01,2013-01-13 08:13:00,
2013-01-13 00:14:00,42.4,28.7,29.97,NW,315,2.5,2.5,58,0.00,,,0.00,VWS V14.01,2013-01-13 08:14:00,
2013-01-13 00:15:00,42.4,28.7,29.97,NW,315,0.0,2.5,58,0.00,,,0.00,VWS V14.01,2013-01-13 08:15:00,
2013-01-13 00:16:00,42.4,28.3,29.97,NW,315,0.0,0.0,57,0.00,,,0.00,VWS V14.01,2013-01-13 08:16:00,
2013-01-13 00:17:00,42.4,28.3,29.97,WNW,292,0.0,0.0,57,0.00,,,0.00,VWS V14.01,2013-01-13 08:17:00,
2013-01-13 00:18:00,42.3,28.5,29.97,NW,315,0.0,0.0,58,0.00,,,0.00,VWS V14.01,2013-01-13 08:18:00,
2013-01-13 00:19:00,42.3,28.5,29.97,WNW,292,0.0,0.0,58,0.00,,,0.00,VWS V14.01,2013-01-13 08:19:00,
2013-01-13 00:20:00,42.3,28.5,29.97,NW,315,0.0,0.0,58,0.00,,,0.00,VWS V14.01,2013-01-13 08:20:00,
2013-01-13 00:21:00,42.3,28.5,29.97,NW,315,0.0,0.0,58,0.00,,,0.00,VWS V14.01,2013-01-13 08:21:00,
2013-01-13 00:22:00,42.3,28.5,29.97,NNW,338,2.9,2.9,58,0.00,,,0.00,VWS V14.01,2013-01-13 08:22:00,
2013-01-13 00:23:00,42.3,28.5,29.97,North,0,1.1,2.9,58,0.00,,,0.00,VWS V14.01,2013-01-13 08:23:00,
2013-01-13 00:24:00,42.3,28.5,29.97,North,0,1.1,2.9,58,0.00,,,0.00,VWS V14.01,2013-01-13 08:24:00,
2013-01-13 00:25:00,42.3,28.1,29.97,NNE,22,2.5,2.9,57,0.00,,,0.00,VWS V14.01,2013-01-13 08:25:00,
2013-01-13 00:26:00,42.3,28.1,29.97,NNE,22,3.1,3.1,57,0.00,,,0.00,VWS V14.01,2013-01-13 08:26:00,
2013-01-13 00:27:00,42.3,27.7,29.97,North,0,0.0,3.1,56,0.00,,,0.00,VWS V14.01,2013-01-13 08:27:00,
2013-01-13 00:28:00,42.3,27.7,29.97,North,0,0.0,0.0,56,0.00,,,0.00,VWS V14.01,2013-01-13 08:28:00,
2013-01-13 00:29:00,42.3,27.7,29.97,North,0,0.0,0.0,56,0.00,,,0.00,VWS V14.01,2013-01-13 08:29:00,
2013-01-13 00:30:00,42.3,27.7,29.97,NNE,22,0.0,0.0,56,0.00,,,0.00,VWS V14.01,2013-01-13 08:30:00,
2013-01-13 00:31:00,42.3,27.7,29.97,NNE,22,2.7,2.7,56,0.00,,,0.00,VWS V14.01,2013-01-13 08:31:00,
2013-01-13 00:32:00,42.1,27.5,29.97,NNE,22,0.0,2.7,56,0.00,,,0.00,VWS V14.01,2013-01-13 08:32:00,
2013-01-13 00:33:00,42.1,27.5,29.97,NNE,22,0.0,0.0,56,0.00,,,0.00,VWS V14.01,2013-01-13 08:33:00,
2013-01-13 00:34:00,42.1,27.5,29.97,NNE,22,0.0,0.0,56,0.00,,,0.00,VWS V14.01,2013-01-13 08:34:00,
2013-01-13 00:35:00,42.1,27.5,29.97,NNE,22,0.0,0.0,56,0.00,,,0.00,VWS V14.01,2013-01-13 08:35:00,
2013-01-13 00:36:00,42.1,27.5,29.97,NNE,22,0.0,0.0,56,0.00,,,0.00,VWS V14.01,2013-01-13 08:36:00,
2013-01-13 00:37:00,42.1,27.5,29.97,NNE,22,0.0,0.0,56,0.00,,,0.00,VWS V14.01,2013-01-13 08:37:00,
2013-01-13 00:38:00,42.1,27.5,29.97,NNE,22,0.0,0.0,56,0.00,,,0.00,VWS V14.01,2013-01-13 08:38:00,
2013-01-13 00:39:00,41.9,27.4,29.97,NNE,22,0.0,0.0,56,0.00,,,0.00,VWS V14.01,2013-01-13 08:39:00,
2013-01-13 00:40:00,41.9,27.4,29.97,NNE,22,0.0,0.0,56,0.00,,,0.00,VWS V14.01,2013-01-13 08:40:00,
2013-01-13 00:41:00,41.9,27.4,29.97,NNE,22,0.0,0.0,56,0.00,,,0.00,VWS V14.01,2013-01-13 08:41:00,
2013-01-13 00:42:00,41.9,27.4,29.97,NNE,22,0.0,0.0,56,0.00,,,0.00,VWS V14.01,2013-01-13 08:42:00,
2013-01-13 00:43:00,41.9,26.9,29.97,NNE,22,0.0,0.0,55,0.00,,,0.00,VWS V14.01,2013-01-13 08:43:00,
2013-01-13 00:44:00,41.9,26.9,29.97,NNE,22,0.0,0.0,55,0.00,,,0.00,VWS V14.01,2013-01-13 08:44:00,
2013-01-13 00:45:00,41.7,26.8,29.97,NNE,22,0.0,0.0,55,0.00,,,0.00,VWS V14.01,2013-01-13 08:45:00,
2013-01-13 00:46:00,41.7,26.8,29.97,NNE,22,0.0,0.0,55,0.00,,,0.00,VWS V14.01,2013-01-13 08:46:00,
2013-01-13 00:47:00,41.7,26.8,29.97,NNE,22,0.0,0.0,55,0.00,,,0.00,VWS V14.01,2013-01-13 08:47:00,
2013-01-13 00:48:00,41.7,26.8,29.97,NNE,22,0.0,0.0,55,0.00,,,0.00,VWS V14.01,2013-01-13 08:48:00,
2013-01-13 00:49:00,41.7,26.8,29.97,NNE,22,0.0,0.0,55,0.00,,,0.00,VWS V14.01,2013-01-13 08:49:00,
2013-01-13 00:50:00,41.7,26.8,29.97,NNE,22,0.0,0.0,55,0.00,,,0.00,VWS V14.01,2013-01-13 08:50:00,
2013-01-13 00:51:00,41.7,26.8,29.97,NNE,22,2.0,2.0,55,0.00,,,0.00,VWS V14.01,2013-01-13 08:51:00,
2013-01-13 00:52:00,41.7,26.3,29.97,NNE,22,2.0,2.0,54,0.00,,,0.00,VWS V14.01,2013-01-13 08:52:00,
2013-01-13 00:53:00,41.7,26.3,29.97,NNE,22,2.0,2.0,54,0.00,,,0.00,VWS V14.01,2013-01-13 08:53:00,
2013-01-13 00:54:00,41.9,26.5,29.97,NNE,22,0.0,2.0,54,0.00,,,0.00,VWS V14.01,2013-01-13 08:54:00,
2013-01-13 00:55:00,41.9,26.5,29.97,NNE,22,0.0,0.0,54,0.00,,,0.00,VWS V14.01,2013-01-13 08:55:00,
2013-01-13 00:57:00,41.9,26.5,29.97,NNE,22,0.0,0.0,54,0.00,,,0.00,VWS V14.01,2013-01-13 08:57:00,
2013-01-13 00:58:00,41.9,26.5,29.97,NE,45,0.0,0.0,54,0.00,,,0.00,VWS V14.01,2013-01-13 08:58:00,
2013-01-13 00:59:00,41.7,26.3,29.97,NE,45,0.0,0.0,54,0.00,,,0.00,VWS V14.01,2013-01-13 08:59:00,
2013-01-13 01:00:00,41.7,26.3,29.97,NE,45,0.0,0.0,54,0.00,,,0.00,VWS V14.01,2013-01-13 09:00:00,
2013-01-13 01:01:00,41.7,26.3,29.97,NE,45,0.0,0.0,54,0.00,,,0.00,VWS V14.01,2013-01-13 09:01:00,
2013-01-13 01:02:00,41.9,26.5,29.97,NE,45,0.0,0.0,54,0.00,,,0.00,VWS V14.01,2013-01-13 09:02:00,
2013-01-13 01:03:00,41.9,26.5,29.97,NE,45,0.0,0.0,54,0.00,,,0.00,VWS V14.01,2013-01-13 09:03:00,
2013-01-13 01:04:00,41.9,26.5,29.97,NE,45,0.0,0.0,54,0.00,,,0.00,VWS V14.01,2013-01-13 09:04:00,
2013-01-13 01:05:00,41.9,26.5,29.97,NE,45,0.0,0.0,54,0.00,,,0.00,VWS V14.01,2013-01-13 09:05:00,
2013-01-13 01:06:00,41.9,26.5,29.97,NE,45,0.0,0.0,54,0.00,,,0.00,VWS V14.01,2013-01-13 09:06:00,
2013-01-13 01:07:00,41.9,26.0,29.97,NE,45,0.0,0.0,53,0.00,,,0.00,VWS V14.01,2013-01-13 09:07:00,
2013-01-13 01:08:00,41.9,26.0,29.97,NE,45,0.0,0.0,53,0.00,,,0.00,VWS V14.01,2013-01-13 09:08:00,
2013-01-13 01:09:00,41.9,26.0,29.97,NE,45,0.0,0.0,53,0.00,,,0.00,VWS V14.01,2013-01-13 09:09:00,
2013-01-13 01:10:00,41.9,26.0,29.97,NE,45,0.0,0.0,53,0.00,,,0.00,VWS V14.01,2013-01-13 09:10:00,
2013-01-13 01:11:00,41.9,26.0,29.97,NE,45,0.0,0.0,53,0.00,,,0.00,VWS V14.01,2013-01-13 09:11:00,
2013-01-13 01:12:00,41.5,25.7,29.97,NE,45,0.0,0.0,53,0.00,,,0.00,VWS V14.01,2013-01-13 09:12:00,
2013-01-13 01:13:00,41.5,25.7,29.97,NE,45,0.0,0.0,53,0.00,,,0.00,VWS V14.01,2013-01-13 09:13:00,
2013-01-13 01:14:00,41.5,25.7,29.97,NE,45,0.0,0.0,53,0.00,,,0.00,VWS V14.01,2013-01-13 09:14:00,
2013-01-13 01:15:00,41.5,25.7,29.97,NE,45,0.0,0.0,53,0.00,,,0.00,VWS V14.01,2013-01-13 09:15:00,
2013-01-13 01:16:00,41.5,26.1,29.97,ENE,68,0.0,0.0,54,0.00,,,0.00,VWS V14.01,2013-01-13 09:16:00,
2013-01-13 01:17:00,41.5,25.7,29.97,SE,135,1.1,1.1,53,0.00,,,0.00,VWS V14.01,2013-01-13 09:17:00,
2013-01-13 01:18:00,41.5,25.7,29.97,SE,135,1.1,1.1,53,0.00,,,0.00,VWS V14.01,2013-01-13 09:18:00,
2013-01-13 01:19:00,41.5,25.7,29.97,SE,135,0.0,1.1,53,0.00,,,0.00,VWS V14.01,2013-01-13 09:19:00,
2013-01-13 01:20:00,41.5,25.7,29.97,SE,135,0.0,0.0,53,0.00,,,0.00,VWS V14.01,2013-01-13 09:20:00,
2013-01-13 01:21:00,41.5,25.7,29.97,SE,135,0.0,0.0,53,0.00,,,0.00,VWS V14.01,2013-01-13 09:21:00,
2013-01-13 01:22:00,41.5,25.7,29.97,SE,135,0.0,0.0,53,0.00,,,0.00,VWS V14.01,2013-01-13 09:22:00,
2013-01-13 01:23:00,41.5,25.7,29.97,SE,135,0.0,0.0,53,0.00,,,0.00,VWS V14.01,2013-01-13 09:23:00,
2013-01-13 01:24:00,41.5,25.7,29.97,SE,135,0.0,0.0,53,0.00,,,0.00,VWS V14.01,2013-01-13 09:24:00,
2013-01-13 01:25:00,41.5,25.7,29.97,SE,135,0.0,0.0,53,0.00,,,0.00,VWS V14.01,2013-01-13 09:25:00,
2013-01-13 01:26:00,41.5,25.7,29.97,ENE,68,1.6,1.6,53,0.00,,,0.00,VWS V14.01,2013-01-13 09:26:00,
2013-01-13 01:27:00,41.5,25.7,29.97,NNE,22,0.0,1.6,53,0.00,,,0.00,VWS V14.01,2013-01-13 09:27:00,
2013-01-13 01:28:00,41.5,25.7,29.97,NNE,22,0.0,0.0,53,0.00,,,0.00,VWS V14.01,2013-01-13 09:28:00,
2013-01-13 01:29:00,41.5,25.7,29.97,NNE,22,0.0,0.0,53,0.00,,,0.00,VWS V14.01,2013-01-13 09:29:00,
2013-01-13 01:30:00,41.5,25.7,29.97,NNE,22,0.0,0.0,53,0.00,,,0.00,VWS V14.01,2013-01-13 09:30:00,
2013-01-13 01:31:00,41.5,25.7,29.97,NNE,22,0.0,0.0,53,0.00,,,0.00,VWS V14.01,2013-01-13 09:31:00,
2013-01-13 01:32:00,41.5,25.7,29.97,NNE,22,0.0,0.0,53,0.00,,,0.00,VWS V14.01,2013-01-13 09:32:00,
2013-01-13 01:34:00,41.5,25.7,29.97,NNE,22,0.0,0.0,53,0.00,,,0.00,VWS V14.01,2013-01-13 09:34:00,
2013-01-13 01:35:00,41.5,25.7,29.97,SSE,158,1.6,1.6,53,0.00,,,0.00,VWS V14.01,2013-01-13 09:35:00,
2013-01-13 01:36:00,41.5,25.7,29.97,SSE,158,1.3,1.6,53,0.00,,,0.00,VWS V14.01,2013-01-13 09:36:00,
2013-01-13 01:37:00,41.5,25.7,29.97,East,90,2.0,2.5,53,0.00,,,0.00,VWS V14.01,2013-01-13 09:37:00,
2013-01-13 01:38:00,41.5,25.7,29.97,East,90,2.0,2.5,53,0.00,,,0.00,VWS V14.01,2013-01-13 09:38:00,
2013-01-13 01:39:00,41.5,25.7,29.97,SE,135,1.6,2.0,53,0.00,,,0.00,VWS V14.01,2013-01-13 09:39:00,
2013-01-13 01:40:00,41.5,25.7,29.97,SE,135,2.5,2.5,53,0.00,,,0.00,VWS V14.01,2013-01-13 09:40:00,
2013-01-13 01:41:00,41.5,25.7,29.97,SE,135,2.5,2.5,53,0.00,,,0.00,VWS V14.01,2013-01-13 09:41:00,
2013-01-13 01:42:00,41.5,25.7,29.97,ESE,112,2.5,2.5,53,0.00,,,0.00,VWS V14.01,2013-01-13 09:42:00,
2013-01-13 01:43:00,41.5,25.7,29.97,ESE,112,2.5,2.5,53,0.00,,,0.00,VWS V14.01,2013-01-13 09:43:00,
2013-01-13 01:44:00,41.5,25.7,29.97,ESE,112,2.5,2.5,53,0.00,,,0.00,VWS V14.01,2013-01-13 09:44:00,
2013-01-13 01:45:00,41.5,25.7,29.97,ESE,112,2.5,2.5,53,0.00,,,0.00,VWS V14.01,2013-01-13 09:45:00,
2013-01-13 01:46:00,41.5,25.7,29.97,ESE,112,3.4,3.4,53,0.00,,,0.00,VWS V14.01,2013-01-13 09:46:00,
2013-01-13 01:47:00,41.5,25.7,29.97,ESE,112,4.0,4.0,53,0.00,,,0.00,VWS V14.01,2013-01-13 09:47:00,
2013-01-13 01:48:00,41.5,25.7,29.97,ESE,112,4.0,4.0,53,0.00,,,0.00,VWS V14.01,2013-01-13 09:48:00,
2013-01-13 01:49:00,41.5,25.7,29.97,SSE,158,2.9,4.0,53,0.00,,,0.00,VWS V14.01,2013-01-13 09:49:00,
2013-01-13 01:50:00,41.5,25.7,29.97,SSE,158,2.0,2.9,53,0.00,,,0.00,VWS V14.01,2013-01-13 09:50:00,
2013-01-13 01:51:00,41.5,25.7,29.97,SSE,158,2.0,2.0,53,0.00,,,0.00,VWS V14.01,2013-01-13 09:51:00,
2013-01-13 01:52:00,41.5,25.7,29.97,ESE,112,2.7,2.7,53,0.00,,,0.00,VWS V14.01,2013-01-13 09:52:00,
2013-01-13 01:53:00,41.5,25.7,29.97,ESE,112,2.7,2.7,53,0.00,,,0.00,VWS V14.01,2013-01-13 09:53:00,
2013-01-13 01:54:00,41.4,25.5,29.97,ESE,112,2.9,2.9,53,0.00,,,0.00,VWS V14.01,2013-01-13 09:54:00,
2013-01-13 01:55:00,41.4,25.5,29.97,SSE,158,2.7,2.9,53,0.00,,,0.00,VWS V14.01,2013-01-13 09:55:00,
2013-01-13 01:56:00,41.4,25.5,29.97,SE,135,3.1,3.1,53,0.00,,,0.00,VWS V14.01,2013-01-13 09:56:00,
2013-01-13 01:57:00,41.4,25.5,29.97,SE,135,3.8,3.8,53,0.00,,,0.00,VWS V14.01,2013-01-13 09:57:00,
2013-01-13 01:58:00,41.4,25.5,29.97,SE,135,3.8,3.8,53,0.00,,,0.00,VWS V14.01,2013-01-13 09:58:00,
2013-01-13 01:59:00,41.4,25.5,30.00,East,90,5.8,5.8,53,0.00,,,0.00,VWS V14.01,2013-01-13 09:59:00,
2013-01-13 02:00:00,41.4,25.5,30.00,East,90,5.8,5.8,53,0.00,,,0.00,VWS V14.01,2013-01-13 10:00:00,
2013-01-13 02:01:00,41.4,25.5,30.00,ESE,112,5.4,5.8,53,0.00,,,0.00,VWS V14.01,2013-01-13 10:01:00,
2013-01-13 02:02:00,41.5,25.2,30.00,East,90,5.8,5.8,52,0.00,,,0.00,VWS V14.01,2013-01-13 10:02:00,
2013-01-13 02:03:00,41.5,25.2,30.00,East,90,5.8,5.8,52,0.00,,,0.00,VWS V14.01,2013-01-13 10:03:00,
2013-01-13 02:04:00,41.5,25.2,30.00,East,90,5.8,5.8,52,0.00,,,0.00,VWS V14.01,2013-01-13 10:04:00,
2013-01-13 02:05:00,41.5,25.2,30.00,ESE,112,3.4,5.8,52,0.00,,,0.00,VWS V14.01,2013-01-13 10:05:00,
2013-01-13 02:06:00,41.7,25.4,30.00,ESE,112,4.9,4.9,52,0.00,,,0.00,VWS V14.01,2013-01-13 10:06:00,
2013-01-13 02:07:00,41.7,25.4,30.00,East,90,4.0,5.8,52,0.00,,,0.00,VWS V14.01,2013-01-13 10:07:00,
2013-01-13 02:08:00,41.7,25.4,30.00,East,90,2.0,5.8,52,0.00,,,0.00,VWS V14.01,2013-01-13 10:08:00,
2013-01-13 02:09:00,41.7,24.9,30.00,SE,135,3.8,3.8,51,0.00,,,0.00,VWS V14.01,2013-01-13 10:09:00,
2013-01-13 02:10:00,41.7,24.9,30.00,ESE,112,6.0,6.0,51,0.00,,,0.00,VWS V14.01,2013-01-13 10:10:00,
2013-01-13 02:11:00,41.9,25.1,30.00,ESE,112,6.0,6.0,51,0.00,,,0.00,VWS V14.01,2013-01-13 10:11:00,
2013-01-13 02:12:00,41.7,24.9,30.00,ESE,112,2.7,2.7,51,0.00,,,0.00,VWS V14.01,2013-01-13 10:12:00,
2013-01-13 02:13:00,41.7,24.9,30.00,ENE,68,3.1,3.1,51,0.00,,,0.00,VWS V14.01,2013-01-13 10:13:00,
2013-01-13 02:14:00,41.7,24.9,30.00,East,90,2.9,3.1,51,0.00,,,0.00,VWS V14.01,2013-01-13 10:14:00,
2013-01-13 02:15:00,41.7,24.9,30.00,East,90,1.3,2.9,51,0.00,,,0.00,VWS V14.01,2013-01-13 10:15:00,
2013-01-13 02:16:00,41.7,24.9,30.00,East,90,4.3,4.3,51,0.00,,,0.00,VWS V14.01,2013-01-13 10:16:00,
2013-01-13 02:17:00,41.7,24.9,30.00,East,90,4.3,4.3,51,0.00,,,0.00,VWS V14.01,2013-01-13 10:17:00,
2013-01-13 02:18:00,41.7,24.9,30.00,East,90,4.3,4.3,51,0.00,,,0.00,VWS V14.01,2013-01-13 10:18:00,
2013-01-13 02:19:00,41.7,24.9,30.00,East,90,3.6,4.3,51,0.00,,,0.00,VWS V14.01,2013-01-13 10:19:00,
2013-01-13 02:20:00,41.5,24.8,30.00,ESE,112,3.4,3.6,51,0.00,,,0.00,VWS V14.01,2013-01-13 10:20:00,
2013-01-13 02:21:00,41.5,24.8,30.00,East,90,4.9,4.9,51,0.00,,,0.00,VWS V14.01,2013-01-13 10:21:00,
2013-01-13 02:22:00,41.5,24.3,30.00,East,90,4.3,4.7,50,0.00,,,0.00,VWS V14.01,2013-01-13 10:22:00,
2013-01-13 02:23:00,41.5,24.3,30.00,East,90,4.3,4.7,50,0.00,,,0.00,VWS V14.01,2013-01-13 10:23:00,
2013-01-13 02:24:00,41.5,24.3,30.00,ESE,112,5.4,5.4,50,0.00,,,0.00,VWS V14.01,2013-01-13 10:24:00,
2013-01-13 02:25:00,41.7,24.5,30.00,East,90,4.0,5.4,50,0.00,,,0.00,VWS V14.01,2013-01-13 10:25:00,
2013-01-13 02:26:00,41.7,24.5,30.00,ESE,112,1.3,4.0,50,0.00,,,0.00,VWS V14.01,2013-01-13 10:26:00,
2013-01-13 02:27:00,41.5,24.3,30.00,ESE,112,3.6,3.6,50,0.00,,,0.00,VWS V14.01,2013-01-13 10:27:00,
2013-01-13 02:28:00,41.5,24.3,30.00,ESE,112,5.4,5.4,50,0.00,,,0.00,VWS V14.01,2013-01-13 10:28:00,
2013-01-13 02:29:00,41.5,24.3,30.00,ESE,112,4.5,5.4,50,0.00,,,0.00,VWS V14.01,2013-01-13 10:29:00,
2013-01-13 02:30:00,41.5,24.3,30.00,ESE,112,4.0,4.5,50,0.00,,,0.00,VWS V14.01,2013-01-13 10:30:00,
2013-01-13 02:31:00,41.5,24.3,30.00,ESE,112,4.0,4.0,50,0.00,,,0.00,VWS V14.01,2013-01-13 10:31:00,
2013-01-13 02:32:00,41.5,23.8,30.00,East,90,0.0,0.0,49,0.00,,,0.00,VWS V14.01,2013-01-13 10:32:00,
2013-01-13 02:33:00,41.5,23.8,30.00,East,90,0.0,0.0,49,0.00,,,0.00,VWS V14.01,2013-01-13 10:33:00,
2013-01-13 02:34:00,41.5,23.8,30.00,ESE,112,4.0,4.0,49,0.00,,,0.00,VWS V14.01,2013-01-13 10:34:00,
2013-01-13 02:35:00,41.5,23.8,30.00,ESE,112,2.9,4.0,49,0.00,,,0.00,VWS V14.01,2013-01-13 10:35:00,
2013-01-13 02:36:00,41.4,24.1,30.00,ESE,112,2.5,2.9,50,0.00,,,0.00,VWS V14.01,2013-01-13 10:36:00,
2013-01-13 02:37:00,41.2,24.0,30.00,ESE,112,3.1,3.1,50,0.00,,,0.00,VWS V14.01,2013-01-13 10:37:00,
2013-01-13 02:38:00,41.2,24.0,30.00,ESE,112,3.1,3.1,50,0.00,,,0.00,VWS V14.01,2013-01-13 10:38:00,
2013-01-13 02:39:00,41.2,24.0,30.00,ESE,112,3.4,3.4,50,0.00,,,0.00,VWS V14.01,2013-01-13 10:39:00,
2013-01-13 02:40:00,41.2,24.0,30.00,ESE,112,3.4,3.6,50,0.00,,,0.00,VWS V14.01,2013-01-13 10:40:00,
2013-01-13 02:41:00,41.2,24.0,30.00,SE,135,0.9,3.4,50,0.00,,,0.00,VWS V14.01,2013-01-13 10:41:00,
2013-01-13 02:42:00,41.0,23.8,30.00,SSE,158,1.1,2.2,50,0.00,,,0.00,VWS V14.01,2013-01-13 10:42:00,
2013-01-13 02:44:00,41.0,23.8,30.00,SSE,158,1.1,2.2,50,0.00,,,0.00,VWS V14.01,2013-01-13 10:44:00,
2013-01-13 02:45:00,41.0,23.8,30.00,SE,135,2.0,2.0,50,0.00,,,0.00,VWS V14.01,2013-01-13 10:45:00,
2013-01-13 02:46:00,41.0,23.8,30.00,SSE,158,2.9,2.9,50,0.00,,,0.00,VWS V14.01,2013-01-13 10:46:00,
2013-01-13 02:47:00,41.0,23.8,30.00,SSE,158,1.3,3.1,50,0.00,,,0.00,VWS V14.01,2013-01-13 10:47:00,
2013-01-13 02:48:00,41.0,23.8,30.00,SSE,158,1.3,3.1,50,0.00,,,0.00,VWS V14.01,2013-01-13 10:48:00,
2013-01-13 02:49:00,41.0,23.8,30.00,SSE,158,0.0,1.3,50,0.00,,,0.00,VWS V14.01,2013-01-13 10:49:00,
2013-01-13 02:50:00,41.0,23.8,30.00,SE,135,0.0,0.0,50,0.00,,,0.00,VWS V14.01,2013-01-13 10:50:00,
2013-01-13 02:51:00,41.0,23.8,30.00,SE,135,0.0,0.0,50,0.00,,,0.00,VWS V14.01,2013-01-13 10:51:00,
2013-01-13 02:52:00,40.6,23.9,30.00,SE,135,0.0,0.0,51,0.00,,,0.00,VWS V14.01,2013-01-13 10:52:00,
2013-01-13 02:53:00,40.6,23.9,30.00,SE,135,0.0,0.0,51,0.00,,,0.00,VWS V14.01,2013-01-13 10:53:00,
2013-01-13 02:54:00,40.6,23.9,30.00,South,180,0.0,0.0,51,0.00,,,0.00,VWS V14.01,2013-01-13 10:54:00,
2013-01-13 02:55:00,40.6,23.9,30.00,SE,135,2.2,2.2,51,0.00,,,0.00,VWS V14.01,2013-01-13 10:55:00,
2013-01-13 02:56:00,40.6,23.9,30.00,SSE,158,0.0,2.2,51,0.00,,,0.00,VWS V14.01,2013-01-13 10:56:00,
2013-01-13 02:57:00,40.8,24.1,30.00,ESE,112,0.0,0.0,51,0.00,,,0.00,VWS V14.01,2013-01-13 10:57:00,
2013-01-13 02:58:00,40.8,24.1,30.00,ESE,112,0.0,0.0,51,0.00,,,0.00,VWS V14.01,2013-01-13 10:58:00,
2013-01-13 02:59:00,40.8,23.6,30.00,ESE,112,4.3,4.3,50,0.00,,,0.00,VWS V14.01,2013-01-13 10:59:00,
2013-01-13 03:00:00,40.8,23.6,30.00,ESE,112,5.6,5.6,50,0.00,,,0.00,VWS V14.01,2013-01-13 11:00:00,
2013-01-13 03:01:00,41.0,23.8,30.00,ESE,112,4.3,5.6,50,0.00,,,0.00,VWS V14.01,2013-01-13 11:01:00,
2013-01-13 03:02:00,41.0,23.3,30.00,East,90,4.0,4.0,49,0.00,,,0.00,VWS V14.01,2013-01-13 11:02:00,
2013-01-13 03:03:00,41.0,23.3,30.00,East,90,4.0,4.0,49,0.00,,,0.00,VWS V14.01,2013-01-13 11:03:00,
2013-01-13 03:04:00,41.0,23.3,30.00,NE,45,6.5,6.5,49,0.00,,,0.00,VWS V14.01,2013-01-13 11:04:00,
2013-01-13 03:05:00,41.0,23.3,30.00,ESE,112,4.3,6.5,49,0.00,,,0.00,VWS V14.01,2013-01-13 11:05:00,
2013-01-13 03:06:00,41.0,23.3,30.00,ESE,112,3.1,4.3,49,0.00,,,0.00,VWS V14.01,2013-01-13 11:06:00,
2013-01-13 03:07:00,41.0,23.3,30.00,ESE,112,4.3,4.3,49,0.00,,,0.00,VWS V14.01,2013-01-13 11:07:00,
2013-01-13 03:08:00,41.0,23.3,30.00,ESE,112,3.8,4.3,49,0.00,,,0.00,VWS V14.01,2013-01-13 11:08:00,
2013-01-13 03:09:00,41.0,23.3,30.00,ESE,112,4.0,4.0,49,0.00,,,0.00,VWS V14.01,2013-01-13 11:09:00,
2013-01-13 03:10:00,40.8,23.1,30.00,ESE,112,4.3,4.3,49,0.00,,,0.00,VWS V14.01,2013-01-13 11:10:00,
2013-01-13 03:11:00,41.0,23.3,30.00,ESE,112,5.6,5.6,49,0.00,,,0.00,VWS V14.01,2013-01-13 11:11:00,
2013-01-13 03:12:00,41.0,23.3,30.00,ESE,112,3.6,4.0,49,0.00,,,0.00,VWS V14.01,2013-01-13 11:12:00,
2013-01-13 03:13:00,41.0,23.3,30.00,ESE,112,3.6,4.0,49,0.00,,,0.00,VWS V14.01,2013-01-13 11:13:00,
2013-01-13 03:14:00,41.0,23.3,30.00,ESE,112,4.9,4.9,49,0.00,,,0.00,VWS V14.01,2013-01-13 11:14:00,
2013-01-13 03:15:00,40.8,23.1,30.00,ENE,68,5.8,5.8,49,0.00,,,0.00,VWS V14.01,2013-01-13 11:15:00,
2013-01-13 03:16:00,40.8,23.1,30.00,SE,135,4.3,5.8,49,0.00,,,0.00,VWS V14.01,2013-01-13 11:16:00,
2013-01-13 03:17:00,41.0,22.8,30.00,ESE,112,4.7,5.8,48,0.00,,,0.00,VWS V14.01,2013-01-13 11:17:00,
2013-01-13 03:18:00,40.8,23.1,30.00,ESE,112,4.7,5.8,49,0.00,,,0.00,VWS V14.01,2013-01-13 11:18:00,
2013-01-13 03:19:00,40.8,23.1,30.00,ESE,112,5.6,5.6,49,0.00,,,0.00,VWS V14.01,2013-01-13 11:19:00,
2013-01-13 03:20:00,40.8,23.1,30.00,East,90,4.3,5.6,49,0.00,,,0.00,VWS V14.01,2013-01-13 11:20:00,
2013-01-13 03:21:00,40.8,23.1,30.00,ESE,112,4.7,4.7,49,0.00,,,0.00,VWS V14.01,2013-01-13 11:21:00,
2013-01-13 03:22:00,40.6,23.0,30.00,ESE,112,4.9,4.9,49,0.00,,,0.00,VWS V14.01,2013-01-13 11:22:00,
2013-01-13 03:23:00,40.6,23.0,30.00,ESE,112,4.9,4.9,49,0.00,,,0.00,VWS V14.01,2013-01-13 11:23:00,
2013-01-13 03:24:00,40.6,23.0,30.00,ESE,112,4.9,4.9,49,0.00,,,0.00,VWS V14.01,2013-01-13 11:24:00,
2013-01-13 03:25:00,40.5,22.8,30.00,ESE,112,4.5,4.9,49,0.00,,,0.00,VWS V14.01,2013-01-13 11:25:00,
2013-01-13 03:26:00,40.5,22.8,30.00,ESE,112,5.8,5.8,49,0.00,,,0.00,VWS V14.01,2013-01-13 11:26:00,
2013-01-13 03:27:00,40.5,22.8,30.00,ESE,112,6.3,8.5,49,0.00,,,0.00,VWS V14.01,2013-01-13 11:27:00,
2013-01-13 03:28:00,40.5,22.8,30.00,ESE,112,6.3,8.5,49,0.00,,,0.00,VWS V14.01,2013-01-13 11:28:00,
2013-01-13 03:29:00,40.5,22.8,30.00,ESE,112,6.0,6.3,49,0.00,,,0.00,VWS V14.01,2013-01-13 11:29:00,
2013-01-13 03:30:00,40.5,22.8,30.00,ESE,112,6.0,6.0,49,0.00,,,0.00,VWS V14.01,2013-01-13 11:30:00,
2013-01-13 03:31:00,40.6,22.5,30.00,SE,135,5.4,6.0,48,0.00,,,0.00,VWS V14.01,2013-01-13 11:31:00,
2013-01-13 03:32:00,40.6,22.5,30.00,SSE,158,5.4,5.4,48,0.00,,,0.00,VWS V14.01,2013-01-13 11:32:00,
2013-01-13 03:33:00,40.6,22.5,30.00,SSE,158,5.4,5.4,48,0.00,,,0.00,VWS V14.01,2013-01-13 11:33:00,
2013-01-13 03:34:00,40.6,22.5,30.00,ESE,112,3.8,5.4,48,0.00,,,0.00,VWS V14.01,2013-01-13 11:34:00,
2013-01-13 03:35:00,40.6,22.5,30.00,ESE,112,3.8,3.8,48,0.00,,,0.00,VWS V14.01,2013-01-13 11:35:00,
2013-01-13 03:36:00,40.5,22.3,30.00,SE,135,3.1,3.8,48,0.00,,,0.00,VWS V14.01,2013-01-13 11:36:00,
2013-01-13 03:37:00,40.3,22.2,30.00,SE,135,3.8,3.8,48,0.00,,,0.00,VWS V14.01,2013-01-13 11:37:00,
2013-01-13 03:38:00,40.3,22.2,30.00,ESE,112,4.0,4.0,48,0.00,,,0.00,VWS V14.01,2013-01-13 11:38:00,
2013-01-13 03:39:00,40.3,22.2,30.00,ESE,112,2.9,4.0,48,0.00,,,0.00,VWS V14.01,2013-01-13 11:39:00,
2013-01-13 03:40:00,40.3,22.2,30.00,ENE,68,2.7,2.9,48,0.00,,,0.00,VWS V14.01,2013-01-13 11:40:00,
2013-01-13 03:41:00,40.3,21.7,30.00,East,90,4.9,4.9,47,0.00,,,0.00,VWS V14.01,2013-01-13 11:41:00,
2013-01-13 03:42:00,40.3,22.2,30.00,ESE,112,3.8,4.9,48,0.00,,,0.00,VWS V14.01,2013-01-13 11:42:00,
2013-01-13 03:43:00,40.3,22.2,30.00,ESE,112,3.8,4.9,48,0.00,,,0.00,VWS V14.01,2013-01-13 11:43:00,
2013-01-13 03:44:00,40.3,22.2,30.00,ESE,112,6.5,6.5,48,0.00,,,0.00,VWS V14.01,2013-01-13 11:44:00,
2013-01-13 03:45:00,40.3,21.7,30.00,SSE,158,4.7,6.5,47,0.00,,,0.00,VWS V14.01,2013-01-13 11:45:00,
2013-01-13 03:46:00,40.3,21.7,30.00,ESE,112,2.5,4.7,47,0.00,,,0.00,VWS V14.01,2013-01-13 11:46:00,
2013-01-13 03:47:00,40.3,21.7,30.00,ESE,112,2.7,3.8,47,0.00,,,0.00,VWS V14.01,2013-01-13 11:47:00,
2013-01-13 03:48:00,40.3,21.7,30.00,ESE,112,3.1,3.8,47,0.00,,,0.00,VWS V14.01,2013-01-13 11:48:00,
2013-01-13 03:49:00,40.3,21.7,30.00,ESE,112,0.0,3.1,47,0.00,,,0.00,VWS V14.01,2013-01-13 11:49:00,
2013-01-13 03:50:00,40.1,21.5,30.00,SE,135,2.5,2.5,47,0.00,,,0.00,VWS V14.01,2013-01-13 11:50:00,
2013-01-13 03:51:00,40.1,21.5,30.00,SE,135,3.8,3.8,47,0.00,,,0.00,VWS V14.01,2013-01-13 11:51:00,
2013-01-13 03:52:00,40.1,21.5,30.00,SSE,158,3.8,3.8,47,0.00,,,0.00,VWS V14.01,2013-01-13 11:52:00,
2013-01-13 03:53:00,40.1,21.5,30.00,SSE,158,3.8,3.8,47,0.00,,,0.00,VWS V14.01,2013-01-13 11:53:00,
2013-01-13 03:54:00,39.9,21.3,30.00,ESE,112,4.3,4.3,47,0.00,,,0.00,VWS V14.01,2013-01-13 11:54:00,
2013-01-13 03:55:00,39.7,21.2,30.00,SSE,158,4.7,4.7,47,0.00,,,0.00,VWS V14.01,2013-01-13 11:55:00,
2013-01-13 03:56:00,39.7,21.2,30.00,ESE,112,3.8,4.7,47,0.00,,,0.00,VWS V14.01,2013-01-13 11:56:00,
2013-01-13 03:57:00,39.7,21.2,30.00,East,90,6.3,6.3,47,0.00,,,0.00,VWS V14.01,2013-01-13 11:57:00,
2013-01-13 03:58:00,39.7,21.2,30.00,East,90,6.3,6.3,47,0.00,,,0.00,VWS V14.01,2013-01-13 11:58:00,
2013-01-13 03:59:00,39.7,21.2,30.00,ESE,112,6.5,6.5,47,0.00,,,0.00,VWS V14.01,2013-01-13 11:59:00,
2013-01-13 04:00:00,39.7,21.2,30.00,ESE,112,5.8,6.5,47,0.00,,,0.00,VWS V14.01,2013-01-13 12:00:00,
2013-01-13 04:01:00,39.9,20.8,30.00,East,90,7.4,7.4,46,0.00,,,0.00,VWS V14.01,2013-01-13 12:01:00,
2013-01-13 04:02:00,39.9,20.8,30.00,ESE,112,4.9,4.9,46,0.00,,,0.00,VWS V14.01,2013-01-13 12:02:00,
2013-01-13 04:03:00,39.9,20.8,30.00,ESE,112,6.3,6.3,46,0.00,,,0.00,VWS V14.01,2013-01-13 12:03:00,
2013-01-13 04:04:00,39.9,20.3,30.00,ENE,68,7.6,7.6,45,0.00,,,0.00,VWS V14.01,2013-01-13 12:04:00,
2013-01-13 04:05:00,39.9,20.3,30.00,ESE,112,6.3,7.6,45,0.00,,,0.00,VWS V14.01,2013-01-13 12:05:00,
2013-01-13 04:06:00,39.7,20.1,30.00,SE,135,6.5,6.5,45,0.00,,,0.00,VWS V14.01,2013-01-13 12:06:00,
2013-01-13 04:07:00,39.7,20.1,30.00,ESE,112,6.0,6.0,45,0.00,,,0.00,VWS V14.01,2013-01-13 12:07:00,
2013-01-13 04:08:00,39.7,20.1,30.00,ESE,112,6.0,6.0,45,0.00,,,0.00,VWS V14.01,2013-01-13 12:08:00,
2013-01-13 04:09:00,39.7,20.1,30.00,ESE,112,8.1,8.1,45,0.00,,,0.00,VWS V14.01,2013-01-13 12:09:00,
2013-01-13 04:10:00,39.7,20.1,30.00,SE,135,5.6,8.1,45,0.00,,,0.00,VWS V14.01,2013-01-13 12:10:00,
2013-01-13 04:11:00,39.7,20.1,30.00,East,90,6.0,6.0,45,0.00,,,0.00,VWS V14.01,2013-01-13 12:11:00,
2013-01-13 04:12:00,39.6,20.0,30.00,ESE,112,4.9,5.6,45,0.00,,,0.00,VWS V14.01,2013-01-13 12:12:00,
2013-01-13 04:13:00,39.6,20.0,30.00,ESE,112,4.9,5.6,45,0.00,,,0.00,VWS V14.01,2013-01-13 12:13:00,
2013-01-13 04:14:00,39.6,20.0,30.00,East,90,4.3,5.6,45,0.00,,,0.00,VWS V14.01,2013-01-13 12:14:00,
2013-01-13 04:15:00,39.6,20.0,30.00,ESE,112,3.8,4.3,45,0.00,,,0.00,VWS V14.01,2013-01-13 12:15:00,
2013-01-13 04:16:00,39.6,20.0,30.00,ESE,112,4.5,4.5,45,0.00,,,0.00,VWS V14.01,2013-01-13 12:16:00,
2013-01-13 04:17:00,39.6,20.0,30.00,NE,45,6.5,6.5,45,0.00,,,0.00,VWS V14.01,2013-01-13 12:17:00,
2013-01-13 04:18:00,39.6,20.0,30.00,ESE,112,6.0,6.5,45,0.00,,,0.00,VWS V14.01,2013-01-13 12:18:00,
2013-01-13 04:19:00,39.6,20.0,30.00,ESE,112,5.4,6.0,45,0.00,,,0.00,VWS V14.01,2013-01-13 12:19:00,
2013-01-13 04:20:00,39.6,20.0,30.00,ESE,112,6.0,6.0,45,0.00,,,0.00,VWS V14.01,2013-01-13 12:20:00,
2013-01-13 04:21:00,39.6,20.0,30.00,ESE,112,3.6,6.0,45,0.00,,,0.00,VWS V14.01,2013-01-13 12:21:00,
2013-01-13 04:22:00,39.6,20.0,30.00,SE,135,5.4,5.4,45,0.00,,,0.00,VWS V14.01,2013-01-13 12:22:00,
2013-01-13 04:23:00,39.6,20.0,30.00,SE,135,5.4,5.4,45,0.00,,,0.00,VWS V14.01,2013-01-13 12:23:00,
2013-01-13 04:24:00,39.6,20.0,30.00,ESE,112,5.4,5.4,45,0.00,,,0.00,VWS V14.01,2013-01-13 12:24:00,
2013-01-13 04:25:00,39.6,20.0,30.00,SE,135,5.4,5.4,45,0.00,,,0.00,VWS V14.01,2013-01-13 12:25:00,
2013-01-13 04:26:00,39.6,20.0,30.00,SE,135,3.4,5.4,45,0.00,,,0.00,VWS V14.01,2013-01-13 12:26:00,
2013-01-13 04:27:00,39.4,20.3,30.00,ESE,112,5.8,6.5,46,0.00,,,0.00,VWS V14.01,2013-01-13 12:27:00,
2013-01-13 04:28:00,39.4,20.3,30.00,SE,135,5.8,6.5,46,0.00,,,0.00,VWS V14.01,2013-01-13 12:28:00,
2013-01-13 04:29:00,39.4,20.3,30.00,ESE,112,3.8,5.8,46,0.00,,,0.00,VWS V14.01,2013-01-13 12:29:00,
2013-01-13 04:30:00,39.4,20.3,30.00,SE,135,7.4,7.4,46,0.00,,,0.00,VWS V14.01,2013-01-13 12:30:00,
2013-01-13 04:31:00,39.4,20.8,30.00,WNW,292,5.6,7.4,47,0.00,,,0.00,VWS V14.01,2013-01-13 12:31:00,
2013-01-13 04:32:00,39.4,21.3,30.00,SE,135,6.3,6.3,48,0.00,,,0.00,VWS V14.01,2013-01-13 12:32:00,
2013-01-13 04:33:00,39.4,21.3,30.00,SSE,158,6.9,6.9,48,0.00,,,0.00,VWS V14.01,2013-01-13 12:33:00,
2013-01-13 04:34:00,39.4,21.3,30.00,South,180,3.6,6.9,48,0.00,,,0.00,VWS V14.01,2013-01-13 12:34:00,
2013-01-13 04:35:00,39.4,21.3,30.00,South,180,8.7,8.7,48,0.00,,,0.00,VWS V14.01,2013-01-13 12:35:00,
2013-01-13 04:36:00,39.4,21.3,30.00,SE,135,7.8,8.7,48,0.00,,,0.00,VWS V14.01,2013-01-13 12:36:00,
2013-01-13 04:37:00,39.4,21.8,30.00,ESE,112,5.8,5.8,49,0.00,,,0.00,VWS V14.01,2013-01-13 12:37:00,
2013-01-13 04:38:00,39.4,21.8,30.00,ESE,112,5.8,5.8,49,0.00,,,0.00,VWS V14.01,2013-01-13 12:38:00,
2013-01-13 04:39:00,39.4,21.8,30.00,SE,135,2.9,5.8,49,0.00,,,0.00,VWS V14.01,2013-01-13 12:39:00,
2013-01-13 04:40:00,39.4,21.8,30.00,ESE,112,5.6,5.6,49,0.00,,,0.00,VWS V14.01,2013-01-13 12:40:00,
2013-01-13 04:41:00,39.4,21.8,30.00,SE,135,7.8,7.8,49,0.00,,,0.00,VWS V14.01,2013-01-13 12:41:00,
2013-01-13 04:42:00,39.4,21.8,30.00,ENE,68,7.4,7.4,49,0.00,,,0.00,VWS V14.01,2013-01-13 12:42:00,
2013-01-13 04:43:00,39.4,21.8,30.00,ESE,112,6.3,7.4,49,0.00,,,0.00,VWS V14.01,2013-01-13 12:43:00,
2013-01-13 04:44:00,39.4,21.8,30.00,SSE,158,5.8,6.3,49,0.00,,,0.00,VWS V14.01,2013-01-13 12:44:00,
2013-01-13 04:45:00,39.2,21.7,30.00,ESE,112,6.3,6.3,49,0.00,,,0.00,VWS V14.01,2013-01-13 12:45:00,
2013-01-13 04:46:00,39.2,21.7,30.00,East,90,7.2,7.2,49,0.00,,,0.00,VWS V14.01,2013-01-13 12:46:00,
2013-01-13 04:47:00,39.4,21.8,30.00,SSE,158,5.6,5.6,49,0.00,,,0.00,VWS V14.01,2013-01-13 12:47:00,
2013-01-13 04:48:00,39.2,21.7,30.00,SE,135,4.3,5.6,49,0.00,,,0.00,VWS V14.01,2013-01-13 12:48:00,
2013-01-13 04:49:00,39.2,21.7,30.00,ESE,112,5.4,5.4,49,0.00,,,0.00,VWS V14.01,2013-01-13 12:49:00,
2013-01-13 04:50:00,39.2,21.7,30.00,ESE,112,4.9,5.4,49,0.00,,,0.00,VWS V14.01,2013-01-13 12:50:00,
2013-01-13 04:51:00,39.2,21.7,30.00,ESE,112,5.4,5.4,49,0.00,,,0.00,VWS V14.01,2013-01-13 12:51:00,
2013-01-13 04:52:00,39.2,21.7,30.00,East,90,2.9,5.4,49,0.00,,,0.00,VWS V14.01,2013-01-13 12:52:00,
2013-01-13 04:53:00,39.2,21.7,30.00,East,90,2.9,5.4,49,0.00,,,0.00,VWS V14.01,2013-01-13 12:53:00,
2013-01-13 04:54:00,39.0,21.5,30.00,SE,135,4.9,4.9,49,0.00,,,0.00,VWS V14.01,2013-01-13 12:54:00,
2013-01-13 04:55:00,39.0,21.5,30.00,ESE,112,5.6,5.6,49,0.00,,,0.00,VWS V14.01,2013-01-13 12:55:00,
2013-01-13 04:56:00,38.8,21.3,30.00,ESE,112,4.9,6.5,49,0.00,,,0.00,VWS V14.01,2013-01-13 12:56:00,
2013-01-13 04:57:00,38.8,21.3,30.00,NE,45,5.6,5.6,49,0.00,,,0.00,VWS V14.01,2013-01-13 12:57:00,
2013-01-13 04:58:00,38.8,21.3,30.00,WNW,292,5.8,5.8,49,0.00,,,0.00,VWS V14.01,2013-01-13 12:58:00,
2013-01-13 04:59:00,38.8,21.3,30.00,ESE,112,6.3,6.3,49,0.00,,,0.00,VWS V14.01,2013-01-13 12:59:00,
2013-01-13 05:00:00,38.8,21.3,30.00,ESE,112,3.1,6.3,49,0.00,,,0.00,VWS V14.01,2013-01-13 13:00:00,
2013-01-13 05:01:00,38.8,21.3,30.00,SE,135,4.7,4.7,49,0.00,,,0.00,VWS V14.01,2013-01-13 13:01:00,
2013-01-13 05:02:00,38.8,21.3,30.00,ESE,112,4.7,4.9,49,0.00,,,0.00,VWS V14.01,2013-01-13 13:02:00,
2013-01-13 05:03:00,38.8,21.3,30.00,East,90,4.9,4.9,49,0.00,,,0.00,VWS V14.01,2013-01-13 13:03:00,
2013-01-13 05:04:00,38.8,21.3,30.00,ESE,112,3.6,4.9,49,0.00,,,0.00,VWS V14.01,2013-01-13 13:04:00,
2013-01-13 05:05:00,38.8,21.3,30.00,ESE,112,3.8,3.8,49,0.00,,,0.00,VWS V14.01,2013-01-13 13:05:00,
2013-01-13 05:06:00,38.8,20.8,30.00,ESE,112,4.3,4.3,48,0.00,,,0.00,VWS V14.01,2013-01-13 13:06:00,
2013-01-13 05:07:00,38.8,20.8,30.00,ESE,112,2.9,2.9,48,0.00,,,0.00,VWS V14.01,2013-01-13 13:07:00,
2013-01-13 05:08:00,38.8,20.8,30.00,ESE,112,3.6,3.6,48,0.00,,,0.00,VWS V14.01,2013-01-13 13:08:00,
2013-01-13 05:09:00,38.8,20.8,30.00,East,90,3.8,3.8,48,0.00,,,0.00,VWS V14.01,2013-01-13 13:09:00,
2013-01-13 05:10:00,38.8,20.8,30.00,ESE,112,3.1,3.8,48,0.00,,,0.00,VWS V14.01,2013-01-13 13:10:00,
2013-01-13 05:11:00,38.8,20.8,30.00,ESE,112,1.1,3.1,48,0.00,,,0.00,VWS V14.01,2013-01-13 13:11:00,
2013-01-13 05:12:00,38.8,20.8,30.00,ESE,112,2.9,4.0,48,0.00,,,0.00,VWS V14.01,2013-01-13 13:12:00,
2013-01-13 05:13:00,38.8,20.8,30.00,ESE,112,2.9,4.0,48,0.00,,,0.00,VWS V14.01,2013-01-13 13:13:00,
2013-01-13 05:14:00,38.8,20.8,30.03,East,90,3.4,3.4,48,0.00,,,0.00,VWS V14.01,2013-01-13 13:14:00,
2013-01-13 05:15:00,38.7,20.7,30.03,East,90,3.8,3.8,48,0.00,,,0.00,VWS V14.01,2013-01-13 13:15:00,
2013-01-13 05:16:00,38.7,20.7,30.03,East,90,3.1,3.8,48,0.00,,,0.00,VWS V14.01,2013-01-13 13:16:00,
2013-01-13 05:17:00,38.7,20.7,30.03,East,90,3.6,3.6,48,0.00,,,0.00,VWS V14.01,2013-01-13 13:17:00,
2013-01-13 05:18:00,38.7,20.7,30.03,ESE,112,3.1,3.1,48,0.00,,,0.00,VWS V14.01,2013-01-13 13:18:00,
2013-01-13 05:19:00,38.7,20.7,30.03,ESE,112,4.9,4.9,48,0.00,,,0.00,VWS V14.01,2013-01-13 13:19:00,
2013-01-13 05:20:00,38.7,20.7,30.03,ESE,112,4.3,4.9,48,0.00,,,0.00,VWS V14.01,2013-01-13 13:20:00,
2013-01-13 05:21:00,38.7,20.7,30.03,East,90,4.3,4.3,48,0.00,,,0.00,VWS V14.01,2013-01-13 13:21:00,
2013-01-13 05:22:00,38.7,20.7,30.03,ESE,112,3.6,3.6,48,0.00,,,0.00,VWS V14.01,2013-01-13 13:22:00,
2013-01-13 05:23:00,38.7,20.7,30.03,ESE,112,3.6,3.6,48,0.00,,,0.00,VWS V14.01,2013-01-13 13:23:00,
2013-01-13 05:24:00,38.7,20.7,30.03,ESE,112,5.4,5.4,48,0.00,,,0.00,VWS V14.01,2013-01-13 13:24:00,
2013-01-13 05:25:00,38.7,20.7,30.03,ESE,112,4.0,5.4,48,0.00,,,0.00,VWS V14.01,2013-01-13 13:25:00,
2013-01-13 05:26:00,38.7,20.7,30.03,ESE,112,4.0,4.0,48,0.00,,,0.00,VWS V14.01,2013-01-13 13:26:00,
2013-01-13 05:27:00,38.7,20.2,30.03,ESE,112,6.0,6.0,47,0.00,,,0.00,VWS V14.01,2013-01-13 13:27:00,
2013-01-13 05:28:00,38.7,20.2,30.03,ESE,112,6.0,6.0,47,0.00,,,0.00,VWS V14.01,2013-01-13 13:28:00,
2013-01-13 05:29:00,38.7,20.2,30.03,ESE,112,4.0,6.0,47,0.00,,,0.00,VWS V14.01,2013-01-13 13:29:00,
2013-01-13 05:30:00,38.7,20.2,30.03,ESE,112,4.0,4.0,47,0.00,,,0.00,VWS V14.01,2013-01-13 13:30:00,
2013-01-13 05:31:00,38.7,20.7,30.03,ESE,112,5.4,5.4,48,0.00,,,0.00,VWS V14.01,2013-01-13 13:31:00,
2013-01-13 05:32:00,38.7,20.7,30.03,ESE,112,2.9,2.9,48,0.00,,,0.00,VWS V14.01,2013-01-13 13:32:00,
2013-01-13 05:33:00,38.7,20.7,30.03,SSE,158,2.9,2.9,48,0.00,,,0.00,VWS V14.01,2013-01-13 13:33:00,
2013-01-13 05:34:00,38.5,20.5,30.03,SE,135,3.4,3.4,48,0.00,,,0.00,VWS V14.01,2013-01-13 13:34:00,
2013-01-13 05:35:00,38.5,20.5,30.03,SE,135,4.0,4.0,48,0.00,,,0.00,VWS V14.01,2013-01-13 13:35:00,
2013-01-13 05:36:00,38.5,20.5,30.03,ESE,112,3.6,4.0,48,0.00,,,0.00,VWS V14.01,2013-01-13 13:36:00,
2013-01-13 05:37:00,38.5,20.0,30.03,SE,135,3.1,4.3,47,0.00,,,0.00,VWS V14.01,2013-01-13 13:37:00,
2013-01-13 05:38:00,38.5,20.0,30.03,SE,135,3.1,4.3,47,0.00,,,0.00,VWS V14.01,2013-01-13 13:38:00,
2013-01-13 05:39:00,38.5,20.0,30.03,East,90,3.8,3.8,47,0.00,,,0.00,VWS V14.01,2013-01-13 13:39:00,
2013-01-13 05:40:00,38.5,20.0,30.03,East,90,5.6,5.6,47,0.00,,,0.00,VWS V14.01,2013-01-13 13:40:00,
2013-01-13 05:41:00,38.5,20.0,30.03,East,90,6.0,6.0,47,0.00,,,0.00,VWS V14.01,2013-01-13 13:41:00,
2013-01-13 05:42:00,38.5,20.0,30.03,ESE,112,4.9,4.9,47,0.00,,,0.00,VWS V14.01,2013-01-13 13:42:00,
2013-01-13 05:43:00,38.5,20.0,30.03,ESE,112,4.9,4.9,47,0.00,,,0.00,VWS V14.01,2013-01-13 13:43:00,
2013-01-13 05:44:00,38.5,20.0,30.03,ESE,112,5.4,5.4,47,0.00,,,0.00,VWS V14.01,2013-01-13 13:44:00,
2013-01-13 05:45:00,38.5,20.0,30.03,ESE,112,3.6,5.4,47,0.00,,,0.00,VWS V14.01,2013-01-13 13:45:00,
2013-01-13 05:46:00,38.5,20.0,30.03,SE,135,3.4,3.6,47,0.00,,,0.00,VWS V14.01,2013-01-13 13:46:00,
2013-01-13 05:47:00,38.3,19.9,30.03,ESE,112,5.6,5.6,47,0.00,,,0.00,VWS V14.01,2013-01-13 13:47:00,
2013-01-13 05:48:00,38.3,19.9,30.03,ESE,112,4.0,5.6,47,0.00,,,0.00,VWS V14.01,2013-01-13 13:48:00,
2013-01-13 05:49:00,38.3,19.9,30.03,ESE,112,3.8,4.0,47,0.00,,,0.00,VWS V14.01,2013-01-13 13:49:00,
2013-01-13 05:50:00,38.3,19.9,30.03,ESE,112,6.5,6.5,47,0.00,,,0.00,VWS V14.01,2013-01-13 13:50:00,
2013-01-13 05:51:00,38.3,19.9,30.03,SE,135,4.3,6.5,47,0.00,,,0.00,VWS V14.01,2013-01-13 13:51:00,
2013-01-13 05:52:00,38.3,19.9,30.03,ESE,112,5.6,5.6,47,0.00,,,0.00,VWS V14.01,2013-01-13 13:52:00,
2013-01-13 05:53:00,38.3,19.9,30.03,ESE,112,5.6,5.6,47,0.00,,,0.00,VWS V14.01,2013-01-13 13:53:00,
2013-01-13 05:54:00,38.3,19.9,30.03,ESE,112,6.0,6.0,47,0.00,,,0.00,VWS V14.01,2013-01-13 13:54:00,
2013-01-13 05:55:00,38.3,19.9,30.03,ESE,112,5.4,6.0,47,0.00,,,0.00,VWS V14.01,2013-01-13 13:55:00,
2013-01-13 05:56:00,38.3,19.9,30.03,ESE,112,5.4,5.4,47,0.00,,,0.00,VWS V14.01,2013-01-13 13:56:00,
2013-01-13 05:57:00,38.1,19.7,30.03,East,90,7.6,7.6,47,0.00,,,0.00,VWS V14.01,2013-01-13 13:57:00,
2013-01-13 05:58:00,38.1,19.7,30.03,ESE,112,7.6,7.6,47,0.00,,,0.00,VWS V14.01,2013-01-13 13:58:00,
2013-01-13 05:59:00,38.1,19.7,30.03,ESE,112,6.3,7.6,47,0.00,,,0.00,VWS V14.01,2013-01-13 13:59:00,
2013-01-13 06:00:00,38.1,19.7,30.03,ESE,112,6.5,6.5,47,0.00,,,0.00,VWS V14.01,2013-01-13 14:00:00,
2013-01-13 06:01:00,38.1,19.2,30.03,SE,135,5.6,6.5,46,0.00,,,0.00,VWS V14.01,2013-01-13 14:01:00,
2013-01-13 06:02:00,38.1,19.2,30.03,ENE,68,5.8,5.8,46,0.00,,,0.00,VWS V14.01,2013-01-13 14:02:00,
2013-01-13 06:03:00,38.1,19.2,30.03,ENE,68,5.8,5.8,46,0.00,,,0.00,VWS V14.01,2013-01-13 14:03:00,
2013-01-13 06:04:00,38.1,19.2,30.03,ESE,112,6.0,6.0,46,0.00,,,0.00,VWS V14.01,2013-01-13 14:04:00,
2013-01-13 06:05:00,38.1,19.2,30.03,ESE,112,6.0,6.0,46,0.00,,,0.00,VWS V14.01,2013-01-13 14:05:00,
2013-01-13 06:06:00,38.1,19.2,30.03,East,90,3.1,6.0,46,0.00,,,0.00,VWS V14.01,2013-01-13 14:06:00,
2013-01-13 06:07:00,38.1,19.2,30.03,ESE,112,6.5,6.5,46,0.00,,,0.00,VWS V14.01,2013-01-13 14:07:00,
2013-01-13 06:08:00,38.1,19.2,30.03,ESE,112,6.5,6.5,46,0.00,,,0.00,VWS V14.01,2013-01-13 14:08:00,
2013-01-13 06:09:00,38.1,19.2,30.03,ESE,112,5.8,6.5,46,0.00,,,0.00,VWS V14.01,2013-01-13 14:09:00,
2013-01-13 06:10:00,38.1,19.2,30.03,SSE,158,5.6,6.0,46,0.00,,,0.00,VWS V14.01,2013-01-13 14:10:00,
2013-01-13 06:11:00,38.1,19.2,30.03,ESE,112,5.4,5.6,46,0.00,,,0.00,VWS V14.01,2013-01-13 14:11:00,
2013-01-13 06:12:00,38.1,19.2,30.03,ESE,112,5.4,5.4,46,0.00,,,0.00,VWS V14.01,2013-01-13 14:12:00,
2013-01-13 06:13:00,37.9,19.0,30.03,ESE,112,4.9,5.4,46,0.00,,,0.00,VWS V14.01,2013-01-13 14:13:00,
2013-01-13 06:14:00,37.9,19.0,30.03,ESE,112,4.0,4.9,46,0.00,,,0.00,VWS V14.01,2013-01-13 14:14:00,
2013-01-13 06:15:00,37.9,19.0,30.03,ESE,112,3.8,4.0,46,0.00,,,0.00,VWS V14.01,2013-01-13 14:15:00,
2013-01-13 06:16:00,37.9,19.0,30.03,ESE,112,3.4,3.8,46,0.00,,,0.00,VWS V14.01,2013-01-13 14:16:00,
2013-01-13 06:17:00,38.1,19.2,30.03,ESE,112,4.3,6.5,46,0.00,,,0.00,VWS V14.01,2013-01-13 14:17:00,
2013-01-13 06:18:00,38.1,19.2,30.03,ESE,112,4.3,6.5,46,0.00,,,0.00,VWS V14.01,2013-01-13 14:18:00,
2013-01-13 06:19:00,38.1,19.2,30.03,ENE,68,6.0,6.0,46,0.00,,,0.00,VWS V14.01,2013-01-13 14:19:00,
2013-01-13 06:20:00,38.1,19.2,30.03,ESE,112,3.1,6.0,46,0.00,,,0.00,VWS V14.01,2013-01-13 14:20:00,
2013-01-13 06:21:00,38.1,19.2,30.03,ESE,112,3.8,3.8,46,0.00,,,0.00,VWS V14.01,2013-01-13 14:21:00,
2013-01-13 06:22:00,38.1,19.2,30.03,SE,135,2.7,5.6,46,0.00,,,0.00,VWS V14.01,2013-01-13 14:22:00,
2013-01-13 06:23:00,38.1,19.2,30.03,SE,135,2.7,5.6,46,0.00,,,0.00,VWS V14.01,2013-01-13 14:23:00,
2013-01-13 06:24:00,37.9,19.0,30.03,SE,135,3.1,3.1,46,0.00,,,0.00,VWS V14.01,2013-01-13 14:24:00,
2013-01-13 06:25:00,37.9,19.0,30.03,SE,135,2.9,3.1,46,0.00,,,0.00,VWS V14.01,2013-01-13 14:25:00,
2013-01-13 06:26:00,37.9,19.0,30.03,SE,135,3.6,3.6,46,0.00,,,0.00,VWS V14.01,2013-01-13 14:26:00,
2013-01-13 06:27:00,37.9,19.0,30.03,ESE,112,5.4,5.4,46,0.00,,,0.00,VWS V14.01,2013-01-13 14:27:00,
2013-01-13 06:28:00,37.9,19.0,30.03,ESE,112,5.6,5.6,46,0.00,,,0.00,VWS V14.01,2013-01-13 14:28:00,
2013-01-13 06:29:00,37.9,19.0,30.03,SE,135,4.0,5.6,46,0.00,,,0.00,VWS V14.01,2013-01-13 14:29:00,
2013-01-13 06:30:00,37.9,19.0,30.03,ESE,112,3.8,4.0,46,0.00,,,0.00,VWS V14.01,2013-01-13 14:30:00,
2013-01-13 06:31:00,37.9,19.0,30.03,ESE,112,5.4,5.4,46,0.00,,,0.00,VWS V14.01,2013-01-13 14:31:00,
2013-01-13 06:32:00,37.9,19.0,30.03,SE,135,5.8,5.8,46,0.00,,,0.00,VWS V14.01,2013-01-13 14:32:00,
2013-01-13 06:33:00,37.9,19.0,30.03,SE,135,5.8,5.8,46,0.00,,,0.00,VWS V14.01,2013-01-13 14:33:00,
2013-01-13 06:34:00,37.9,19.0,30.03,ESE,112,5.6,5.8,46,0.00,,,0.00,VWS V14.01,2013-01-13 14:34:00,
2013-01-13 06:35:00,37.9,19.0,30.03,ESE,112,6.0,6.0,46,0.00,,,0.00,VWS V14.01,2013-01-13 14:35:00,
2013-01-13 06:36:00,37.9,19.0,30.03,ESE,112,4.7,6.0,46,0.00,,,0.00,VWS V14.01,2013-01-13 14:36:00,
2013-01-13 06:37:00,37.9,19.0,30.03,ESE,112,6.0,6.3,46,0.00,,,0.00,VWS V14.01,2013-01-13 14:37:00,
2013-01-13 06:38:00,37.9,19.0,30.03,ESE,112,6.0,6.3,46,0.00,,,0.00,VWS V14.01,2013-01-13 14:38:00,
2013-01-13 06:39:00,37.9,19.0,30.03,SE,135,7.6,7.6,46,0.00,,,0.00,VWS V14.01,2013-01-13 14:39:00,
2013-01-13 06:40:00,38.1,19.2,30.03,ESE,112,5.4,7.6,46,0.00,,,0.00,VWS V14.01,2013-01-13 14:40:00,
2013-01-13 06:41:00,38.1,19.2,30.03,ESE,112,5.6,5.6,46,0.00,,,0.00,VWS V14.01,2013-01-13 14:41:00,
2013-01-13 06:42:00,37.9,19.0,30.03,ESE,112,5.4,5.4,46,0.00,,,0.00,VWS V14.01,2013-01-13 14:42:00,
2013-01-13 06:43:00,37.9,19.0,30.03,ESE,112,6.3,6.3,46,0.00,,,0.00,VWS V14.01,2013-01-13 14:43:00,
2013-01-13 06:44:00,37.9,19.0,30.03,ESE,112,6.0,6.3,46,0.00,,,0.00,VWS V14.01,2013-01-13 14:44:00,
2013-01-13 06:45:00,37.9,19.0,30.03,ESE,112,6.3,6.3,46,0.00,,,0.00,VWS V14.01,2013-01-13 14:45:00,
2013-01-13 06:46:00,37.9,19.0,30.03,SSE,158,5.4,6.3,46,0.00,,,0.00,VWS V14.01,2013-01-13 14:46:00,
2013-01-13 06:47:00,37.9,19.0,30.03,East,90,7.2,7.2,46,0.00,,,0.00,VWS V14.01,2013-01-13 14:47:00,
2013-01-13 06:48:00,37.9,19.0,30.03,East,90,7.2,7.2,46,0.00,,,0.00,VWS V14.01,2013-01-13 14:48:00,
2013-01-13 06:49:00,37.9,18.5,30.03,SE,135,3.4,7.2,45,0.00,,,0.00,VWS V14.01,2013-01-13 14:49:00,
2013-01-13 06:51:00,37.9,18.5,30.03,ESE,112,6.0,6.0,45,0.00,,,0.00,VWS V14.01,2013-01-13 14:51:00,
2013-01-13 06:52:00,37.9,18.5,30.03,ESE,112,2.9,2.9,45,0.00,,,0.00,VWS V14.01,2013-01-13 14:52:00,
2013-01-13 06:53:00,37.9,18.5,30.03,ESE,112,2.9,2.9,45,0.00,,,0.00,VWS V14.01,2013-01-13 14:53:00,
2013-01-13 06:54:00,37.9,18.5,30.03,ESE,112,5.6,5.6,45,0.00,,,0.00,VWS V14.01,2013-01-13 14:54:00,
2013-01-13 06:55:00,37.9,18.5,30.03,ESE,112,3.4,5.6,45,0.00,,,0.00,VWS V14.01,2013-01-13 14:55:00,
2013-01-13 06:56:00,37.9,18.5,30.03,ESE,112,0.9,3.4,45,0.00,,,0.00,VWS V14.01,2013-01-13 14:56:00,
2013-01-13 06:57:00,37.9,18.5,30.03,ESE,112,0.9,0.9,45,0.00,,,0.00,VWS V14.01,2013-01-13 14:57:00,
2013-01-13 06:58:00,37.9,18.5,30.03,ESE,112,6.0,6.0,45,0.00,,,0.00,VWS V14.01,2013-01-13 14:58:00,
2013-01-13 06:59:00,37.9,18.5,30.03,ESE,112,5.8,6.0,45,0.00,,,0.00,VWS V14.01,2013-01-13 14:59:00,
2013-01-13 07:00:00,37.9,18.5,30.03,ESE,112,2.5,5.8,45,0.00,,,0.00,VWS V14.01,2013-01-13 15:00:00,
2013-01-13 07:01:00,37.9,18.5,30.03,ESE,112,4.9,4.9,45,0.00,,,0.00,VWS V14.01,2013-01-13 15:01:00,
2013-01-13 07:02:00,37.9,18.5,30.03,ESE,112,4.9,6.0,45,0.00,,,0.00,VWS V14.01,2013-01-13 15:02:00,
2013-01-13 07:03:00,37.9,18.5,30.03,ESE,112,4.9,6.0,45,0.00,,,0.00,VWS V14.01,2013-01-13 15:03:00,
2013-01-13 07:04:00,37.9,18.5,30.03,SE,135,4.9,4.9,45,0.00,,,0.00,VWS V14.01,2013-01-13 15:04:00,
2013-01-13 07:05:00,37.9,18.5,30.03,ESE,112,3.6,4.9,45,0.00,,,0.00,VWS V14.01,2013-01-13 15:05:00,
2013-01-13 07:06:00,37.9,18.5,30.03,SE,135,4.3,5.6,45,0.00,,,0.00,VWS V14.01,2013-01-13 15:06:00,
2013-01-13 07:07:00,37.9,18.5,30.03,ESE,112,6.3,6.3,45,0.00,,,0.00,VWS V14.01,2013-01-13 15:07:00,
2013-01-13 07:08:00,37.9,19.0,30.03,ESE,112,4.0,6.3,46,0.00,,,0.00,VWS V14.01,2013-01-13 15:08:00,
2013-01-13 07:09:00,37.9,19.0,30.03,ESE,112,4.5,4.5,46,0.00,,,0.00,VWS V14.01,2013-01-13 15:09:00,
2013-01-13 07:10:00,37.9,19.0,30.03,ESE,112,5.6,5.6,46,0.00,,,0.00,VWS V14.01,2013-01-13 15:10:00,
2013-01-13 07:11:00,37.9,19.0,30.03,SE,135,5.4,5.6,46,0.00,,,0.00,VWS V14.01,2013-01-13 15:11:00,
2013-01-13 07:12:00,37.9,19.0,30.03,ESE,112,6.0,6.0,46,0.00,,,0.00,VWS V14.01,2013-01-13 15:12:00,
2013-01-13 07:13:00,37.9,19.0,30.03,ESE,112,6.5,6.5,46,0.00,,,0.00,VWS V14.01,2013-01-13 15:13:00,
2013-01-13 07:14:00,37.9,19.0,30.03,SE,135,5.8,6.5,46,0.00,,,0.00,VWS V14.01,2013-01-13 15:14:00,
2013-01-13 07:15:00,37.9,19.0,30.03,ESE,112,3.1,5.8,46,0.00,,,0.00,VWS V14.01,2013-01-13 15:15:00,
2013-01-13 07:16:00,37.9,19.0,30.03,ESE,112,5.4,5.4,46,0.00,,,0.00,VWS V14.01,2013-01-13 15:16:00,
2013-01-13 07:17:00,37.9,19.0,30.03,ESE,112,5.6,5.6,46,0.00,,,0.00,VWS V14.01,2013-01-13 15:17:00,
2013-01-13 07:18:00,37.9,19.0,30.03,ESE,112,5.6,5.6,46,0.00,,,0.00,VWS V14.01,2013-01-13 15:18:00,
2013-01-13 07:19:00,37.9,19.0,30.03,ESE,112,3.4,5.6,46,0.00,,,0.00,VWS V14.01,2013-01-13 15:19:00,
2013-01-13 07:20:00,37.9,19.0,30.03,ESE,112,4.7,4.7,46,0.00,,,0.00,VWS V14.01,2013-01-13 15:20:00,
2013-01-13 07:21:00,37.9,19.0,30.03,ESE,112,3.6,4.7,46,0.00,,,0.00,VWS V14.01,2013-01-13 15:21:00,
2013-01-13 07:22:00,37.9,19.0,30.03,ESE,112,3.1,3.1,46,0.00,,,0.00,VWS V14.01,2013-01-13 15:22:00,
2013-01-13 07:23:00,37.9,19.0,30.03,SSE,158,2.9,3.1,46,0.00,,,0.00,VWS V14.01,2013-01-13 15:23:00,
2013-01-13 07:24:00,37.9,19.0,30.03,ESE,112,2.9,2.9,46,0.00,,,0.00,VWS V14.01,2013-01-13 15:24:00,
2013-01-13 07:25:00,37.9,19.0,30.03,ESE,112,1.3,2.9,46,0.00,,,0.00,VWS V14.01,2013-01-13 15:25:00,
2013-01-13 07:26:00,37.9,19.0,30.03,SE,135,3.4,3.4,46,0.00,,,0.00,VWS V14.01,2013-01-13 15:26:00,
2013-01-13 07:27:00,37.6,18.7,30.03,ESE,112,4.0,4.0,46,0.00,,,0.00,VWS V14.01,2013-01-13 15:27:00,
2013-01-13 07:28:00,37.6,18.7,30.03,ESE,112,3.6,4.0,46,0.00,,,0.00,VWS V14.01,2013-01-13 15:28:00,
2013-01-13 07:29:00,37.6,18.7,30.06,ESE,112,3.4,3.6,46,0.00,,,0.00,VWS V14.01,2013-01-13 15:29:00,
2013-01-13 07:30:00,37.6,18.7,30.06,SE,135,0.9,3.4,46,0.00,,,0.00,VWS V14.01,2013-01-13 15:30:00,
2013-01-13 07:32:00,37.9,19.5,30.06,SE,135,0.9,0.9,47,0.00,,,0.00,VWS V14.01,2013-01-13 15:32:00,
2013-01-13 07:33:00,37.9,19.5,30.06,SE,135,0.9,0.9,47,0.00,,,0.00,VWS V14.01,2013-01-13 15:33:00,
2013-01-13 07:34:00,37.9,19.5,30.06,SSE,158,3.4,3.4,47,0.00,,,0.00,VWS V14.01,2013-01-13 15:34:00,
2013-01-13 07:35:00,37.9,19.5,30.06,SE,135,3.4,3.4,47,0.00,,,0.00,VWS V14.01,2013-01-13 15:35:00,
2013-01-13 07:36:00,38.1,19.7,30.06,South,180,0.0,3.4,47,0.00,,,0.00,VWS V14.01,2013-01-13 15:36:00,
2013-01-13 07:37:00,38.1,19.7,30.06,ESE,112,3.4,3.4,47,0.00,,,0.00,VWS V14.01,2013-01-13 15:37:00,
2013-01-13 07:38:00,38.3,19.9,30.06,SE,135,0.0,3.4,47,0.00,,,0.00,VWS V14.01,2013-01-13 15:38:00,
2013-01-13 07:39:00,38.3,19.9,30.06,SE,135,2.9,2.9,47,0.00,,,0.00,VWS V14.01,2013-01-13 15:39:00,
2013-01-13 07:40:00,38.3,19.4,30.06,SE,135,4.0,4.0,46,0.00,,,0.00,VWS V14.01,2013-01-13 15:40:00,
2013-01-13 07:41:00,38.3,19.4,30.06,SSE,158,4.0,4.0,46,0.00,,,0.00,VWS V14.01,2013-01-13 15:41:00,
2013-01-13 07:42:00,38.5,19.5,30.06,ESE,112,3.8,3.8,46,0.00,,,0.00,VWS V14.01,2013-01-13 15:42:00,
2013-01-13 07:43:00,38.5,19.5,30.06,ESE,112,4.0,4.0,46,0.00,,,0.00,VWS V14.01,2013-01-13 15:43:00,
2013-01-13 07:44:00,38.5,19.5,30.06,ESE,112,5.4,5.4,46,0.00,,,0.00,VWS V14.01,2013-01-13 15:44:00,
2013-01-13 07:45:00,38.7,19.7,30.06,SE,135,3.6,5.4,46,0.00,,,0.00,VWS V14.01,2013-01-13 15:45:00,
2013-01-13 07:46:00,38.7,19.7,30.06,ESE,112,2.0,3.6,46,0.00,,,0.00,VWS V14.01,2013-01-13 15:46:00,
2013-01-13 07:47:00,38.7,19.7,30.06,ESE,112,4.3,4.3,46,0.00,,,0.00,VWS V14.01,2013-01-13 15:47:00,
2013-01-13 07:48:00,38.7,19.7,30.06,SE,135,4.9,4.9,46,0.00,,,0.00,VWS V14.01,2013-01-13 15:48:00,
2013-01-13 07:49:00,38.8,19.8,30.06,ESE,112,3.8,4.9,46,0.00,,,0.00,VWS V14.01,2013-01-13 15:49:00,
2013-01-13 07:50:00,39.0,20.0,30.06,ESE,112,3.8,3.8,46,0.00,,,0.00,VWS V14.01,2013-01-13 15:50:00,
2013-01-13 07:51:00,39.0,20.0,30.06,ESE,112,3.8,3.8,46,0.00,,,0.00,VWS V14.01,2013-01-13 15:51:00,
2013-01-13 07:52:00,39.0,20.0,30.06,ESE,112,2.9,2.9,46,0.00,,,0.00,VWS V14.01,2013-01-13 15:52:00,
2013-01-13 07:53:00,39.0,20.0,30.06,ESE,112,2.9,2.9,46,0.00,,,0.00,VWS V14.01,2013-01-13 15:53:00,
2013-01-13 07:54:00,39.0,19.5,30.06,ESE,112,3.8,3.8,45,0.00,,,0.00,VWS V14.01,2013-01-13 15:54:00,
2013-01-13 07:55:00,39.0,19.5,30.06,SSE,158,3.6,3.8,45,0.00,,,0.00,VWS V14.01,2013-01-13 15:55:00,
2013-01-13 07:56:00,39.2,19.7,30.06,SE,135,3.1,3.6,45,0.00,,,0.00,VWS V14.01,2013-01-13 15:56:00,
2013-01-13 07:57:00,39.2,19.7,30.06,SE,135,6.0,6.0,45,0.00,,,0.00,VWS V14.01,2013-01-13 15:57:00,
2013-01-13 07:58:00,39.2,19.7,30.06,SE,135,6.0,6.0,45,0.00,,,0.00,VWS V14.01,2013-01-13 15:58:00,
2013-01-13 07:59:00,39.2,19.7,30.03,SE,135,2.9,6.0,45,0.00,,,0.00,VWS V14.01,2013-01-13 15:59:00,
2013-01-13 08:00:00,39.2,19.7,30.03,SSE,158,2.7,2.9,45,0.00,,,0.00,VWS V14.01,2013-01-13 16:00:00,
2013-01-13 08:01:00,39.2,19.7,30.03,South,180,3.6,3.6,45,0.00,,,0.00,VWS V14.01,2013-01-13 16:01:00,
2013-01-13 08:02:00,39.4,19.8,30.03,SE,135,3.8,3.8,45,0.00,,,0.00,VWS V14.01,2013-01-13 16:02:00,
2013-01-13 08:03:00,39.4,19.8,30.03,SE,135,4.0,4.0,45,0.00,,,0.00,VWS V14.01,2013-01-13 16:03:00,
2013-01-13 08:04:00,39.4,19.8,30.03,ESE,112,1.3,4.0,45,0.00,,,0.00,VWS V14.01,2013-01-13 16:04:00,
2013-01-13 08:06:00,39.6,20.0,30.03,ESE,112,1.3,1.3,45,0.00,,,0.00,VWS V14.01,2013-01-13 16:06:00,
2013-01-13 08:07:00,39.6,20.0,30.03,ESE,112,4.0,4.0,45,0.00,,,0.00,VWS V14.01,2013-01-13 16:07:00,
2013-01-13 08:08:00,39.7,20.1,30.03,ESE,112,4.0,4.0,45,0.00,,,0.00,VWS V14.01,2013-01-13 16:08:00,
2013-01-13 08:09:00,39.7,20.1,30.03,ESE,112,5.8,5.8,45,0.00,,,0.00,VWS V14.01,2013-01-13 16:09:00,
2013-01-13 08:10:00,39.7,20.1,30.03,ESE,112,5.8,5.8,45,0.00,,,0.00,VWS V14.01,2013-01-13 16:10:00,
2013-01-13 08:11:00,39.7,20.1,30.03,ESE,112,3.6,5.8,45,0.00,,,0.00,VWS V14.01,2013-01-13 16:11:00,
2013-01-13 08:12:00,39.9,19.8,30.03,ESE,112,1.6,3.6,44,0.00,,,0.00,VWS V14.01,2013-01-13 16:12:00,
2013-01-13 08:13:00,39.9,19.8,30.03,ESE,112,1.6,3.6,44,0.00,,,0.00,VWS V14.01,2013-01-13 16:13:00,
2013-01-13 08:14:00,39.9,19.8,30.03,ESE,112,4.3,4.3,44,0.00,,,0.00,VWS V14.01,2013-01-13 16:14:00,
2013-01-13 08:15:00,40.1,20.5,30.03,ESE,112,3.1,4.3,45,0.00,,,0.00,VWS V14.01,2013-01-13 16:15:00,
2013-01-13 08:16:00,40.1,20.5,30.03,ESE,112,4.3,4.3,45,0.00,,,0.00,VWS V14.01,2013-01-13 16:16:00,
2013-01-13 08:17:00,40.3,20.6,30.03,ESE,112,4.3,4.3,45,0.00,,,0.00,VWS V14.01,2013-01-13 16:17:00,
2013-01-13 08:18:00,40.3,20.6,30.03,ESE,112,6.0,6.0,45,0.00,,,0.00,VWS V14.01,2013-01-13 16:18:00,
2013-01-13 08:19:00,40.3,20.6,30.03,ESE,112,3.6,6.0,45,0.00,,,0.00,VWS V14.01,2013-01-13 16:19:00,
2013-01-13 08:20:00,40.3,20.1,30.03,East,90,5.6,5.6,44,0.00,,,0.00,VWS V14.01,2013-01-13 16:20:00,
2013-01-13 08:21:00,40.3,20.1,30.03,East,90,5.6,5.6,44,0.00,,,0.00,VWS V14.01,2013-01-13 16:21:00,
2013-01-13 08:22:00,40.5,20.3,30.03,ENE,68,3.1,3.1,44,0.00,,,0.00,VWS V14.01,2013-01-13 16:22:00,
2013-01-13 08:23:00,40.5,20.3,30.03,ESE,112,0.9,3.1,44,0.00,,,0.00,VWS V14.01,2013-01-13 16:23:00,
2013-01-13 08:24:00,40.5,20.3,30.03,ESE,112,4.0,4.0,44,0.00,,,0.00,VWS V14.01,2013-01-13 16:24:00,
2013-01-13 08:25:00,40.5,20.3,30.03,ESE,112,3.8,4.0,44,0.00,,,0.00,VWS V14.01,2013-01-13 16:25:00,
2013-01-13 08:26:00,40.5,20.3,30.03,ESE,112,4.3,4.3,44,0.00,,,0.00,VWS V14.01,2013-01-13 16:26:00,
2013-01-13 08:27:00,40.5,20.3,30.03,East,90,2.2,2.2,44,0.00,,,0.00,VWS V14.01,2013-01-13 16:27:00,
2013-01-13 08:28:00,40.5,20.3,30.03,South,180,0.0,2.2,44,0.00,,,0.00,VWS V14.01,2013-01-13 16:28:00,
2013-01-13 08:29:00,41.0,20.8,30.03,South,180,0.0,0.0,44,0.00,,,0.00,VWS V14.01,2013-01-13 16:29:00,
2013-01-13 08:30:00,41.0,20.8,30.03,ESE,112,2.2,2.5,44,0.00,,,0.00,VWS V14.01,2013-01-13 16:30:00,
2013-01-13 08:31:00,41.0,20.8,30.03,ESE,112,2.2,2.2,44,0.00,,,0.00,VWS V14.01,2013-01-13 16:31:00,
2013-01-13 08:32:00,41.0,20.8,30.03,ENE,68,0.0,0.0,44,0.00,,,0.00,VWS V14.01,2013-01-13 16:32:00,
2013-01-13 08:33:00,41.0,20.8,30.03,ENE,68,4.0,4.0,44,0.00,,,0.00,VWS V14.01,2013-01-13 16:33:00,
2013-01-13 08:34:00,41.0,20.8,30.03,East,90,4.7,4.7,44,0.00,,,0.00,VWS V14.01,2013-01-13 16:34:00,
2013-01-13 08:35:00,41.0,20.8,30.03,ENE,68,5.4,5.4,44,0.00,,,0.00,VWS V14.01,2013-01-13 16:35:00,
2013-01-13 08:36:00,41.0,20.8,30.03,ENE,68,5.4,5.4,44,0.00,,,0.00,VWS V14.01,2013-01-13 16:36:00,
2013-01-13 08:37:00,41.0,20.8,30.03,ENE,68,0.0,0.0,44,0.00,,,0.00,VWS V14.01,2013-01-13 16:37:00,
2013-01-13 08:38:00,40.6,20.5,30.03,ENE,68,0.0,0.0,44,0.00,,,0.00,VWS V14.01,2013-01-13 16:38:00,
2013-01-13 08:39:00,40.6,20.5,30.03,ENE,68,0.0,0.0,44,0.00,,,0.00,VWS V14.01,2013-01-13 16:39:00,
2013-01-13 08:40:00,40.6,19.9,30.03,ENE,68,0.0,0.0,43,0.00,,,0.00,VWS V14.01,2013-01-13 16:40:00,
2013-01-13 08:41:00,40.6,19.9,30.03,ESE,112,0.0,0.0,43,0.00,,,0.00,VWS V14.01,2013-01-13 16:41:00,
2013-01-13 08:42:00,40.6,19.9,30.03,ENE,68,4.7,4.7,43,0.00,,,0.00,VWS V14.01,2013-01-13 16:42:00,
2013-01-13 08:43:00,40.8,20.1,30.03,ENE,68,0.0,4.7,43,0.00,,,0.00,VWS V14.01,2013-01-13 16:43:00,
2013-01-13 08:44:00,40.8,20.1,30.03,ENE,68,0.0,0.0,43,0.00,,,0.00,VWS V14.01,2013-01-13 16:44:00,
2013-01-13 08:45:00,41.0,20.2,30.03,ENE,68,0.0,0.0,43,0.00,,,0.00,VWS V14.01,2013-01-13 16:45:00,
2013-01-13 08:46:00,41.0,20.2,30.03,ENE,68,0.0,0.0,43,0.00,,,0.00,VWS V14.01,2013-01-13 16:46:00,
2013-01-13 08:47:00,41.0,20.2,30.03,ENE,68,0.0,0.0,43,0.00,,,0.00,VWS V14.01,2013-01-13 16:47:00,
2013-01-13 08:48:00,41.0,20.2,30.03,ENE,68,0.0,0.0,43,0.00,,,0.00,VWS V14.01,2013-01-13 16:48:00,
2013-01-13 08:49:00,41.0,20.2,30.03,ENE,68,3.8,3.8,43,0.00,,,0.00,VWS V14.01,2013-01-13 16:49:00,
2013-01-13 08:50:00,41.0,20.2,30.03,NE,45,3.6,3.8,43,0.00,,,0.00,VWS V14.01,2013-01-13 16:50:00,
2013-01-13 08:51:00,41.2,20.4,30.03,ENE,68,5.8,5.8,43,0.00,,,0.00,VWS V14.01,2013-01-13 16:51:00,
2013-01-13 08:52:00,41.0,20.2,30.03,ENE,68,5.8,5.8,43,0.00,,,0.00,VWS V14.01,2013-01-13 16:52:00,
2013-01-13 08:53:00,41.0,20.2,30.03,NE,45,4.9,5.8,43,0.00,,,0.00,VWS V14.01,2013-01-13 16:53:00,
2013-01-13 08:54:00,41.0,20.2,30.03,East,90,4.7,4.9,43,0.00,,,0.00,VWS V14.01,2013-01-13 16:54:00,
2013-01-13 08:55:00,41.0,20.2,30.03,East,90,4.7,4.7,43,0.00,,,0.00,VWS V14.01,2013-01-13 16:55:00,
2013-01-13 08:56:00,41.0,20.2,30.03,ENE,68,4.3,4.7,43,0.00,,,0.00,VWS V14.01,2013-01-13 16:56:00,
2013-01-13 08:57:00,41.0,19.7,30.03,ENE,68,4.9,6.3,42,0.00,,,0.00,VWS V14.01,2013-01-13 16:57:00,
2013-01-13 08:58:00,41.0,19.7,30.03,East,90,5.4,6.3,42,0.00,,,0.00,VWS V14.01,2013-01-13 16:58:00,
2013-01-13 08:59:00,41.2,19.9,30.03,ENE,68,3.6,5.4,42,0.00,,,0.00,VWS V14.01,2013-01-13 16:59:00,
2013-01-13 09:00:00,41.2,19.9,30.03,East,90,4.9,4.9,42,0.00,,,0.00,VWS V14.01,2013-01-13 17:00:00,
2013-01-13 09:01:00,41.2,19.9,30.03,ENE,68,3.1,4.9,42,0.00,,,0.00,VWS V14.01,2013-01-13 17:01:00,
2013-01-13 09:02:00,41.2,19.9,30.03,East,90,3.6,3.6,42,0.00,,,0.00,VWS V14.01,2013-01-13 17:02:00,
2013-01-13 09:03:00,41.5,20.2,30.03,ENE,68,3.6,3.6,42,0.00,,,0.00,VWS V14.01,2013-01-13 17:03:00,
2013-01-13 09:04:00,41.5,20.2,30.03,ENE,68,3.1,3.6,42,0.00,,,0.00,VWS V14.01,2013-01-13 17:04:00,
2013-01-13 09:05:00,41.5,20.2,30.03,East,90,0.0,3.1,42,0.00,,,0.00,VWS V14.01,2013-01-13 17:05:00,
2013-01-13 09:06:00,41.4,20.0,30.03,ENE,68,4.0,4.0,42,0.00,,,0.00,VWS V14.01,2013-01-13 17:06:00,
2013-01-13 09:07:00,41.4,20.0,30.03,ENE,68,0.0,4.0,42,0.00,,,0.00,VWS V14.01,2013-01-13 17:07:00,
2013-01-13 09:08:00,41.4,20.0,30.03,ENE,68,3.4,3.4,42,0.00,,,0.00,VWS V14.01,2013-01-13 17:08:00,
2013-01-13 09:09:00,41.4,20.0,30.03,ENE,68,3.4,3.4,42,0.00,,,0.00,VWS V14.01,2013-01-13 17:09:00,
2013-01-13 09:10:00,41.4,20.6,30.03,ENE,68,4.9,4.9,43,0.00,,,0.00,VWS V14.01,2013-01-13 17:10:00,
2013-01-13 09:11:00,41.4,20.6,30.03,ENE,68,4.9,4.9,43,0.00,,,0.00,VWS V14.01,2013-01-13 17:11:00,
2013-01-13 09:12:00,41.4,20.6,30.03,East,90,6.0,6.0,43,0.00,,,0.00,VWS V14.01,2013-01-13 17:12:00,
2013-01-13 09:13:00,41.4,20.6,30.06,East,90,6.0,6.0,43,0.00,,,0.00,VWS V14.01,2013-01-13 17:13:00,
2013-01-13 09:14:00,41.4,20.6,30.06,SE,135,1.6,6.0,43,0.00,,,0.00,VWS V14.01,2013-01-13 17:14:00,
2013-01-13 09:15:00,42.1,21.2,30.06,SW,225,1.1,1.6,43,0.00,,,0.00,VWS V14.01,2013-01-13 17:15:00,
2013-01-13 09:16:00,42.1,21.2,30.06,SW,225,1.1,1.1,43,0.00,,,0.00,VWS V14.01,2013-01-13 17:16:00,
2013-01-13 09:17:00,42.1,21.2,30.06,SW,225,1.1,1.1,43,0.00,,,0.00,VWS V14.01,2013-01-13 17:17:00,
2013-01-13 09:18:00,42.1,21.2,30.06,SW,225,1.1,1.1,43,0.00,,,0.00,VWS V14.01,2013-01-13 17:18:00,
2013-01-13 09:19:00,42.6,21.7,30.06,East,90,1.6,1.6,43,0.00,,,0.00,VWS V14.01,2013-01-13 17:19:00,
2013-01-13 09:20:00,42.6,21.7,30.06,SSE,158,0.0,1.6,43,0.00,,,0.00,VWS V14.01,2013-01-13 17:20:00,
2013-01-13 09:21:00,42.6,21.7,30.06,ESE,112,5.4,5.4,43,0.00,,,0.00,VWS V14.01,2013-01-13 17:21:00,
2013-01-13 09:22:00,42.6,21.7,30.06,SW,225,2.7,5.4,43,0.00,,,0.00,VWS V14.01,2013-01-13 17:22:00,
2013-01-13 09:23:00,42.6,21.7,30.06,ESE,112,4.9,4.9,43,0.00,,,0.00,VWS V14.01,2013-01-13 17:23:00,
2013-01-13 09:24:00,43.0,21.5,30.06,ESE,112,2.0,4.9,42,0.00,,,0.00,VWS V14.01,2013-01-13 17:24:00,
2013-01-13 09:25:00,43.0,21.5,30.06,ESE,112,4.9,4.9,42,0.00,,,0.00,VWS V14.01,2013-01-13 17:25:00,
2013-01-13 09:26:00,43.0,21.5,30.06,ESE,112,3.6,4.9,42,0.00,,,0.00,VWS V14.01,2013-01-13 17:26:00,
2013-01-13 09:27:00,43.0,21.5,30.06,ESE,112,3.6,3.6,42,0.00,,,0.00,VWS V14.01,2013-01-13 17:27:00,
2013-01-13 09:28:00,43.0,21.5,30.06,NNW,338,2.5,3.6,42,0.00,,,0.00,VWS V14.01,2013-01-13 17:28:00,
2013-01-13 09:29:00,43.0,21.5,30.06,ENE,68,5.4,5.4,42,0.00,,,0.00,VWS V14.01,2013-01-13 17:29:00,
2013-01-13 09:30:00,43.0,21.5,30.06,East,90,6.0,6.0,42,0.00,,,0.00,VWS V14.01,2013-01-13 17:30:00,
2013-01-13 09:31:00,43.2,21.6,30.06,ENE,68,3.6,6.0,42,0.00,,,0.00,VWS V14.01,2013-01-13 17:31:00,
2013-01-13 09:32:00,43.2,21.6,30.06,ESE,112,1.3,1.3,42,0.00,,,0.00,VWS V14.01,2013-01-13 17:32:00,
2013-01-13 09:33:00,43.3,21.8,30.06,ESE,112,2.5,2.5,42,0.00,,,0.00,VWS V14.01,2013-01-13 17:33:00,
2013-01-13 09:34:00,43.3,21.8,30.06,SSE,158,2.0,2.5,42,0.00,,,0.00,VWS V14.01,2013-01-13 17:34:00,
2013-01-13 09:35:00,43.5,22.0,30.06,SSE,158,2.7,2.7,42,0.00,,,0.00,VWS V14.01,2013-01-13 17:35:00,
2013-01-13 09:36:00,43.9,22.9,30.06,West,270,0.0,2.7,43,0.00,,,0.00,VWS V14.01,2013-01-13 17:36:00,
2013-01-13 09:37:00,43.9,22.9,30.06,ESE,112,3.4,3.4,43,0.00,,,0.00,VWS V14.01,2013-01-13 17:37:00,
2013-01-13 09:38:00,44.1,22.5,30.06,ESE,112,2.5,3.4,42,0.00,,,0.00,VWS V14.01,2013-01-13 17:38:00,
2013-01-13 09:39:00,44.1,22.5,30.06,South,180,3.4,3.4,42,0.00,,,0.00,VWS V14.01,2013-01-13 17:39:00,
2013-01-13 09:40:00,44.1,22.5,30.06,South,180,3.4,3.4,42,0.00,,,0.00,VWS V14.01,2013-01-13 17:40:00,
2013-01-13 09:41:00,44.1,22.5,30.06,South,180,3.4,3.4,42,0.00,,,0.00,VWS V14.01,2013-01-13 17:41:00,
2013-01-13 09:42:00,44.1,22.5,30.06,SE,135,4.7,4.7,42,0.00,,,0.00,VWS V14.01,2013-01-13 17:42:00,
2013-01-13 09:43:00,44.1,22.5,30.06,SE,135,4.7,4.7,42,0.00,,,0.00,VWS V14.01,2013-01-13 17:43:00,
2013-01-13 09:44:00,44.1,22.5,30.06,SE,135,4.7,4.7,42,0.00,,,0.00,VWS V14.01,2013-01-13 17:44:00,
2013-01-13 09:45:00,43.7,22.1,30.06,SSE,158,3.8,4.7,42,0.00,,,0.00,VWS V14.01,2013-01-13 17:45:00,
2013-01-13 09:46:00,43.7,22.1,30.06,SSW,202,3.6,3.8,42,0.00,,,0.00,VWS V14.01,2013-01-13 17:46:00,
2013-01-13 09:47:00,43.5,22.0,30.06,SE,135,0.9,0.9,42,0.00,,,0.00,VWS V14.01,2013-01-13 17:47:00,
2013-01-13 09:48:00,43.5,22.0,30.06,East,90,4.9,4.9,42,0.00,,,0.00,VWS V14.01,2013-01-13 17:48:00,
2013-01-13 09:49:00,43.5,22.0,30.06,ENE,68,0.9,4.9,42,0.00,,,0.00,VWS V14.01,2013-01-13 17:49:00,
2013-01-13 09:50:00,43.5,22.0,30.06,SE,135,1.1,1.1,42,0.00,,,0.00,VWS V14.01,2013-01-13 17:50:00,
2013-01-13 09:51:00,43.5,22.0,30.06,SSE,158,0.0,1.1,42,0.00,,,0.00,VWS V14.01,2013-01-13 17:51:00,
2013-01-13 09:52:00,43.5,22.0,30.06,SE,135,2.9,2.9,42,0.00,,,0.00,VWS V14.01,2013-01-13 17:52:00,
2013-01-13 09:53:00,43.5,22.0,30.06,SE,135,4.9,4.9,42,0.00,,,0.00,VWS V14.01,2013-01-13 17:53:00,
2013-01-13 09:54:00,43.5,22.0,30.06,SE,135,4.3,4.9,42,0.00,,,0.00,VWS V14.01,2013-01-13 17:54:00,
2013-01-13 09:55:00,43.5,22.0,30.06,SSE,158,2.7,4.3,42,0.00,,,0.00,VWS V14.01,2013-01-13 17:55:00,
2013-01-13 09:56:00,43.7,22.1,30.06,NE,45,2.0,2.7,42,0.00,,,0.00,VWS V14.01,2013-01-13 17:56:00,
2013-01-13 09:57:00,43.9,22.9,30.06,SE,135,2.0,2.0,43,0.00,,,0.00,VWS V14.01,2013-01-13 17:57:00,
2013-01-13 09:58:00,43.9,22.9,30.06,ESE,112,4.3,4.3,43,0.00,,,0.00,VWS V14.01,2013-01-13 17:58:00,
2013-01-13 09:59:00,43.9,22.9,30.06,NE,45,4.3,6.3,43,0.00,,,0.00,VWS V14.01,2013-01-13 17:59:00,
2013-01-13 10:01:00,43.9,22.9,30.06,NE,45,2.9,4.3,43,0.00,,,0.00,VWS V14.01,2013-01-13 18:01:00,
2013-01-13 10:02:00,43.9,22.9,30.06,ESE,112,4.9,4.9,43,0.00,,,0.00,VWS V14.01,2013-01-13 18:02:00,
2013-01-13 10:03:00,43.9,22.9,30.06,NE,45,2.5,4.9,43,0.00,,,0.00,VWS V14.01,2013-01-13 18:03:00,
2013-01-13 10:04:00,43.9,22.9,30.06,NE,45,2.5,2.5,43,0.00,,,0.00,VWS V14.01,2013-01-13 18:04:00,
2013-01-13 10:05:00,44.1,22.5,30.06,SSE,158,3.1,3.1,42,0.00,,,0.00,VWS V14.01,2013-01-13 18:05:00,
2013-01-13 10:06:00,43.7,22.1,30.06,East,90,5.8,5.8,42,0.00,,,0.00,VWS V14.01,2013-01-13 18:06:00,
2013-01-13 10:07:00,43.7,22.1,30.06,ENE,68,3.4,3.4,42,0.00,,,0.00,VWS V14.01,2013-01-13 18:07:00,
2013-01-13 10:08:00,43.7,21.6,30.06,SSE,158,6.3,6.3,41,0.00,,,0.00,VWS V14.01,2013-01-13 18:08:00,
2013-01-13 10:09:00,43.7,21.6,30.06,ESE,112,3.4,6.3,41,0.00,,,0.00,VWS V14.01,2013-01-13 18:09:00,
2013-01-13 10:10:00,43.7,21.6,30.06,ENE,68,4.7,4.7,41,0.00,,,0.00,VWS V14.01,2013-01-13 18:10:00,
2013-01-13 10:11:00,43.7,21.6,30.06,NNE,22,3.6,4.7,41,0.00,,,0.00,VWS V14.01,2013-01-13 18:11:00,
2013-01-13 10:12:00,43.7,21.6,30.06,SSE,158,3.1,3.6,41,0.00,,,0.00,VWS V14.01,2013-01-13 18:12:00,
2013-01-13 10:13:00,43.7,21.6,30.03,SE,135,3.1,3.1,41,0.00,,,0.00,VWS V14.01,2013-01-13 18:13:00,
2013-01-13 10:14:00,43.7,21.6,30.03,South,180,0.9,3.1,41,0.00,,,0.00,VWS V14.01,2013-01-13 18:14:00,
2013-01-13 10:15:00,43.7,21.6,30.03,ESE,112,4.0,4.3,41,0.00,,,0.00,VWS V14.01,2013-01-13 18:15:00,
2013-01-13 10:16:00,43.7,21.6,30.03,ESE,112,3.1,4.0,41,0.00,,,0.00,VWS V14.01,2013-01-13 18:16:00,
2013-01-13 10:17:00,43.7,21.6,30.03,ESE,112,3.1,3.1,41,0.00,,,0.00,VWS V14.01,2013-01-13 18:17:00,
2013-01-13 10:18:00,43.7,21.6,30.03,SSE,158,4.0,4.0,41,0.00,,,0.00,VWS V14.01,2013-01-13 18:18:00,
2013-01-13 10:19:00,43.9,21.1,30.03,SE,135,6.3,6.3,40,0.00,,,0.00,VWS V14.01,2013-01-13 18:19:00,
2013-01-13 10:20:00,43.9,21.1,30.03,ESE,112,3.4,6.3,40,0.00,,,0.00,VWS V14.01,2013-01-13 18:20:00,
2013-01-13 10:21:00,44.1,21.3,30.03,East,90,2.9,3.4,40,0.00,,,0.00,VWS V14.01,2013-01-13 18:21:00,
2013-01-13 10:22:00,44.1,21.3,30.03,ESE,112,6.5,6.5,40,0.00,,,0.00,VWS V14.01,2013-01-13 18:22:00,
2013-01-13 10:23:00,44.1,21.3,30.03,WSW,248,2.2,6.5,40,0.00,,,0.00,VWS V14.01,2013-01-13 18:23:00,
2013-01-13 10:24:00,44.1,21.3,30.03,SSE,158,1.6,2.2,40,0.00,,,0.00,VWS V14.01,2013-01-13 18:24:00,
2013-01-13 10:25:00,44.1,21.3,30.03,ESE,112,3.8,3.8,40,0.00,,,0.00,VWS V14.01,2013-01-13 18:25:00,
2013-01-13 10:26:00,44.2,21.5,30.03,SSE,158,1.1,3.8,40,0.00,,,0.00,VWS V14.01,2013-01-13 18:26:00,
2013-01-13 10:27:00,44.2,21.5,30.03,NW,315,0.9,1.1,40,0.00,,,0.00,VWS V14.01,2013-01-13 18:27:00,
2013-01-13 10:28:00,44.4,21.6,30.03,South,180,0.9,0.9,40,0.00,,,0.00,VWS V14.01,2013-01-13 18:28:00,
2013-01-13 10:29:00,44.8,22.0,30.03,NNE,22,2.0,2.0,40,0.00,,,0.00,VWS V14.01,2013-01-13 18:29:00,
2013-01-13 10:30:00,44.8,22.0,30.03,SSW,202,4.9,4.9,40,0.00,,,0.00,VWS V14.01,2013-01-13 18:30:00,
2013-01-13 10:31:00,44.8,22.0,30.03,SSE,158,1.1,4.9,40,0.00,,,0.00,VWS V14.01,2013-01-13 18:31:00,
2013-01-13 10:32:00,44.8,22.0,30.03,SE,135,2.7,2.7,40,0.00,,,0.00,VWS V14.01,2013-01-13 18:32:00,
2013-01-13 10:33:00,44.8,22.0,30.03,SE,135,4.9,4.9,40,0.00,,,0.00,VWS V14.01,2013-01-13 18:33:00,
2013-01-13 10:34:00,44.8,22.0,30.03,ESE,112,5.6,5.6,40,0.00,,,0.00,VWS V14.01,2013-01-13 18:34:00,
2013-01-13 10:35:00,44.6,21.8,30.03,ESE,112,5.6,5.6,40,0.00,,,0.00,VWS V14.01,2013-01-13 18:35:00,
2013-01-13 10:36:00,44.6,21.8,30.03,East,90,2.0,5.6,40,0.00,,,0.00,VWS V14.01,2013-01-13 18:36:00,
2013-01-13 10:37:00,44.2,21.5,30.03,NNW,338,0.0,2.0,40,0.00,,,0.00,VWS V14.01,2013-01-13 18:37:00,
2013-01-13 10:38:00,44.2,21.5,30.03,ESE,112,2.5,2.5,40,0.00,,,0.00,VWS V14.01,2013-01-13 18:38:00,
2013-01-13 10:39:00,44.2,21.5,30.03,SSW,202,1.3,2.5,40,0.00,,,0.00,VWS V14.01,2013-01-13 18:39:00,
2013-01-13 10:40:00,44.2,21.5,30.03,ESE,112,2.2,2.2,40,0.00,,,0.00,VWS V14.01,2013-01-13 18:40:00,
2013-01-13 10:41:00,44.2,21.5,30.03,ESE,112,3.4,3.4,40,0.00,,,0.00,VWS V14.01,2013-01-13 18:41:00,
2013-01-13 10:42:00,44.2,21.5,30.03,ESE,112,3.4,3.4,40,0.00,,,0.00,VWS V14.01,2013-01-13 18:42:00,
2013-01-13 10:43:00,44.2,21.5,30.03,ESE,112,4.3,4.3,40,0.00,,,0.00,VWS V14.01,2013-01-13 18:43:00,
2013-01-13 10:44:00,44.4,21.6,30.03,South,180,1.1,4.3,40,0.00,,,0.00,VWS V14.01,2013-01-13 18:44:00,
2013-01-13 10:45:00,44.6,21.8,30.03,South,180,0.0,1.1,40,0.00,,,0.00,VWS V14.01,2013-01-13 18:45:00,
2013-01-13 10:46:00,44.6,21.8,30.03,East,90,0.0,0.0,40,0.00,,,0.00,VWS V14.01,2013-01-13 18:46:00,
2013-01-13 10:47:00,44.8,22.0,30.03,SE,135,3.8,3.8,40,0.00,,,0.00,VWS V14.01,2013-01-13 18:47:00,
2013-01-13 10:48:00,44.8,22.0,30.03,East,90,2.5,3.8,40,0.00,,,0.00,VWS V14.01,2013-01-13 18:48:00,
2013-01-13 10:49:00,44.8,22.0,30.03,SE,135,0.0,2.5,40,0.00,,,0.00,VWS V14.01,2013-01-13 18:49:00,
2013-01-13 10:50:00,44.8,22.0,30.03,ESE,112,0.0,0.0,40,0.00,,,0.00,VWS V14.01,2013-01-13 18:50:00,
2013-01-13 10:51:00,45.1,22.3,30.03,South,180,2.5,2.5,40,0.00,,,0.00,VWS V14.01,2013-01-13 18:51:00,
2013-01-13 10:52:00,45.5,22.6,30.03,SSE,158,0.9,2.5,40,0.00,,,0.00,VWS V14.01,2013-01-13 18:52:00,
2013-01-13 10:53:00,45.5,22.6,30.03,East,90,4.3,4.3,40,0.00,,,0.00,VWS V14.01,2013-01-13 18:53:00,
2013-01-13 10:54:00,45.5,22.6,30.03,SSE,158,2.0,4.3,40,0.00,,,0.00,VWS V14.01,2013-01-13 18:54:00,
2013-01-13 10:55:00,45.5,22.6,30.03,South,180,0.0,2.0,40,0.00,,,0.00,VWS V14.01,2013-01-13 18:55:00,
2013-01-13 10:56:00,45.5,22.6,30.03,South,180,0.9,0.9,40,0.00,,,0.00,VWS V14.01,2013-01-13 18:56:00,
2013-01-13 10:57:00,45.5,22.6,30.03,SSE,158,1.6,1.6,40,0.00,,,0.00,VWS V14.01,2013-01-13 18:57:00,
2013-01-13 10:58:00,45.1,22.3,30.03,SSE,158,0.0,1.6,40,0.00,,,0.00,VWS V14.01,2013-01-13 18:58:00,
2013-01-13 10:59:00,44.8,22.0,30.03,SE,135,4.5,4.5,40,0.00,,,0.00,VWS V14.01,2013-01-13 18:59:00,
2013-01-13 11:00:00,44.8,22.0,30.03,SE,135,6.0,6.0,40,0.00,,,0.00,VWS V14.01,2013-01-13 19:00:00,
2013-01-13 11:01:00,44.8,22.0,30.03,NNE,22,1.3,6.0,40,0.00,,,0.00,VWS V14.01,2013-01-13 19:01:00,
2013-01-13 11:02:00,44.8,22.0,30.03,NNW,338,0.9,1.3,40,0.00,,,0.00,VWS V14.01,2013-01-13 19:02:00,
2013-01-13 11:03:00,44.8,22.0,30.03,WNW,292,3.1,3.1,40,0.00,,,0.00,VWS V14.01,2013-01-13 19:03:00,
2013-01-13 11:04:00,44.8,22.0,30.03,SSE,158,0.0,3.1,40,0.00,,,0.00,VWS V14.01,2013-01-13 19:04:00,
2013-01-13 11:05:00,45.0,22.1,30.03,SW,225,2.0,2.0,40,0.00,,,0.00,VWS V14.01,2013-01-13 19:05:00,
2013-01-13 11:06:00,45.0,22.1,30.03,ESE,112,3.8,3.8,40,0.00,,,0.00,VWS V14.01,2013-01-13 19:06:00,
2013-01-13 11:07:00,45.3,22.4,30.03,SE,135,2.9,3.8,40,0.00,,,0.00,VWS V14.01,2013-01-13 19:07:00,
2013-01-13 11:08:00,45.1,22.3,30.03,SSE,158,5.4,5.4,40,0.00,,,0.00,VWS V14.01,2013-01-13 19:08:00,
2013-01-13 11:09:00,45.1,22.3,30.03,East,90,0.0,5.4,40,0.00,,,0.00,VWS V14.01,2013-01-13 19:09:00,
2013-01-13 11:10:00,45.1,22.3,30.03,SSW,202,1.3,1.3,40,0.00,,,0.00,VWS V14.01,2013-01-13 19:10:00,
2013-01-13 11:11:00,45.1,22.3,30.03,SSE,158,0.0,1.3,40,0.00,,,0.00,VWS V14.01,2013-01-13 19:11:00,
2013-01-13 11:12:00,45.3,22.4,30.03,SSE,158,1.1,1.1,40,0.00,,,0.00,VWS V14.01,2013-01-13 19:12:00,
2013-01-13 11:13:00,45.3,22.4,30.03,SSW,202,0.9,1.1,40,0.00,,,0.00,VWS V14.01,2013-01-13 19:13:00,
2013-01-13 11:14:00,45.3,22.4,30.03,East,90,0.9,1.6,40,0.00,,,0.00,VWS V14.01,2013-01-13 19:14:00,
2013-01-13 11:15:00,45.3,22.4,30.03,East,90,0.9,0.9,40,0.00,,,0.00,VWS V14.01,2013-01-13 19:15:00,
2013-01-13 11:16:00,45.3,22.4,30.03,ENE,68,3.4,3.4,40,0.00,,,0.00,VWS V14.01,2013-01-13 19:16:00,
2013-01-13 11:17:00,45.3,22.4,30.03,ENE,68,3.4,3.4,40,0.00,,,0.00,VWS V14.01,2013-01-13 19:17:00,
2013-01-13 11:18:00,45.3,22.4,30.03,ENE,68,3.4,3.4,40,0.00,,,0.00,VWS V14.01,2013-01-13 19:18:00,
2013-01-13 11:19:00,45.3,22.4,30.03,SE,135,2.9,3.4,40,0.00,,,0.00,VWS V14.01,2013-01-13 19:19:00,
2013-01-13 11:20:00,45.3,22.4,30.03,East,90,6.3,6.3,40,0.00,,,0.00,VWS V14.01,2013-01-13 19:20:00,
2013-01-13 11:21:00,45.3,22.4,30.03,ESE,112,6.0,6.3,40,0.00,,,0.00,VWS V14.01,2013-01-13 19:21:00,
2013-01-13 11:22:00,45.3,22.4,30.03,NE,45,4.9,6.0,40,0.00,,,0.00,VWS V14.01,2013-01-13 19:22:00,
2013-01-13 11:23:00,45.3,22.4,30.03,NNE,22,0.0,4.9,40,0.00,,,0.00,VWS V14.01,2013-01-13 19:23:00,
2013-01-13 11:24:00,45.3,22.4,30.03,NE,45,0.0,0.0,40,0.00,,,0.00,VWS V14.01,2013-01-13 19:24:00,
2013-01-13 11:25:00,45.3,22.4,30.03,NE,45,0.0,0.0,40,0.00,,,0.00,VWS V14.01,2013-01-13 19:25:00,
2013-01-13 11:26:00,45.3,22.4,30.03,NNE,22,6.0,6.0,40,0.00,,,0.00,VWS V14.01,2013-01-13 19:26:00,
2013-01-13 11:27:00,45.3,22.4,30.03,East,90,0.9,0.9,40,0.00,,,0.00,VWS V14.01,2013-01-13 19:27:00,
2013-01-13 11:28:00,45.3,22.4,30.03,SE,135,2.9,2.9,40,0.00,,,0.00,VWS V14.01,2013-01-13 19:28:00,
2013-01-13 11:29:00,45.3,22.4,30.03,South,180,3.4,3.4,40,0.00,,,0.00,VWS V14.01,2013-01-13 19:29:00,
2013-01-13 11:30:00,45.5,22.0,30.03,ESE,112,3.6,3.6,39,0.00,,,0.00,VWS V14.01,2013-01-13 19:30:00,
2013-01-13 11:31:00,45.7,22.2,30.03,South,180,0.0,3.6,39,0.00,,,0.00,VWS V14.01,2013-01-13 19:31:00,
2013-01-13 11:32:00,45.7,22.2,30.03,ESE,112,2.5,2.5,39,0.00,,,0.00,VWS V14.01,2013-01-13 19:32:00,
2013-01-13 11:33:00,45.9,22.3,30.03,SSE,158,0.0,2.5,39,0.00,,,0.00,VWS V14.01,2013-01-13 19:33:00,
2013-01-13 11:34:00,45.9,22.3,30.03,South,180,4.9,4.9,39,0.00,,,0.00,VWS V14.01,2013-01-13 19:34:00,
2013-01-13 11:35:00,46.0,22.5,30.03,SSE,158,5.6,5.6,39,0.00,,,0.00,VWS V14.01,2013-01-13 19:35:00,
2013-01-13 11:36:00,46.0,22.5,30.03,SE,135,2.7,5.6,39,0.00,,,0.00,VWS V14.01,2013-01-13 19:36:00,
2013-01-13 11:37:00,45.9,22.3,30.03,ESE,112,2.5,2.7,39,0.00,,,0.00,VWS V14.01,2013-01-13 19:37:00,
2013-01-13 11:38:00,45.9,22.3,30.03,ESE,112,6.3,6.3,39,0.00,,,0.00,VWS V14.01,2013-01-13 19:38:00,
2013-01-13 11:39:00,45.9,22.3,30.03,ESE,112,0.0,6.3,39,0.00,,,0.00,VWS V14.01,2013-01-13 19:39:00,
2013-01-13 11:40:00,46.0,22.5,30.03,East,90,6.3,6.3,39,0.00,,,0.00,VWS V14.01,2013-01-13 19:40:00,
2013-01-13 11:41:00,46.0,22.5,30.03,East,90,1.3,6.3,39,0.00,,,0.00,VWS V14.01,2013-01-13 19:41:00,
2013-01-13 11:42:00,46.4,22.8,30.03,ESE,112,2.9,2.9,39,0.00,,,0.00,VWS V14.01,2013-01-13 19:42:00,
2013-01-13 11:43:00,46.4,22.8,30.03,ESE,112,4.7,4.7,39,0.00,,,0.00,VWS V14.01,2013-01-13 19:43:00,
2013-01-13 11:44:00,46.0,22.5,30.03,SE,135,2.7,4.7,39,0.00,,,0.00,VWS V14.01,2013-01-13 19:44:00,
2013-01-13 11:45:00,46.2,22.6,30.03,SSE,158,1.3,2.7,39,0.00,,,0.00,VWS V14.01,2013-01-13 19:45:00,
2013-01-13 11:46:00,46.2,22.6,30.03,South,180,2.9,4.5,39,0.00,,,0.00,VWS V14.01,2013-01-13 19:46:00,
2013-01-13 11:47:00,46.4,22.8,30.03,North,0,1.1,2.9,39,0.00,,,0.00,VWS V14.01,2013-01-13 19:47:00,
2013-01-13 11:48:00,46.4,22.8,30.03,NE,45,3.6,3.6,39,0.00,,,0.00,VWS V14.01,2013-01-13 19:48:00,
2013-01-13 11:49:00,46.4,22.8,30.03,SSW,202,0.0,3.6,39,0.00,,,0.00,VWS V14.01,2013-01-13 19:49:00,
2013-01-13 11:50:00,46.4,22.8,30.03,SSE,158,1.3,1.3,39,0.00,,,0.00,VWS V14.01,2013-01-13 19:50:00,
2013-01-13 11:51:00,46.8,23.1,30.03,NNE,22,3.8,3.8,39,0.00,,,0.00,VWS V14.01,2013-01-13 19:51:00,
2013-01-13 11:52:00,46.6,23.0,30.03,SE,135,5.4,5.4,39,0.00,,,0.00,VWS V14.01,2013-01-13 19:52:00,
2013-01-13 11:53:00,46.6,23.0,30.03,ENE,68,5.6,5.6,39,0.00,,,0.00,VWS V14.01,2013-01-13 19:53:00,
2013-01-13 11:54:00,46.0,22.5,30.03,NE,45,0.0,5.6,39,0.00,,,0.00,VWS V14.01,2013-01-13 19:54:00,
2013-01-13 11:55:00,46.0,22.5,30.03,SSE,158,2.2,2.2,39,0.00,,,0.00,VWS V14.01,2013-01-13 19:55:00,
2013-01-13 11:56:00,46.4,22.8,30.03,South,180,1.6,2.2,39,0.00,,,0.00,VWS V14.01,2013-01-13 19:56:00,
2013-01-13 11:57:00,46.4,22.8,30.03,WNW,292,0.0,1.6,39,0.00,,,0.00,VWS V14.01,2013-01-13 19:57:00,
2013-01-13 11:58:00,47.1,23.5,30.03,SW,225,0.0,0.0,39,0.00,,,0.00,VWS V14.01,2013-01-13 19:58:00,
2013-01-13 11:59:00,47.1,23.5,30.03,SW,225,0.0,0.0,39,0.00,,,0.00,VWS V14.01,2013-01-13 19:59:00,
2013-01-13 12:00:00,47.1,23.5,30.03,North,0,2.9,2.9,39,0.00,,,0.00,VWS V14.01,2013-01-13 20:00:00,
2013-01-13 12:01:00,47.3,23.6,30.03,East,90,6.0,6.0,39,0.00,,,0.00,VWS V14.01,2013-01-13 20:01:00,
2013-01-13 12:02:00,47.3,23.6,30.03,ENE,68,3.8,6.0,39,0.00,,,0.00,VWS V14.01,2013-01-13 20:02:00,
2013-01-13 12:03:00,46.8,22.5,30.03,NE,45,0.0,3.8,38,0.00,,,0.00,VWS V14.01,2013-01-13 20:03:00,
2013-01-13 12:04:00,46.8,22.5,30.03,ENE,68,0.0,0.0,38,0.00,,,0.00,VWS V14.01,2013-01-13 20:04:00,
2013-01-13 12:05:00,46.4,22.2,30.03,ESE,112,0.0,0.0,38,0.00,,,0.00,VWS V14.01,2013-01-13 20:05:00,
2013-01-13 12:06:00,46.4,22.2,30.03,NNE,22,4.0,4.0,38,0.00,,,0.00,VWS V14.01,2013-01-13 20:06:00,
2013-01-13 12:07:00,46.4,22.2,30.03,NNE,22,4.0,4.0,38,0.00,,,0.00,VWS V14.01,2013-01-13 20:07:00,
2013-01-13 12:08:00,46.4,22.2,30.03,NE,45,0.0,4.0,38,0.00,,,0.00,VWS V14.01,2013-01-13 20:08:00,
2013-01-13 12:09:00,46.4,22.2,30.03,NE,45,0.0,0.0,38,0.00,,,0.00,VWS V14.01,2013-01-13 20:09:00,
2013-01-13 12:10:00,46.4,22.2,30.03,SSE,158,0.0,0.0,38,0.00,,,0.00,VWS V14.01,2013-01-13 20:10:00,
2013-01-13 12:11:00,46.4,22.2,30.03,SSE,158,1.1,1.1,38,0.00,,,0.00,VWS V14.01,2013-01-13 20:11:00,
2013-01-13 12:12:00,46.9,23.3,30.03,SSW,202,1.6,1.6,39,0.00,,,0.00,VWS V14.01,2013-01-13 20:12:00,
2013-01-13 12:13:00,46.9,23.3,30.03,SSE,158,1.3,1.6,39,0.00,,,0.00,VWS V14.01,2013-01-13 20:13:00,
2013-01-13 12:14:00,47.3,23.6,30.03,SE,135,1.1,1.3,39,0.00,,,0.00,VWS V14.01,2013-01-13 20:14:00,
2013-01-13 12:15:00,47.8,24.1,30.03,NE,45,0.0,1.1,39,0.00,,,0.00,VWS V14.01,2013-01-13 20:15:00,
2013-01-13 12:16:00,46.9,22.7,30.03,NNE,22,9.6,9.6,38,0.00,,,0.00,VWS V14.01,2013-01-13 20:16:00,
2013-01-13 12:17:00,46.9,22.7,30.03,NNE,22,9.6,9.6,38,0.00,,,0.00,VWS V14.01,2013-01-13 20:17:00,
2013-01-13 12:18:00,46.9,22.7,30.03,NE,45,6.7,9.6,38,0.00,,,0.00,VWS V14.01,2013-01-13 20:18:00,
2013-01-13 12:19:00,46.0,21.9,30.03,ENE,68,6.0,6.7,38,0.00,,,0.00,VWS V14.01,2013-01-13 20:19:00,
2013-01-13 12:20:00,46.0,21.9,30.03,ENE,68,9.8,9.8,38,0.00,,,0.00,VWS V14.01,2013-01-13 20:20:00,
2013-01-13 12:21:00,45.9,21.7,30.03,East,90,7.2,8.7,38,0.00,,,0.00,VWS V14.01,2013-01-13 20:21:00,
2013-01-13 12:22:00,45.9,21.7,30.03,East,90,7.2,8.7,38,0.00,,,0.00,VWS V14.01,2013-01-13 20:22:00,
2013-01-13 12:23:00,45.7,21.5,30.03,ESE,112,8.7,8.7,38,0.00,,,0.00,VWS V14.01,2013-01-13 20:23:00,
2013-01-13 12:24:00,46.0,21.9,30.03,ENE,68,8.7,8.7,38,0.00,,,0.00,VWS V14.01,2013-01-13 20:24:00,
2013-01-13 12:25:00,46.0,21.9,30.03,ENE,68,7.8,8.7,38,0.00,,,0.00,VWS V14.01,2013-01-13 20:25:00,
2013-01-13 12:26:00,45.7,20.9,30.03,ENE,68,8.1,9.2,37,0.00,,,0.00,VWS V14.01,2013-01-13 20:26:00,
2013-01-13 12:27:00,45.7,20.9,30.03,ENE,68,8.1,9.2,37,0.00,,,0.00,VWS V14.01,2013-01-13 20:27:00,
2013-01-13 12:28:00,45.7,20.9,30.03,ENE,68,12.3,12.3,37,0.00,,,0.00,VWS V14.01,2013-01-13 20:28:00,
2013-01-13 12:29:00,45.7,20.9,30.03,ENE,68,10.1,12.3,37,0.00,,,0.00,VWS V14.01,2013-01-13 20:29:00,
2013-01-13 12:30:00,45.9,21.1,30.03,NE,45,6.3,10.1,37,0.00,,,0.00,VWS V14.01,2013-01-13 20:30:00,
2013-01-13 12:31:00,45.7,20.9,30.03,ENE,68,10.7,13.0,37,0.00,,,0.00,VWS V14.01,2013-01-13 20:31:00,
2013-01-13 12:32:00,45.7,20.9,30.03,ENE,68,10.7,13.0,37,0.00,,,0.00,VWS V14.01,2013-01-13 20:32:00,
2013-01-13 12:33:00,45.9,21.1,30.03,NE,45,10.1,10.7,37,0.00,,,0.00,VWS V14.01,2013-01-13 20:33:00,
2013-01-13 12:34:00,45.9,21.1,30.03,ENE,68,5.8,10.1,37,0.00,,,0.00,VWS V14.01,2013-01-13 20:34:00,
2013-01-13 12:35:00,45.9,21.1,30.03,NNE,22,4.7,5.8,37,0.00,,,0.00,VWS V14.01,2013-01-13 20:35:00,
2013-01-13 12:36:00,45.9,21.1,30.03,ENE,68,7.4,8.1,37,0.00,,,0.00,VWS V14.01,2013-01-13 20:36:00,
2013-01-13 12:37:00,45.9,21.1,30.03,ENE,68,7.4,8.1,37,0.00,,,0.00,VWS V14.01,2013-01-13 20:37:00,
2013-01-13 12:38:00,45.7,20.9,30.03,ENE,68,0.0,7.4,37,0.00,,,0.00,VWS V14.01,2013-01-13 20:38:00,
2013-01-13 12:39:00,45.7,20.9,30.03,NE,45,0.0,0.0,37,0.00,,,0.00,VWS V14.01,2013-01-13 20:39:00,
2013-01-13 12:40:00,45.9,21.1,30.03,ENE,68,2.9,2.9,37,0.00,,,0.00,VWS V14.01,2013-01-13 20:40:00,
2013-01-13 12:41:00,46.4,21.6,30.03,ENE,68,0.0,0.9,37,0.00,,,0.00,VWS V14.01,2013-01-13 20:41:00,
2013-01-13 12:42:00,46.4,21.6,30.03,NE,45,4.9,4.9,37,0.00,,,0.00,VWS V14.01,2013-01-13 20:42:00,
2013-01-13 12:43:00,46.4,21.6,30.00,NE,45,4.9,4.9,37,0.00,,,0.00,VWS V14.01,2013-01-13 20:43:00,
2013-01-13 12:44:00,46.4,21.6,30.00,SSE,158,7.8,7.8,37,0.00,,,0.00,VWS V14.01,2013-01-13 20:44:00,
2013-01-13 12:45:00,46.6,21.7,30.00,NNE,22,8.5,8.5,37,0.00,,,0.00,VWS V14.01,2013-01-13 20:45:00,
2013-01-13 12:46:00,46.4,21.6,30.00,NE,45,6.3,8.1,37,0.00,,,0.00,VWS V14.01,2013-01-13 20:46:00,
2013-01-13 12:47:00,46.4,21.6,30.00,NE,45,6.3,8.1,37,0.00,,,0.00,VWS V14.01,2013-01-13 20:47:00,
2013-01-13 12:48:00,46.4,21.6,30.00,NNE,22,6.3,6.3,37,0.00,,,0.00,VWS V14.01,2013-01-13 20:48:00,
2013-01-13 12:49:00,46.4,20.9,30.00,NNE,22,0.0,6.3,36,0.00,,,0.00,VWS V14.01,2013-01-13 20:49:00,
2013-01-13 12:50:00,46.4,20.9,30.00,NE,45,4.3,4.3,36,0.00,,,0.00,VWS V14.01,2013-01-13 20:50:00,
2013-01-13 12:51:00,46.4,20.9,30.00,NNE,22,0.0,2.0,36,0.00,,,0.00,VWS V14.01,2013-01-13 20:51:00,
2013-01-13 12:52:00,46.4,20.9,30.00,NNE,22,0.0,2.0,36,0.00,,,0.00,VWS V14.01,2013-01-13 20:52:00,
2013-01-13 12:53:00,46.6,21.7,30.00,ENE,68,4.0,4.0,37,0.00,,,0.00,VWS V14.01,2013-01-13 20:53:00,
2013-01-13 12:54:00,46.9,22.0,30.00,ENE,68,5.6,5.6,37,0.00,,,0.00,VWS V14.01,2013-01-13 20:54:00,
2013-01-13 12:55:00,46.9,22.0,30.00,NNE,22,3.6,5.6,37,0.00,,,0.00,VWS V14.01,2013-01-13 20:55:00,
2013-01-13 12:56:00,46.9,22.0,30.00,NE,45,0.0,0.0,37,0.00,,,0.00,VWS V14.01,2013-01-13 20:56:00,
2013-01-13 12:57:00,46.9,22.0,30.00,ENE,68,6.0,6.0,37,0.00,,,0.00,VWS V14.01,2013-01-13 20:57:00,
2013-01-13 12:58:00,46.9,22.0,30.00,East,90,0.0,6.0,37,0.00,,,0.00,VWS V14.01,2013-01-13 20:58:00,
2013-01-13 12:59:00,46.9,22.0,30.00,ENE,68,0.0,0.0,37,0.00,,,0.00,VWS V14.01,2013-01-13 20:59:00,
2013-01-13 13:00:00,46.9,22.0,30.00,ENE,68,5.4,5.4,37,0.00,,,0.00,VWS V14.01,2013-01-13 21:00:00,
2013-01-13 13:01:00,46.9,22.0,30.00,SSE,158,5.6,6.3,37,0.00,,,0.00,VWS V14.01,2013-01-13 21:01:00,
2013-01-13 13:02:00,46.9,22.0,30.00,SSE,158,5.6,6.3,37,0.00,,,0.00,VWS V14.01,2013-01-13 21:02:00,
2013-01-13 13:03:00,47.3,21.7,30.00,East,90,1.6,5.6,36,0.00,,,0.00,VWS V14.01,2013-01-13 21:03:00,
2013-01-13 13:04:00,47.3,21.7,30.00,SSW,202,0.0,1.6,36,0.00,,,0.00,VWS V14.01,2013-01-13 21:04:00,
2013-01-13 13:05:00,47.7,22.7,30.00,NNE,22,0.0,0.0,37,0.00,,,0.00,VWS V14.01,2013-01-13 21:05:00,
2013-01-13 13:06:00,47.8,22.9,30.00,ENE,68,5.6,5.6,37,0.00,,,0.00,VWS V14.01,2013-01-13 21:06:00,
2013-01-13 13:07:00,47.8,22.8,30.00,ENE,68,5.6,5.6,37,0.00,,,0.00,VWS V14.01,2013-01-13 21:07:00,
2013-01-13 13:08:00,47.5,22.5,30.00,East,90,0.0,5.6,37,0.00,,,0.00,VWS V14.01,2013-01-13 21:08:00,
2013-01-13 13:09:00,47.5,22.5,30.00,East,90,5.8,5.8,37,0.00,,,0.00,VWS V14.01,2013-01-13 21:09:00,
2013-01-13 13:10:00,47.3,22.4,30.00,ENE,68,5.4,6.9,37,0.00,,,0.00,VWS V14.01,2013-01-13 21:10:00,
2013-01-13 13:11:00,47.3,22.4,30.00,SSW,202,0.0,3.4,37,0.00,,,0.00,VWS V14.01,2013-01-13 21:11:00,
2013-01-13 13:12:00,47.3,22.4,30.00,SSW,202,0.0,3.4,37,0.00,,,0.00,VWS V14.01,2013-01-13 21:12:00,
2013-01-13 13:13:00,47.3,22.4,30.00,NNW,338,0.0,0.0,37,0.00,,,0.00,VWS V14.01,2013-01-13 21:13:00,
2013-01-13 13:14:00,48.0,23.0,30.00,NW,315,2.9,2.9,37,0.00,,,0.00,VWS V14.01,2013-01-13 21:14:00,
2013-01-13 13:15:00,48.0,23.0,30.00,SSW,202,0.0,2.9,37,0.00,,,0.00,VWS V14.01,2013-01-13 21:15:00,
2013-01-13 13:16:00,49.1,24.0,30.00,NNW,338,0.0,0.0,37,0.00,,,0.00,VWS V14.01,2013-01-13 21:16:00,
2013-01-13 13:17:00,49.1,24.0,30.00,NNW,338,0.0,0.0,37,0.00,,,0.00,VWS V14.01,2013-01-13 21:17:00,
2013-01-13 13:18:00,49.1,24.0,30.00,NNW,338,0.0,0.0,37,0.00,,,0.00,VWS V14.01,2013-01-13 21:18:00,
2013-01-13 13:19:00,49.6,24.5,30.00,NW,315,0.0,0.0,37,0.00,,,0.00,VWS V14.01,2013-01-13 21:19:00,
2013-01-13 13:20:00,49.6,24.5,30.00,SSE,158,1.1,1.1,37,0.00,,,0.00,VWS V14.01,2013-01-13 21:20:00,
2013-01-13 13:21:00,49.5,24.3,30.00,ENE,68,3.6,7.2,37,0.00,,,0.00,VWS V14.01,2013-01-13 21:21:00,
2013-01-13 13:22:00,49.5,24.3,30.00,ENE,68,3.6,7.2,37,0.00,,,0.00,VWS V14.01,2013-01-13 21:22:00,
2013-01-13 13:23:00,48.9,23.8,30.00,ESE,112,5.6,5.6,37,0.00,,,0.00,VWS V14.01,2013-01-13 21:23:00,
2013-01-13 13:24:00,49.1,24.0,30.00,ENE,68,3.8,5.6,37,0.00,,,0.00,VWS V14.01,2013-01-13 21:24:00,
2013-01-13 13:25:00,49.1,24.0,30.00,East,90,1.6,3.8,37,0.00,,,0.00,VWS V14.01,2013-01-13 21:25:00,
2013-01-13 13:26:00,49.1,24.0,30.00,ENE,68,6.0,6.0,37,0.00,,,0.00,VWS V14.01,2013-01-13 21:26:00,
2013-01-13 13:27:00,49.1,24.0,30.00,ENE,68,6.0,6.0,37,0.00,,,0.00,VWS V14.01,2013-01-13 21:27:00,
2013-01-13 13:28:00,48.7,23.6,30.00,ENE,68,5.6,6.0,37,0.00,,,0.00,VWS V14.01,2013-01-13 21:28:00,
2013-01-13 13:29:00,48.7,23.6,30.00,ENE,68,4.3,5.6,37,0.00,,,0.00,VWS V14.01,2013-01-13 21:29:00,
2013-01-13 13:30:00,48.6,23.5,30.00,ENE,68,4.3,4.3,37,0.00,,,0.00,VWS V14.01,2013-01-13 21:30:00,
2013-01-13 13:31:00,49.3,24.1,30.00,NW,315,0.0,4.3,37,0.00,,,0.00,VWS V14.01,2013-01-13 21:31:00,
2013-01-13 13:32:00,49.3,24.1,30.00,NW,315,0.0,4.3,37,0.00,,,0.00,VWS V14.01,2013-01-13 21:32:00,
2013-01-13 13:33:00,49.1,24.0,30.00,NE,45,0.0,0.0,37,0.00,,,0.00,VWS V14.01,2013-01-13 21:33:00,
2013-01-13 13:34:00,49.1,24.0,30.00,NE,45,0.0,0.0,37,0.00,,,0.00,VWS V14.01,2013-01-13 21:34:00,
2013-01-13 13:35:00,48.6,23.5,30.00,East,90,5.4,5.4,37,0.00,,,0.00,VWS V14.01,2013-01-13 21:35:00,
2013-01-13 13:36:00,48.4,23.3,30.00,NNW,338,0.9,0.9,37,0.00,,,0.00,VWS V14.01,2013-01-13 21:36:00,
2013-01-13 13:37:00,48.4,23.3,30.00,NNW,338,0.9,0.9,37,0.00,,,0.00,VWS V14.01,2013-01-13 21:37:00,
2013-01-13 13:38:00,48.4,23.3,30.00,ENE,68,6.9,6.9,37,0.00,,,0.00,VWS V14.01,2013-01-13 21:38:00,
2013-01-13 13:39:00,48.4,23.3,30.00,ENE,68,8.5,9.8,37,0.00,,,0.00,VWS V14.01,2013-01-13 21:39:00,
2013-01-13 13:40:00,47.8,22.8,30.00,East,90,2.5,8.5,37,0.00,,,0.00,VWS V14.01,2013-01-13 21:40:00,
2013-01-13 13:41:00,48.4,23.3,30.00,ESE,112,0.0,0.0,37,0.00,,,0.00,VWS V14.01,2013-01-13 21:41:00,
2013-01-13 13:42:00,48.4,23.3,30.00,ESE,112,0.0,0.0,37,0.00,,,0.00,VWS V14.01,2013-01-13 21:42:00,
2013-01-13 13:43:00,48.4,23.3,30.00,SE,135,0.0,0.0,37,0.00,,,0.00,VWS V14.01,2013-01-13 21:43:00,
2013-01-13 13:44:00,48.7,23.6,30.00,East,90,3.8,3.8,37,0.00,,,0.00,VWS V14.01,2013-01-13 21:44:00,
2013-01-13 13:45:00,48.7,23.6,30.00,NNE,22,4.0,4.0,37,0.00,,,0.00,VWS V14.01,2013-01-13 21:45:00,
2013-01-13 13:46:00,48.4,23.3,30.00,ENE,68,7.6,7.6,37,0.00,,,0.00,VWS V14.01,2013-01-13 21:46:00,
2013-01-13 13:47:00,48.4,23.3,30.00,ENE,68,7.6,7.6,37,0.00,,,0.00,VWS V14.01,2013-01-13 21:47:00,
2013-01-13 13:48:00,48.4,23.3,30.00,ESE,112,0.0,7.6,37,0.00,,,0.00,VWS V14.01,2013-01-13 21:48:00,
2013-01-13 13:49:00,48.9,23.8,30.00,South,180,2.9,2.9,37,0.00,,,0.00,VWS V14.01,2013-01-13 21:49:00,
2013-01-13 13:50:00,48.9,23.8,30.00,ENE,68,1.3,2.9,37,0.00,,,0.00,VWS V14.01,2013-01-13 21:50:00,
2013-01-13 13:51:00,49.1,24.0,30.00,ESE,112,3.8,5.8,37,0.00,,,0.00,VWS V14.01,2013-01-13 21:51:00,
2013-01-13 13:52:00,49.1,24.0,30.00,SE,135,1.6,5.8,37,0.00,,,0.00,VWS V14.01,2013-01-13 21:52:00,
2013-01-13 13:53:00,49.3,24.1,30.00,South,180,2.7,2.7,37,0.00,,,0.00,VWS V14.01,2013-01-13 21:53:00,
2013-01-13 13:54:00,49.8,24.6,30.00,SSE,158,1.1,2.7,37,0.00,,,0.00,VWS V14.01,2013-01-13 21:54:00,
2013-01-13 13:55:00,49.8,24.6,30.00,ESE,112,1.6,1.6,37,0.00,,,0.00,VWS V14.01,2013-01-13 21:55:00,
2013-01-13 13:56:00,49.8,24.6,30.00,East,90,4.7,7.4,37,0.00,,,0.00,VWS V14.01,2013-01-13 21:56:00,
2013-01-13 13:57:00,49.8,24.6,30.00,East,90,4.7,7.4,37,0.00,,,0.00,VWS V14.01,2013-01-13 21:57:00,
2013-01-13 13:58:00,49.8,24.6,30.00,ENE,68,2.9,4.7,37,0.00,,,0.00,VWS V14.01,2013-01-13 21:58:00,
2013-01-13 13:59:00,49.8,24.6,30.00,East,90,2.5,2.9,37,0.00,,,0.00,VWS V14.01,2013-01-13 21:59:00,
2013-01-13 14:00:00,48.9,23.8,30.00,East,90,4.9,4.9,37,0.00,,,0.00,VWS V14.01,2013-01-13 22:00:00,
2013-01-13 14:01:00,49.3,24.1,30.00,SE,135,1.3,4.9,37,0.00,,,0.00,VWS V14.01,2013-01-13 22:01:00,
2013-01-13 14:02:00,49.3,24.1,30.00,NE,45,7.2,7.2,37,0.00,,,0.00,VWS V14.01,2013-01-13 22:02:00,
2013-01-13 14:03:00,49.3,24.1,30.00,NE,45,7.2,7.2,37,0.00,,,0.00,VWS V14.01,2013-01-13 22:03:00,
2013-01-13 14:04:00,49.3,24.1,30.00,ESE,112,0.0,7.2,37,0.00,,,0.00,VWS V14.01,2013-01-13 22:04:00,
2013-01-13 14:05:00,49.6,24.5,30.00,ESE,112,1.3,1.3,37,0.00,,,0.00,VWS V14.01,2013-01-13 22:05:00,
2013-01-13 14:06:00,49.6,24.5,30.00,SE,135,2.7,2.7,37,0.00,,,0.00,VWS V14.01,2013-01-13 22:06:00,
2013-01-13 14:07:00,49.6,24.5,30.00,SE,135,2.7,2.7,37,0.00,,,0.00,VWS V14.01,2013-01-13 22:07:00,
2013-01-13 14:08:00,49.6,24.5,30.00,SSE,158,2.0,2.7,37,0.00,,,0.00,VWS V14.01,2013-01-13 22:08:00,
2013-01-13 14:09:00,49.8,24.6,30.00,SSW,202,0.0,2.0,37,0.00,,,0.00,VWS V14.01,2013-01-13 22:09:00,
2013-01-13 14:10:00,50.2,24.9,30.00,SSW,202,0.0,0.0,37,0.00,,,0.00,VWS V14.01,2013-01-13 22:10:00,
2013-01-13 14:11:00,50.4,25.1,30.00,ESE,112,0.0,0.0,37,0.00,,,0.00,VWS V14.01,2013-01-13 22:11:00,
2013-01-13 14:12:00,50.4,25.1,30.00,SE,135,2.0,2.0,37,0.00,,,0.00,VWS V14.01,2013-01-13 22:12:00,
2013-01-13 14:13:00,50.4,25.1,29.97,SE,135,0.0,2.0,37,0.00,,,0.00,VWS V14.01,2013-01-13 22:13:00,
2013-01-13 14:14:00,50.5,25.2,29.97,SSE,158,1.3,1.3,37,0.00,,,0.00,VWS V14.01,2013-01-13 22:14:00,
2013-01-13 14:15:00,50.5,25.2,29.97,NE,45,6.0,6.0,37,0.00,,,0.00,VWS V14.01,2013-01-13 22:15:00,
2013-01-13 14:16:00,50.4,25.1,29.97,East,90,4.9,5.8,37,0.00,,,0.00,VWS V14.01,2013-01-13 22:16:00,
2013-01-13 14:17:00,50.0,24.8,29.97,East,90,4.9,5.8,37,0.00,,,0.00,VWS V14.01,2013-01-13 22:17:00,
2013-01-13 14:18:00,50.0,24.8,29.97,NE,45,0.0,4.9,37,0.00,,,0.00,VWS V14.01,2013-01-13 22:18:00,
2013-01-13 14:19:00,49.6,24.5,29.97,NNE,22,0.0,0.0,37,0.00,,,0.00,VWS V14.01,2013-01-13 22:19:00,
2013-01-13 14:20:00,49.6,24.5,29.97,NNE,22,0.0,0.0,37,0.00,,,0.00,VWS V14.01,2013-01-13 22:20:00,
2013-01-13 14:21:00,49.5,24.3,29.97,NNE,22,0.0,0.0,37,0.00,,,0.00,VWS V14.01,2013-01-13 22:21:00,
2013-01-13 14:22:00,49.5,24.3,29.97,NNE,22,0.0,0.0,37,0.00,,,0.00,VWS V14.01,2013-01-13 22:22:00,
2013-01-13 14:23:00,49.6,24.5,29.97,North,0,0.0,0.0,37,0.00,,,0.00,VWS V14.01,2013-01-13 22:23:00,
2013-01-13 14:24:00,49.6,24.5,29.97,North,0,0.0,0.0,37,0.00,,,0.00,VWS V14.01,2013-01-13 22:24:00,
2013-01-13 14:25:00,49.6,24.5,29.97,NNW,338,0.9,0.9,37,0.00,,,0.00,VWS V14.01,2013-01-13 22:25:00,
2013-01-13 14:26:00,49.8,24.6,29.97,NNE,22,0.0,0.0,37,0.00,,,0.00,VWS V14.01,2013-01-13 22:26:00,
2013-01-13 14:27:00,49.8,24.6,29.97,NNW,338,0.0,0.0,37,0.00,,,0.00,VWS V14.01,2013-01-13 22:27:00,
2013-01-13 14:28:00,49.8,24.6,29.97,North,0,2.9,2.9,37,0.00,,,0.00,VWS V14.01,2013-01-13 22:28:00,
2013-01-13 14:29:00,49.8,24.6,29.97,North,0,7.2,7.2,37,0.00,,,0.00,VWS V14.01,2013-01-13 22:29:00,
2013-01-13 14:30:00,49.6,24.5,29.97,North,0,6.0,7.2,37,0.00,,,0.00,VWS V14.01,2013-01-13 22:30:00,
2013-01-13 14:31:00,49.3,24.1,29.97,NW,315,0.0,1.3,37,0.00,,,0.00,VWS V14.01,2013-01-13 22:31:00,
2013-01-13 14:32:00,49.3,24.1,29.97,NW,315,0.0,1.3,37,0.00,,,0.00,VWS V14.01,2013-01-13 22:32:00,
2013-01-13 14:33:00,49.5,24.9,29.97,NNW,338,0.0,0.0,38,0.00,,,0.00,VWS V14.01,2013-01-13 22:33:00,
2013-01-13 14:34:00,49.5,24.9,29.97,NW,315,0.0,0.0,38,0.00,,,0.00,VWS V14.01,2013-01-13 22:34:00,
2013-01-13 14:35:00,49.5,24.9,29.97,North,0,0.0,0.0,38,0.00,,,0.00,VWS V14.01,2013-01-13 22:35:00,
2013-01-13 14:36:00,49.5,24.9,29.97,North,0,0.0,0.0,38,0.00,,,0.00,VWS V14.01,2013-01-13 22:36:00,
2013-01-13 14:37:00,49.5,24.9,29.97,North,0,0.0,0.0,38,0.00,,,0.00,VWS V14.01,2013-01-13 22:37:00,
2013-01-13 14:38:00,49.5,24.9,29.97,NNE,22,1.3,1.3,38,0.00,,,0.00,VWS V14.01,2013-01-13 22:38:00,
2013-01-13 14:39:00,49.5,24.9,29.97,NE,45,0.0,1.3,38,0.00,,,0.00,VWS V14.01,2013-01-13 22:39:00,
2013-01-13 14:40:00,49.5,24.9,29.97,NNE,22,0.0,0.0,38,0.00,,,0.00,VWS V14.01,2013-01-13 22:40:00,
2013-01-13 14:41:00,49.6,25.1,29.97,NNW,338,1.1,1.1,38,0.00,,,0.00,VWS V14.01,2013-01-13 22:41:00,
2013-01-13 14:42:00,49.6,25.1,29.97,NNW,338,1.1,1.1,38,0.00,,,0.00,VWS V14.01,2013-01-13 22:42:00,
2013-01-13 14:43:00,49.6,25.1,29.97,NNW,338,3.6,3.6,38,0.00,,,0.00,VWS V14.01,2013-01-13 22:43:00,
2013-01-13 14:44:00,49.5,24.9,29.97,NNW,338,5.4,5.4,38,0.00,,,0.00,VWS V14.01,2013-01-13 22:44:00,
2013-01-13 14:45:00,49.5,24.9,29.97,NNW,338,6.7,6.7,38,0.00,,,0.00,VWS V14.01,2013-01-13 22:45:00,
2013-01-13 14:46:00,48.9,24.5,29.97,NNW,338,3.4,3.4,38,0.00,,,0.00,VWS V14.01,2013-01-13 22:46:00,
2013-01-13 14:47:00,48.9,24.4,29.97,NNW,338,3.4,3.4,38,0.00,,,0.00,VWS V14.01,2013-01-13 22:47:00,
2013-01-13 14:48:00,48.9,24.4,29.97,NNW,338,0.0,3.4,38,0.00,,,0.00,VWS V14.01,2013-01-13 22:48:00,
2013-01-13 14:49:00,49.1,24.6,29.97,NNW,338,0.0,0.0,38,0.00,,,0.00,VWS V14.01,2013-01-13 22:49:00,
2013-01-13 14:50:00,49.1,24.6,29.97,NNE,22,0.0,0.0,38,0.00,,,0.00,VWS V14.01,2013-01-13 22:50:00,
2013-01-13 14:51:00,49.3,24.8,29.97,NW,315,0.0,0.0,38,0.00,,,0.00,VWS V14.01,2013-01-13 22:51:00,
2013-01-13 14:52:00,49.3,24.8,29.97,WSW,248,0.0,0.0,38,0.00,,,0.00,VWS V14.01,2013-01-13 22:52:00,
2013-01-13 14:53:00,49.6,25.1,29.97,NW,315,0.0,0.0,38,0.00,,,0.00,VWS V14.01,2013-01-13 22:53:00,
2013-01-13 14:54:00,49.8,25.2,29.97,NW,315,0.0,0.0,38,0.00,,,0.00,VWS V14.01,2013-01-13 22:54:00,
2013-01-13 14:55:00,49.8,25.2,29.97,NNW,338,2.5,2.5,38,0.00,,,0.00,VWS V14.01,2013-01-13 22:55:00,
2013-01-13 14:56:00,49.8,25.2,29.97,NNE,22,0.0,2.5,38,0.00,,,0.00,VWS V14.01,2013-01-13 22:56:00,
2013-01-13 14:57:00,49.8,25.2,29.97,NNE,22,0.0,2.5,38,0.00,,,0.00,VWS V14.01,2013-01-13 22:57:00,
2013-01-13 14:58:00,50.0,25.4,29.97,NW,315,3.6,3.6,38,0.00,,,0.00,VWS V14.01,2013-01-13 22:58:00,
2013-01-13 14:59:00,50.0,25.4,29.97,NNW,338,5.4,5.4,38,0.00,,,0.00,VWS V14.01,2013-01-13 22:59:00,
2013-01-13 15:00:00,49.8,25.2,29.97,NNW,338,0.0,5.4,38,0.00,,,0.00,VWS V14.01,2013-01-13 23:00:00,
2013-01-13 15:01:00,49.5,24.9,29.97,NW,315,2.7,2.7,38,0.00,,,0.00,VWS V14.01,2013-01-13 23:01:00,
2013-01-13 15:02:00,49.5,24.9,29.97,NNW,338,2.5,2.7,38,0.00,,,0.00,VWS V14.01,2013-01-13 23:02:00,
2013-01-13 15:03:00,49.5,24.9,29.97,NW,315,0.0,2.5,38,0.00,,,0.00,VWS V14.01,2013-01-13 23:03:00,
2013-01-13 15:04:00,49.5,24.9,29.97,NNW,338,2.5,2.5,38,0.00,,,0.00,VWS V14.01,2013-01-13 23:04:00,
2013-01-13 15:05:00,49.5,24.9,29.97,NNW,338,0.0,2.5,38,0.00,,,0.00,VWS V14.01,2013-01-13 23:05:00,
2013-01-13 15:06:00,49.6,25.1,29.97,NNE,22,1.1,1.1,38,0.00,,,0.00,VWS V14.01,2013-01-13 23:06:00,
2013-01-13 15:07:00,49.6,25.1,29.97,East,90,2.2,2.2,38,0.00,,,0.00,VWS V14.01,2013-01-13 23:07:00,
2013-01-13 15:08:00,49.6,25.1,29.97,ENE,68,2.0,2.2,38,0.00,,,0.00,VWS V14.01,2013-01-13 23:08:00,
2013-01-13 15:09:00,49.5,24.9,29.97,ENE,68,3.4,3.4,38,0.00,,,0.00,VWS V14.01,2013-01-13 23:09:00,
2013-01-13 15:10:00,49.5,24.9,29.97,NE,45,5.4,5.4,38,0.00,,,0.00,VWS V14.01,2013-01-13 23:10:00,
2013-01-13 15:11:00,49.1,24.6,29.97,North,0,0.0,6.3,38,0.00,,,0.00,VWS V14.01,2013-01-13 23:11:00,
2013-01-13 15:12:00,49.1,24.6,29.97,North,0,0.0,6.3,38,0.00,,,0.00,VWS V14.01,2013-01-13 23:12:00,
2013-01-13 15:13:00,49.1,24.6,29.97,North,0,0.0,0.0,38,0.00,,,0.00,VWS V14.01,2013-01-13 23:13:00,
2013-01-13 15:14:00,49.3,24.8,29.97,NNE,22,0.0,0.0,38,0.00,,,0.00,VWS V14.01,2013-01-13 23:14:00,
2013-01-13 15:15:00,49.3,24.8,29.97,NNE,22,0.0,0.0,38,0.00,,,0.00,VWS V14.01,2013-01-13 23:15:00,
2013-01-13 15:16:00,49.5,24.9,29.97,NNW,338,3.1,3.1,38,0.00,,,0.00,VWS V14.01,2013-01-13 23:16:00,
2013-01-13 15:17:00,49.6,25.7,29.97,NNW,338,3.1,3.1,39,0.00,,,0.00,VWS V14.01,2013-01-13 23:17:00,
2013-01-13 15:18:00,49.6,25.7,29.97,NNW,338,8.5,8.5,39,0.00,,,0.00,VWS V14.01,2013-01-13 23:18:00,
2013-01-13 15:19:00,49.5,25.5,29.97,NNW,338,3.6,8.5,39,0.00,,,0.00,VWS V14.01,2013-01-13 23:19:00,
2013-01-13 15:20:00,49.5,25.5,29.97,NNW,338,0.0,3.6,39,0.00,,,0.00,VWS V14.01,2013-01-13 23:20:00,
2013-01-13 15:21:00,49.5,25.5,29.97,NNW,338,2.0,2.0,39,0.00,,,0.00,VWS V14.01,2013-01-13 23:21:00,
2013-01-13 15:22:00,49.5,25.5,29.97,NNW,338,2.0,2.0,39,0.00,,,0.00,VWS V14.01,2013-01-13 23:22:00,
2013-01-13 15:23:00,49.6,25.1,29.97,NNW,338,8.1,8.1,38,0.00,,,0.00,VWS V14.01,2013-01-13 23:23:00,
2013-01-13 15:24:00,49.3,24.8,29.97,NNW,338,5.4,8.1,38,0.00,,,0.00,VWS V14.01,2013-01-13 23:24:00,
2013-01-13 15:25:00,49.3,24.8,29.97,North,0,4.9,5.4,38,0.00,,,0.00,VWS V14.01,2013-01-13 23:25:00,
2013-01-13 15:26:00,49.3,24.8,29.97,NNE,22,2.0,2.0,38,0.00,,,0.00,VWS V14.01,2013-01-13 23:26:00,
2013-01-13 15:27:00,49.3,24.8,29.97,NNE,22,2.0,2.0,38,0.00,,,0.00,VWS V14.01,2013-01-13 23:27:00,
2013-01-13 15:28:00,49.1,24.6,29.97,NNW,338,3.1,3.1,38,0.00,,,0.00,VWS V14.01,2013-01-13 23:28:00,
2013-01-13 15:29:00,49.1,24.6,29.97,North,0,7.4,7.4,38,0.00,,,0.00,VWS V14.01,2013-01-13 23:29:00,
2013-01-13 15:30:00,49.1,24.6,29.97,NNE,22,5.6,7.4,38,0.00,,,0.00,VWS V14.01,2013-01-13 23:30:00,
2013-01-13 15:31:00,49.1,24.6,29.97,NNE,22,5.6,5.6,38,0.00,,,0.00,VWS V14.01,2013-01-13 23:31:00,
2013-01-13 15:32:00,49.1,24.6,29.97,NNE,22,5.6,5.6,38,0.00,,,0.00,VWS V14.01,2013-01-13 23:32:00,
2013-01-13 15:33:00,49.1,24.6,29.97,North,0,0.0,5.6,38,0.00,,,0.00,VWS V14.01,2013-01-13 23:33:00,
2013-01-13 15:34:00,49.1,24.6,29.97,NNW,338,0.0,0.0,38,0.00,,,0.00,VWS V14.01,2013-01-13 23:34:00,
2013-01-13 15:35:00,49.1,24.0,29.97,NNW,338,3.4,3.4,37,0.00,,,0.00,VWS V14.01,2013-01-13 23:35:00,
2013-01-13 15:36:00,49.1,24.0,29.97,NNW,338,5.6,5.6,37,0.00,,,0.00,VWS V14.01,2013-01-13 23:36:00,
2013-01-13 15:37:00,49.1,24.0,29.97,NNW,338,6.0,6.0,37,0.00,,,0.00,VWS V14.01,2013-01-13 23:37:00,
2013-01-13 15:38:00,49.1,24.0,29.97,NNW,338,4.3,6.0,37,0.00,,,0.00,VWS V14.01,2013-01-13 23:38:00,
2013-01-13 15:39:00,49.3,24.8,29.97,NNW,338,0.0,4.3,38,0.00,,,0.00,VWS V14.01,2013-01-13 23:39:00,
2013-01-13 15:40:00,49.3,24.1,29.97,NNW,338,8.5,8.5,37,0.00,,,0.00,VWS V14.01,2013-01-13 23:40:00,
2013-01-13 15:41:00,49.3,24.1,29.97,NNW,338,7.8,8.1,37,0.00,,,0.00,VWS V14.01,2013-01-13 23:41:00,
2013-01-13 15:42:00,49.3,24.1,29.97,NNW,338,7.8,8.1,37,0.00,,,0.00,VWS V14.01,2013-01-13 23:42:00,
2013-01-13 15:43:00,49.3,24.1,29.97,NNW,338,8.1,8.1,37,0.00,,,0.00,VWS V14.01,2013-01-13 23:43:00,
2013-01-13 15:44:00,49.3,24.8,29.97,NW,315,0.0,8.1,38,0.00,,,0.00,VWS V14.01,2013-01-13 23:44:00,
2013-01-13 15:45:00,49.3,24.8,29.97,NNW,338,9.6,9.6,38,0.00,,,0.00,VWS V14.01,2013-01-13 23:45:00,
2013-01-13 15:46:00,49.1,24.0,29.97,North,0,0.0,0.0,37,0.00,,,0.00,VWS V14.01,2013-01-13 23:46:00,
2013-01-13 15:47:00,49.1,24.0,29.97,North,0,0.0,0.0,37,0.00,,,0.00,VWS V14.01,2013-01-13 23:47:00,
2013-01-13 15:48:00,49.1,24.0,29.97,NNW,338,0.0,0.0,37,0.00,,,0.00,VWS V14.01,2013-01-13 23:48:00,
2013-01-13 15:49:00,49.3,24.1,29.97,NNW,338,0.0,0.0,37,0.00,,,0.00,VWS V14.01,2013-01-13 23:49:00,
2013-01-13 15:50:00,49.3,24.1,29.97,NNW,338,0.0,0.0,37,0.00,,,0.00,VWS V14.01,2013-01-13 23:50:00,
2013-01-13 15:51:00,49.3,24.1,29.97,NNW,338,0.0,0.0,37,0.00,,,0.00,VWS V14.01,2013-01-13 23:51:00,
2013-01-13 15:52:00,49.3,24.1,29.97,NNW,338,0.0,0.0,37,0.00,,,0.00,VWS V14.01,2013-01-13 23:52:00,
2013-01-13 15:53:00,49.3,24.1,29.97,NNW,338,0.0,0.0,37,0.00,,,0.00,VWS V14.01,2013-01-13 23:53:00,
2013-01-13 15:54:00,49.3,24.1,29.97,NNW,338,0.0,0.0,37,0.00,,,0.00,VWS V14.01,2013-01-13 23:54:00,
2013-01-13 15:55:00,49.3,24.1,29.97,NNW,338,0.0,0.0,37,0.00,,,0.00,VWS V14.01,2013-01-13 23:55:00,
2013-01-13 15:56:00,49.3,24.1,29.97,North,0,10.1,10.1,37,0.00,,,0.00,VWS V14.01,2013-01-13 23:56:00,
2013-01-13 15:57:00,49.3,24.1,29.97,North,0,10.1,10.1,37,0.00,,,0.00,VWS V14.01,2013-01-13 23:57:00,
2013-01-13 15:58:00,49.3,24.1,29.97,NNW,338,3.4,10.1,37,0.00,,,0.00,VWS V14.01,2013-01-13 23:58:00,
2013-01-13 15:59:00,49.3,24.1,29.97,NNE,22,0.0,3.4,37,0.00,,,0.00,VWS V14.01,2013-01-13 23:59:00,
2013-01-13 16:00:00,49.3,24.1,29.97,NNW,338,0.0,0.0,37,0.00,,,0.00,VWS V14.01,2013-01-14 00:00:00,
2013-01-13 16:01:00,49.3,24.1,29.97,NNW,338,4.0,6.3,37,0.00,,,0.00,VWS V14.01,2013-01-14 00:01:00,
2013-01-13 16:02:00,49.3,24.1,29.97,NNW,338,4.0,6.3,37,0.00,,,0.00,VWS V14.01,2013-01-14 00:02:00,
2013-01-13 16:03:00,49.1,24.0,29.97,NNE,22,7.6,7.6,37,0.00,,,0.00,VWS V14.01,2013-01-14 00:03:00,
2013-01-13 16:04:00,49.1,24.0,29.97,NNW,338,6.0,7.6,37,0.00,,,0.00,VWS V14.01,2013-01-14 00:04:00,
2013-01-13 16:05:00,49.1,24.0,29.97,NNW,338,10.7,10.7,37,0.00,,,0.00,VWS V14.01,2013-01-14 00:05:00,
2013-01-13 16:06:00,49.1,24.0,29.97,North,0,9.6,9.6,37,0.00,,,0.00,VWS V14.01,2013-01-14 00:06:00,
2013-01-13 16:07:00,49.1,24.0,29.97,North,0,0.0,9.6,37,0.00,,,0.00,VWS V14.01,2013-01-14 00:07:00,
2013-01-13 16:08:00,49.1,24.0,29.97,NNW,338,0.0,0.0,37,0.00,,,0.00,VWS V14.01,2013-01-14 00:08:00,
2013-01-13 16:09:00,49.1,24.0,29.97,NNW,338,4.5,4.5,37,0.00,,,0.00,VWS V14.01,2013-01-14 00:09:00,
2013-01-13 16:10:00,49.3,24.1,29.97,North,0,2.5,4.5,37,0.00,,,0.00,VWS V14.01,2013-01-14 00:10:00,
2013-01-13 16:11:00,49.3,24.1,29.97,North,0,6.5,7.4,37,0.00,,,0.00,VWS V14.01,2013-01-14 00:11:00,
2013-01-13 16:12:00,49.3,24.1,29.97,North,0,6.5,7.4,37,0.00,,,0.00,VWS V14.01,2013-01-14 00:12:00,
2013-01-13 16:13:00,49.3,24.1,30.00,NW,315,0.0,6.5,37,0.00,,,0.00,VWS V14.01,2013-01-14 00:13:00,
2013-01-13 16:14:00,49.1,23.3,30.00,NNW,338,8.5,8.5,36,0.00,,,0.00,VWS V14.01,2013-01-14 00:14:00,
2013-01-13 16:15:00,49.1,23.3,30.00,NNW,338,5.4,8.5,36,0.00,,,0.00,VWS V14.01,2013-01-14 00:15:00,
2013-01-13 16:16:00,49.3,24.1,30.00,NNW,338,10.3,10.3,37,0.00,,,0.00,VWS V14.01,2013-01-14 00:16:00,
2013-01-13 16:17:00,49.1,23.3,30.00,NNW,338,10.3,10.3,36,0.00,,,0.00,VWS V14.01,2013-01-14 00:17:00,
2013-01-13 16:18:00,49.1,23.3,30.00,NNW,338,8.7,10.3,36,0.00,,,0.00,VWS V14.01,2013-01-14 00:18:00,
2013-01-13 16:19:00,49.1,23.3,30.00,NNW,338,7.4,10.1,36,0.00,,,0.00,VWS V14.01,2013-01-14 00:19:00,
2013-01-13 16:20:00,49.1,23.3,30.00,North,0,0.0,7.4,36,0.00,,,0.00,VWS V14.01,2013-01-14 00:20:00,
2013-01-13 16:21:00,49.1,24.0,30.00,NNW,338,8.5,8.5,37,0.00,,,0.00,VWS V14.01,2013-01-14 00:21:00,
2013-01-13 16:22:00,49.1,24.0,30.00,NNW,338,0.0,8.5,37,0.00,,,0.00,VWS V14.01,2013-01-14 00:22:00,
2013-01-13 16:23:00,49.1,23.3,30.00,NNW,338,0.0,0.0,36,0.00,,,0.00,VWS V14.01,2013-01-14 00:23:00,
2013-01-13 16:24:00,49.1,23.3,30.00,NNW,338,0.0,0.0,36,0.00,,,0.00,VWS V14.01,2013-01-14 00:24:00,
2013-01-13 16:25:00,49.1,24.0,30.00,NNW,338,0.0,0.0,37,0.00,,,0.00,VWS V14.01,2013-01-14 00:25:00,
2013-01-13 16:26:00,49.1,24.0,30.00,North,0,0.0,0.0,37,0.00,,,0.00,VWS V14.01,2013-01-14 00:26:00,
2013-01-13 16:27:00,49.1,24.0,30.00,North,0,0.0,0.0,37,0.00,,,0.00,VWS V14.01,2013-01-14 00:27:00,
2013-01-13 16:28:00,48.9,23.8,29.97,NNE,22,6.9,6.9,37,0.00,,,0.00,VWS V14.01,2013-01-14 00:28:00,
2013-01-13 16:29:00,48.9,23.8,29.97,NNW,338,6.0,6.9,37,0.00,,,0.00,VWS V14.01,2013-01-14 00:29:00,
2013-01-13 16:30:00,48.9,23.8,29.97,NNW,338,5.8,6.0,37,0.00,,,0.00,VWS V14.01,2013-01-14 00:30:00,
2013-01-13 16:31:00,48.9,23.8,29.97,NNW,338,0.0,0.0,37,0.00,,,0.00,VWS V14.01,2013-01-14 00:31:00,
2013-01-13 16:32:00,48.9,23.8,29.97,NNW,338,0.0,0.0,37,0.00,,,0.00,VWS V14.01,2013-01-14 00:32:00,
2013-01-13 16:33:00,48.7,23.6,29.97,NNW,338,0.0,0.0,37,0.00,,,0.00,VWS V14.01,2013-01-14 00:33:00,
2013-01-13 16:34:00,48.7,23.6,29.97,North,0,7.6,7.6,37,0.00,,,0.00,VWS V14.01,2013-01-14 00:34:00,
2013-01-13 16:35:00,48.7,23.6,29.97,NNW,338,0.0,7.6,37,0.00,,,0.00,VWS V14.01,2013-01-14 00:35:00,
2013-01-13 16:36:00,48.7,23.6,29.97,NNW,338,4.9,4.9,37,0.00,,,0.00,VWS V14.01,2013-01-14 00:36:00,
2013-01-13 16:37:00,48.7,23.6,29.97,North,0,6.3,6.3,37,0.00,,,0.00,VWS V14.01,2013-01-14 00:37:00,
2013-01-13 16:38:00,48.7,23.6,29.97,NNW,338,4.9,6.3,37,0.00,,,0.00,VWS V14.01,2013-01-14 00:38:00,
2013-01-13 16:39:00,48.7,23.6,29.97,NNW,338,0.0,4.9,37,0.00,,,0.00,VWS V14.01,2013-01-14 00:39:00,
2013-01-13 16:40:00,48.7,23.6,29.97,North,0,4.9,4.9,37,0.00,,,0.00,VWS V14.01,2013-01-14 00:40:00,
2013-01-13 16:41:00,48.7,23.6,29.97,North,0,4.0,4.9,37,0.00,,,0.00,VWS V14.01,2013-01-14 00:41:00,
2013-01-13 16:42:00,48.7,23.6,29.97,North,0,4.0,4.0,37,0.00,,,0.00,VWS V14.01,2013-01-14 00:42:00,
2013-01-13 16:43:00,48.7,23.6,29.97,North,0,0.0,4.0,37,0.00,,,0.00,VWS V14.01,2013-01-14 00:43:00,
2013-01-13 16:44:00,48.7,23.6,29.97,NW,315,5.4,5.4,37,0.00,,,0.00,VWS V14.01,2013-01-14 00:44:00,
2013-01-13 16:45:00,48.7,23.6,29.97,NW,315,6.5,6.5,37,0.00,,,0.00,VWS V14.01,2013-01-14 00:45:00,
2013-01-13 16:46:00,48.7,23.6,29.97,NW,315,6.5,6.5,37,0.00,,,0.00,VWS V14.01,2013-01-14 00:46:00,
2013-01-13 16:47:00,48.7,23.6,29.97,NW,315,0.0,6.5,37,0.00,,,0.00,VWS V14.01,2013-01-14 00:47:00,
2013-01-13 16:48:00,48.7,23.6,29.97,NNW,338,4.9,4.9,37,0.00,,,0.00,VWS V14.01,2013-01-14 00:48:00,
2013-01-13 16:49:00,48.6,23.5,29.97,NW,315,5.8,5.8,37,0.00,,,0.00,VWS V14.01,2013-01-14 00:49:00,
2013-01-13 16:50:00,48.6,23.5,29.97,NW,315,6.9,6.9,37,0.00,,,0.00,VWS V14.01,2013-01-14 00:50:00,
2013-01-13 16:51:00,48.6,23.5,29.97,NW,315,4.5,6.0,37,0.00,,,0.00,VWS V14.01,2013-01-14 00:51:00,
2013-01-13 16:52:00,48.6,23.5,29.97,NW,315,4.5,6.0,37,0.00,,,0.00,VWS V14.01,2013-01-14 00:52:00,
2013-01-13 16:53:00,48.4,23.3,29.97,NNW,338,0.0,4.5,37,0.00,,,0.00,VWS V14.01,2013-01-14 00:53:00,
2013-01-13 16:54:00,48.4,23.3,29.97,NNW,338,0.0,0.0,37,0.00,,,0.00,VWS V14.01,2013-01-14 00:54:00,
2013-01-13 16:55:00,48.4,23.3,29.97,NW,315,0.0,0.0,37,0.00,,,0.00,VWS V14.01,2013-01-14 00:55:00,
2013-01-13 16:56:00,48.2,23.2,29.97,NNW,338,6.5,6.5,37,0.00,,,0.00,VWS V14.01,2013-01-14 00:56:00,
2013-01-13 16:57:00,48.2,23.2,29.97,NNW,338,6.5,6.5,37,0.00,,,0.00,VWS V14.01,2013-01-14 00:57:00,
2013-01-13 16:58:00,48.2,23.2,30.00,NW,315,0.0,6.5,37,0.00,,,0.00,VWS V14.01,2013-01-14 00:58:00,
2013-01-13 16:59:00,48.2,23.2,30.00,NW,315,0.0,0.0,37,0.00,,,0.00,VWS V14.01,2013-01-14 00:59:00,
2013-01-13 17:00:00,48.2,23.2,30.00,NW,315,0.0,0.0,37,0.00,,,0.00,VWS V14.01,2013-01-14 01:00:00,
2013-01-13 17:01:00,48.0,23.6,30.00,NW,315,0.0,0.0,38,0.00,,,0.00,VWS V14.01,2013-01-14 01:01:00,
2013-01-13 17:02:00,48.0,23.6,30.00,NNW,338,0.0,0.0,38,0.00,,,0.00,VWS V14.01,2013-01-14 01:02:00,
2013-01-13 17:03:00,47.8,23.5,30.00,NNW,338,5.8,5.8,38,0.00,,,0.00,VWS V14.01,2013-01-14 01:03:00,
2013-01-13 17:04:00,47.8,23.5,30.00,NNW,338,0.0,5.8,38,0.00,,,0.00,VWS V14.01,2013-01-14 01:04:00,
2013-01-13 17:05:00,47.8,23.5,30.00,NNW,338,0.0,0.0,38,0.00,,,0.00,VWS V14.01,2013-01-14 01:05:00,
2013-01-13 17:06:00,47.7,23.3,30.00,NNW,338,4.5,4.5,38,0.00,,,0.00,VWS V14.01,2013-01-14 01:06:00,
2013-01-13 17:07:00,47.7,23.3,30.00,NNW,338,4.5,4.5,38,0.00,,,0.00,VWS V14.01,2013-01-14 01:07:00,
2013-01-13 17:08:00,47.7,23.3,30.00,NNW,338,0.0,4.5,38,0.00,,,0.00,VWS V14.01,2013-01-14 01:08:00,
2013-01-13 17:09:00,47.7,23.3,30.00,NNW,338,0.9,0.9,38,0.00,,,0.00,VWS V14.01,2013-01-14 01:09:00,
2013-01-13 17:10:00,47.5,23.2,30.00,NNW,338,2.7,2.7,38,0.00,,,0.00,VWS V14.01,2013-01-14 01:10:00,
2013-01-13 17:11:00,47.5,23.2,30.00,WSW,248,0.0,0.0,38,0.00,,,0.00,VWS V14.01,2013-01-14 01:11:00,
2013-01-13 17:12:00,47.5,23.2,30.00,WSW,248,0.0,0.0,38,0.00,,,0.00,VWS V14.01,2013-01-14 01:12:00,
2013-01-13 17:13:00,47.5,23.2,30.00,WNW,292,3.4,3.4,38,0.00,,,0.00,VWS V14.01,2013-01-14 01:13:00,
2013-01-13 17:14:00,47.3,23.6,29.97,WNW,292,0.0,3.4,39,0.00,,,0.00,VWS V14.01,2013-01-14 01:14:00,
2013-01-13 17:15:00,47.3,23.6,29.97,WNW,292,7.4,7.4,39,0.00,,,0.00,VWS V14.01,2013-01-14 01:15:00,
2013-01-13 17:16:00,47.1,24.6,29.97,WNW,292,8.1,8.1,41,0.00,,,0.00,VWS V14.01,2013-01-14 01:16:00,
2013-01-13 17:17:00,47.1,24.6,29.97,WNW,292,4.9,8.1,41,0.00,,,0.00,VWS V14.01,2013-01-14 01:17:00,
2013-01-13 17:18:00,47.1,25.2,29.97,West,270,1.6,4.9,42,0.00,,,0.00,VWS V14.01,2013-01-14 01:18:00,
2013-01-13 17:19:00,46.9,26.2,29.97,WNW,292,7.6,7.6,44,0.00,,,0.00,VWS V14.01,2013-01-14 01:19:00,
2013-01-13 17:20:00,46.9,26.2,29.97,WNW,292,8.5,8.5,44,0.00,,,0.00,VWS V14.01,2013-01-14 01:20:00,
2013-01-13 17:21:00,46.8,27.1,29.97,NW,315,5.8,6.5,46,0.00,,,0.00,VWS V14.01,2013-01-14 01:21:00,
2013-01-13 17:22:00,46.8,27.1,29.97,NW,315,5.8,6.5,46,0.00,,,0.00,VWS V14.01,2013-01-14 01:22:00,
2013-01-13 17:23:00,46.8,27.6,29.97,WNW,292,6.5,6.5,47,0.00,,,0.00,VWS V14.01,2013-01-14 01:23:00,
2013-01-13 17:24:00,46.8,27.6,29.97,West,270,7.6,7.6,47,0.00,,,0.00,VWS V14.01,2013-01-14 01:24:00,
2013-01-13 17:25:00,46.8,28.1,29.97,WNW,292,6.5,7.6,48,0.00,,,0.00,VWS V14.01,2013-01-14 01:25:00,
2013-01-13 17:26:00,46.6,28.0,29.97,WNW,292,0.0,1.6,48,0.00,,,0.00,VWS V14.01,2013-01-14 01:26:00,
2013-01-13 17:27:00,46.6,28.0,29.97,WNW,292,0.0,1.6,48,0.00,,,0.00,VWS V14.01,2013-01-14 01:27:00,
2013-01-13 17:28:00,46.6,28.0,29.97,WNW,292,0.0,0.0,48,0.00,,,0.00,VWS V14.01,2013-01-14 01:28:00,
2013-01-13 17:29:00,46.6,28.0,29.97,West,270,2.9,2.9,48,0.00,,,0.00,VWS V14.01,2013-01-14 01:29:00,
2013-01-13 17:30:00,46.4,27.8,29.97,WNW,292,7.2,7.2,48,0.00,,,0.00,VWS V14.01,2013-01-14 01:30:00,
2013-01-13 17:31:00,46.4,28.3,29.97,WNW,292,3.6,3.6,49,0.00,,,0.00,VWS V14.01,2013-01-14 01:31:00,
2013-01-13 17:32:00,46.4,28.3,29.97,WNW,292,0.0,3.6,49,0.00,,,0.00,VWS V14.01,2013-01-14 01:32:00,
2013-01-13 17:33:00,46.4,28.3,29.97,WNW,292,3.4,3.4,49,0.00,,,0.00,VWS V14.01,2013-01-14 01:33:00,
2013-01-13 17:34:00,46.4,28.3,29.97,WNW,292,0.0,3.4,49,0.00,,,0.00,VWS V14.01,2013-01-14 01:34:00,
2013-01-13 17:35:00,46.2,28.1,29.97,WNW,292,0.0,0.0,49,0.00,,,0.00,VWS V14.01,2013-01-14 01:35:00,
2013-01-13 17:36:00,46.2,28.1,29.97,WNW,292,3.1,6.5,49,0.00,,,0.00,VWS V14.01,2013-01-14 01:36:00,
2013-01-13 17:37:00,46.2,28.1,29.97,WNW,292,3.1,6.5,49,0.00,,,0.00,VWS V14.01,2013-01-14 01:37:00,
2013-01-13 17:38:00,46.2,28.1,29.97,West,270,7.6,7.6,49,0.00,,,0.00,VWS V14.01,2013-01-14 01:38:00,
2013-01-13 17:39:00,46.2,28.6,29.97,WNW,292,6.5,7.6,50,0.00,,,0.00,VWS V14.01,2013-01-14 01:39:00,
2013-01-13 17:40:00,46.2,28.6,29.97,WNW,292,2.9,6.5,50,0.00,,,0.00,VWS V14.01,2013-01-14 01:40:00,
2013-01-13 17:41:00,46.0,28.5,29.97,NW,315,0.0,7.2,50,0.00,,,0.00,VWS V14.01,2013-01-14 01:41:00,
2013-01-13 17:42:00,46.0,28.5,29.97,NW,315,0.0,7.2,50,0.00,,,0.00,VWS V14.01,2013-01-14 01:42:00,
2013-01-13 17:43:00,46.0,28.5,29.97,WNW,292,4.9,4.9,50,0.00,,,0.00,VWS V14.01,2013-01-14 01:43:00,
2013-01-13 17:44:00,46.0,28.9,29.97,West,270,6.5,6.5,51,0.00,,,0.00,VWS V14.01,2013-01-14 01:44:00,
2013-01-13 17:45:00,46.0,28.9,29.97,WNW,292,6.0,6.5,51,0.00,,,0.00,VWS V14.01,2013-01-14 01:45:00,
2013-01-13 17:46:00,45.9,28.8,29.97,WNW,292,1.3,1.3,51,0.00,,,0.00,VWS V14.01,2013-01-14 01:46:00,
2013-01-13 17:47:00,45.9,28.8,29.97,West,270,8.7,8.7,51,0.00,,,0.00,VWS V14.01,2013-01-14 01:47:00,
2013-01-13 17:48:00,45.9,29.2,29.97,WNW,292,10.3,10.3,52,0.00,,,0.00,VWS V14.01,2013-01-14 01:48:00,
2013-01-13 17:49:00,45.9,29.7,29.97,WNW,292,3.8,10.3,53,0.00,,,0.00,VWS V14.01,2013-01-14 01:49:00,
2013-01-13 17:50:00,45.9,29.7,29.97,WNW,292,8.5,8.5,53,0.00,,,0.00,VWS V14.01,2013-01-14 01:50:00,
2013-01-13 17:51:00,45.9,29.7,29.97,WNW,292,9.8,9.8,53,0.00,,,0.00,VWS V14.01,2013-01-14 01:51:00,
2013-01-13 17:52:00,45.9,29.7,29.97,WNW,292,9.8,9.8,53,0.00,,,0.00,VWS V14.01,2013-01-14 01:52:00,
2013-01-13 17:53:00,45.7,29.5,29.97,WNW,292,5.8,9.8,53,0.00,,,0.00,VWS V14.01,2013-01-14 01:53:00,
2013-01-13 17:54:00,45.7,29.5,29.97,WNW,292,6.0,6.0,53,0.00,,,0.00,VWS V14.01,2013-01-14 01:54:00,
2013-01-13 17:55:00,45.7,30.0,29.97,WNW,292,6.3,6.3,54,0.00,,,0.00,VWS V14.01,2013-01-14 01:55:00,
2013-01-13 17:56:00,45.7,30.0,29.97,NW,315,6.7,6.7,54,0.00,,,0.00,VWS V14.01,2013-01-14 01:56:00,
2013-01-13 17:57:00,45.7,30.0,29.97,NNW,338,1.3,6.7,54,0.00,,,0.00,VWS V14.01,2013-01-14 01:57:00,
2013-01-13 17:58:00,45.5,29.8,29.97,NW,315,5.6,5.6,54,0.00,,,0.00,VWS V14.01,2013-01-14 01:58:00,
2013-01-13 17:59:00,45.5,29.8,30.00,NNW,338,1.3,5.6,54,0.00,,,0.00,VWS V14.01,2013-01-14 01:59:00,
2013-01-13 18:00:00,45.5,30.3,30.00,NNW,338,2.0,2.0,55,0.00,,,0.00,VWS V14.01,2013-01-14 02:00:00,
2013-01-13 18:01:00,45.5,30.7,30.00,NNW,338,7.4,7.4,56,0.00,,,0.00,VWS V14.01,2013-01-14 02:01:00,
2013-01-13 18:02:00,45.5,30.7,30.00,NNW,338,4.3,7.4,56,0.00,,,0.00,VWS V14.01,2013-01-14 02:02:00,
2013-01-13 18:03:00,45.5,30.3,30.00,NW,315,0.0,4.3,55,0.00,,,0.00,VWS V14.01,2013-01-14 02:03:00,
2013-01-13 18:04:00,45.5,30.3,30.00,NNW,338,0.0,0.0,55,0.00,,,0.00,VWS V14.01,2013-01-14 02:04:00,
2013-01-13 18:05:00,45.3,30.6,30.00,NNW,338,5.4,5.4,56,0.00,,,0.00,VWS V14.01,2013-01-14 02:05:00,
2013-01-13 18:06:00,45.3,30.1,30.00,NW,315,0.0,8.1,55,0.00,,,0.00,VWS V14.01,2013-01-14 02:06:00,
2013-01-13 18:07:00,45.3,30.1,30.00,NW,315,0.0,8.1,55,0.00,,,0.00,VWS V14.01,2013-01-14 02:07:00,
2013-01-13 18:08:00,45.3,30.1,30.00,WNW,292,0.0,0.0,55,0.00,,,0.00,VWS V14.01,2013-01-14 02:08:00,
2013-01-13 18:09:00,45.3,30.1,30.00,NW,315,0.0,0.0,55,0.00,,,0.00,VWS V14.01,2013-01-14 02:09:00,
2013-01-13 18:10:00,45.3,30.1,30.00,WNW,292,0.0,0.0,55,0.00,,,0.00,VWS V14.01,2013-01-14 02:10:00,
2013-01-13 18:11:00,45.3,30.1,30.00,WNW,292,5.8,5.8,55,0.00,,,0.00,VWS V14.01,2013-01-14 02:11:00,
2013-01-13 18:12:00,45.3,31.0,30.00,NW,315,4.3,5.8,57,0.00,,,0.00,VWS V14.01,2013-01-14 02:12:00,
2013-01-13 18:13:00,45.3,31.0,30.00,NW,315,0.0,4.3,57,0.00,,,0.00,VWS V14.01,2013-01-14 02:13:00,
2013-01-13 18:14:00,45.3,30.6,30.00,NW,315,0.0,0.0,56,0.00,,,0.00,VWS V14.01,2013-01-14 02:14:00,
2013-01-13 18:15:00,45.3,30.6,30.00,WNW,292,7.6,7.6,56,0.00,,,0.00,VWS V14.01,2013-01-14 02:15:00,
2013-01-13 18:16:00,45.3,31.0,30.00,WNW,292,7.4,7.4,57,0.00,,,0.00,VWS V14.01,2013-01-14 02:16:00,
2013-01-13 18:17:00,45.3,31.0,30.00,WNW,292,5.6,7.4,57,0.00,,,0.00,VWS V14.01,2013-01-14 02:17:00,
2013-01-13 18:18:00,45.3,31.0,30.00,WNW,292,8.5,8.5,57,0.00,,,0.00,VWS V14.01,2013-01-14 02:18:00,
2013-01-13 18:19:00,45.5,31.2,30.00,WNW,292,6.3,8.5,57,0.00,,,0.00,VWS V14.01,2013-01-14 02:19:00,
2013-01-13 18:20:00,45.5,31.2,30.00,WNW,292,8.1,8.1,57,0.00,,,0.00,VWS V14.01,2013-01-14 02:20:00,
2013-01-13 18:21:00,45.5,31.6,30.00,West,270,6.5,7.6,58,0.00,,,0.00,VWS V14.01,2013-01-14 02:21:00,
2013-01-13 18:22:00,45.5,31.6,30.00,WNW,292,7.8,7.8,58,0.00,,,0.00,VWS V14.01,2013-01-14 02:22:00,
2013-01-13 18:23:00,45.5,31.6,30.00,WNW,292,7.8,7.8,58,0.00,,,0.00,VWS V14.01,2013-01-14 02:23:00,
2013-01-13 18:24:00,45.5,31.6,30.00,WNW,292,5.8,7.8,58,0.00,,,0.00,VWS V14.01,2013-01-14 02:24:00,
2013-01-13 18:25:00,45.5,31.6,30.00,WNW,292,7.4,7.6,58,0.00,,,0.00,VWS V14.01,2013-01-14 02:25:00,
2013-01-13 18:26:00,45.5,32.0,30.00,WNW,292,8.5,8.5,59,0.00,,,0.00,VWS V14.01,2013-01-14 02:26:00,
2013-01-13 18:27:00,45.5,32.0,30.00,WNW,292,5.4,8.5,59,0.00,,,0.00,VWS V14.01,2013-01-14 02:27:00,
2013-01-13 18:28:00,45.5,32.0,30.00,WSW,248,6.0,6.0,59,0.00,,,0.00,VWS V14.01,2013-01-14 02:28:00,
2013-01-13 18:29:00,45.5,32.0,30.00,West,270,6.5,6.5,59,0.00,,,0.00,VWS V14.01,2013-01-14 02:29:00,
2013-01-13 18:30:00,45.5,32.0,30.00,West,270,6.3,6.5,59,0.00,,,0.00,VWS V14.01,2013-01-14 02:30:00,
2013-01-13 18:31:00,45.5,32.0,30.00,West,270,6.7,6.7,59,0.00,,,0.00,VWS V14.01,2013-01-14 02:31:00,
2013-01-13 18:32:00,45.5,32.0,30.00,West,270,8.5,8.5,59,0.00,,,0.00,VWS V14.01,2013-01-14 02:32:00,
2013-01-13 18:33:00,45.5,32.0,30.00,West,270,8.5,8.5,59,0.00,,,0.00,VWS V14.01,2013-01-14 02:33:00,
2013-01-13 18:34:00,45.7,32.6,30.00,WNW,292,7.8,8.5,60,0.00,,,0.00,VWS V14.01,2013-01-14 02:34:00,
2013-01-13 18:35:00,45.7,32.6,30.00,WNW,292,6.0,7.8,60,0.00,,,0.00,VWS V14.01,2013-01-14 02:35:00,
2013-01-13 18:36:00,45.7,32.6,30.00,West,270,5.8,8.7,60,0.00,,,0.00,VWS V14.01,2013-01-14 02:36:00,
2013-01-13 18:37:00,45.7,32.2,30.00,West,270,5.8,8.7,59,0.00,,,0.00,VWS V14.01,2013-01-14 02:37:00,
2013-01-13 18:38:00,45.7,32.2,30.00,WNW,292,5.6,5.8,59,0.00,,,0.00,VWS V14.01,2013-01-14 02:38:00,
2013-01-13 18:39:00,45.5,32.4,30.00,WNW,292,4.9,5.8,60,0.00,,,0.00,VWS V14.01,2013-01-14 02:39:00,
2013-01-13 18:40:00,45.5,32.4,30.00,WNW,292,5.6,5.6,60,0.00,,,0.00,VWS V14.01,2013-01-14 02:40:00,
2013-01-13 18:41:00,45.5,32.4,30.00,WNW,292,8.1,8.1,60,0.00,,,0.00,VWS V14.01,2013-01-14 02:41:00,
2013-01-13 18:42:00,45.5,32.4,30.00,WNW,292,8.1,8.1,60,0.00,,,0.00,VWS V14.01,2013-01-14 02:42:00,
2013-01-13 18:43:00,45.5,32.4,30.00,West,270,5.8,8.1,60,0.00,,,0.00,VWS V14.01,2013-01-14 02:43:00,
2013-01-13 18:44:00,45.5,32.4,29.97,West,270,6.0,6.0,60,0.00,,,0.00,VWS V14.01,2013-01-14 02:44:00,
2013-01-13 18:45:00,45.5,32.4,29.97,West,270,6.0,6.0,60,0.00,,,0.00,VWS V14.01,2013-01-14 02:45:00,
2013-01-13 18:46:00,45.5,32.8,29.97,WNW,292,4.9,6.7,61,0.00,,,0.00,VWS V14.01,2013-01-14 02:46:00,
2013-01-13 18:47:00,45.5,32.8,29.97,WNW,292,4.9,6.7,61,0.00,,,0.00,VWS V14.01,2013-01-14 02:47:00,
2013-01-13 18:48:00,45.5,32.8,29.97,WNW,292,6.0,6.0,61,0.00,,,0.00,VWS V14.01,2013-01-14 02:48:00,
2013-01-13 18:49:00,45.3,32.7,29.97,West,270,5.8,6.0,61,0.00,,,0.00,VWS V14.01,2013-01-14 02:49:00,
2013-01-13 18:50:00,45.3,32.7,29.97,WNW,292,6.3,6.3,61,0.00,,,0.00,VWS V14.01,2013-01-14 02:50:00,
2013-01-13 18:51:00,45.3,32.7,29.97,WNW,292,0.0,0.0,61,0.00,,,0.00,VWS V14.01,2013-01-14 02:51:00,
2013-01-13 18:52:00,45.3,32.7,29.97,WNW,292,0.0,0.0,61,0.00,,,0.00,VWS V14.01,2013-01-14 02:52:00,
2013-01-13 18:53:00,45.5,32.8,29.97,WNW,292,0.0,0.0,61,0.00,,,0.00,VWS V14.01,2013-01-14 02:53:00,
2013-01-13 18:54:00,45.5,32.8,29.97,WNW,292,4.9,4.9,61,0.00,,,0.00,VWS V14.01,2013-01-14 02:54:00,
2013-01-13 18:55:00,45.3,32.7,29.97,WNW,292,6.7,6.7,61,0.00,,,0.00,VWS V14.01,2013-01-14 02:55:00,
2013-01-13 18:56:00,45.3,32.7,29.97,WNW,292,4.9,4.9,61,0.00,,,0.00,VWS V14.01,2013-01-14 02:56:00,
2013-01-13 18:57:00,45.3,32.7,29.97,West,270,0.0,4.9,61,0.00,,,0.00,VWS V14.01,2013-01-14 02:57:00,
2013-01-13 18:58:00,45.3,32.7,29.97,WNW,292,6.0,6.0,61,0.00,,,0.00,VWS V14.01,2013-01-14 02:58:00,
2013-01-13 18:59:00,45.3,32.7,30.00,WNW,292,6.0,6.0,61,0.00,,,0.00,VWS V14.01,2013-01-14 02:59:00,
2013-01-13 19:00:00,45.3,32.7,30.00,WNW,292,0.0,6.0,61,0.00,,,0.00,VWS V14.01,2013-01-14 03:00:00,
2013-01-13 19:01:00,45.3,32.7,30.00,WNW,292,4.9,6.3,61,0.00,,,0.00,VWS V14.01,2013-01-14 03:01:00,
2013-01-13 19:02:00,45.3,32.7,30.00,WNW,292,4.9,6.3,61,0.00,,,0.00,VWS V14.01,2013-01-14 03:02:00,
2013-01-13 19:03:00,45.3,32.7,30.00,WNW,292,0.0,4.9,61,0.00,,,0.00,VWS V14.01,2013-01-14 03:03:00,
2013-01-13 19:04:00,45.1,32.5,30.00,WNW,292,0.0,0.0,61,0.00,,,0.00,VWS V14.01,2013-01-14 03:04:00,
2013-01-13 19:05:00,45.3,32.7,30.00,WNW,292,0.0,0.0,61,0.00,,,0.00,VWS V14.01,2013-01-14 03:05:00,
2013-01-13 19:06:00,45.3,32.7,30.00,WNW,292,0.0,0.0,61,0.00,,,0.00,VWS V14.01,2013-01-14 03:06:00,
2013-01-13 19:07:00,45.3,32.7,30.00,WNW,292,0.0,0.0,61,0.00,,,0.00,VWS V14.01,2013-01-14 03:07:00,
2013-01-13 19:08:00,45.3,32.7,30.00,WNW,292,3.8,3.8,61,0.00,,,0.00,VWS V14.01,2013-01-14 03:08:00,
2013-01-13 19:09:00,45.3,32.3,30.00,WNW,292,0.0,3.8,60,0.00,,,0.00,VWS V14.01,2013-01-14 03:09:00,
2013-01-13 19:10:00,45.3,32.3,30.00,NW,315,0.0,0.0,60,0.00,,,0.00,VWS V14.01,2013-01-14 03:10:00,
2013-01-13 19:11:00,45.3,32.3,30.00,NW,315,0.0,0.0,60,0.00,,,0.00,VWS V14.01,2013-01-14 03:11:00,
2013-01-13 19:12:00,45.3,32.3,30.00,NW,315,0.0,0.0,60,0.00,,,0.00,VWS V14.01,2013-01-14 03:12:00,
2013-01-13 19:13:00,45.3,32.3,30.00,NW,315,3.1,3.1,60,0.00,,,0.00,VWS V14.01,2013-01-14 03:13:00,
2013-01-13 19:14:00,45.1,32.1,30.00,NW,315,0.0,3.1,60,0.00,,,0.00,VWS V14.01,2013-01-14 03:14:00,
2013-01-13 19:15:00,45.1,32.1,30.00,NW,315,0.0,0.0,60,0.00,,,0.00,VWS V14.01,2013-01-14 03:15:00,
2013-01-13 19:16:00,45.3,32.3,30.00,NNW,338,0.0,0.0,60,0.00,,,0.00,VWS V14.01,2013-01-14 03:16:00,
2013-01-13 19:17:00,45.3,32.3,30.00,NNW,338,0.0,0.0,60,0.00,,,0.00,VWS V14.01,2013-01-14 03:17:00,
2013-01-13 19:18:00,45.3,32.3,30.00,NNW,338,0.0,0.0,60,0.00,,,0.00,VWS V14.01,2013-01-14 03:18:00,
2013-01-13 19:19:00,45.3,32.3,30.00,NNW,338,0.0,0.0,60,0.00,,,0.00,VWS V14.01,2013-01-14 03:19:00,
2013-01-13 19:20:00,45.3,32.3,30.00,NNW,338,0.0,0.0,60,0.00,,,0.00,VWS V14.01,2013-01-14 03:20:00,
2013-01-13 19:21:00,45.3,32.7,30.00,NNW,338,0.0,0.0,61,0.00,,,0.00,VWS V14.01,2013-01-14 03:21:00,
2013-01-13 19:22:00,45.3,32.7,30.00,NNW,338,0.0,0.0,61,0.00,,,0.00,VWS V14.01,2013-01-14 03:22:00,
2013-01-13 19:23:00,45.3,33.5,30.00,NNW,338,0.0,0.0,63,0.00,,,0.00,VWS V14.01,2013-01-14 03:23:00,
2013-01-13 19:24:00,45.3,33.5,30.00,NNW,338,0.0,0.0,63,0.00,,,0.00,VWS V14.01,2013-01-14 03:24:00,
2013-01-13 19:25:00,45.3,33.1,30.00,NNW,338,0.0,0.0,62,0.00,,,0.00,VWS V14.01,2013-01-14 03:25:00,
2013-01-13 19:26:00,45.3,33.5,30.00,NNW,338,0.0,0.0,63,0.00,,,0.00,VWS V14.01,2013-01-14 03:26:00,
2013-01-13 19:27:00,45.3,33.5,30.00,NNW,338,0.0,0.0,63,0.00,,,0.00,VWS V14.01,2013-01-14 03:27:00,
2013-01-13 19:28:00,45.3,33.9,30.00,NNW,338,4.3,4.3,64,0.00,,,0.00,VWS V14.01,2013-01-14 03:28:00,
2013-01-13 19:29:00,45.3,33.9,29.97,NNW,338,0.0,4.3,64,0.00,,,0.00,VWS V14.01,2013-01-14 03:29:00,
2013-01-13 19:30:00,45.1,33.3,29.97,NNW,338,0.0,0.0,63,0.00,,,0.00,VWS V14.01,2013-01-14 03:30:00,
2013-01-13 19:31:00,45.1,33.3,29.97,NNW,338,0.0,0.0,63,0.00,,,0.00,VWS V14.01,2013-01-14 03:31:00,
2013-01-13 19:32:00,45.1,33.3,29.97,NNW,338,0.0,0.0,63,0.00,,,0.00,VWS V14.01,2013-01-14 03:32:00,
2013-01-13 19:33:00,45.1,33.3,29.97,NNW,338,0.0,0.0,63,0.00,,,0.00,VWS V14.01,2013-01-14 03:33:00,
2013-01-13 19:34:00,45.1,33.3,29.97,NNW,338,0.0,0.0,63,0.00,,,0.00,VWS V14.01,2013-01-14 03:34:00,
2013-01-13 19:35:00,45.1,32.9,29.97,NNW,338,0.0,0.0,62,0.00,,,0.00,VWS V14.01,2013-01-14 03:35:00,
2013-01-13 19:36:00,45.1,32.9,29.97,NW,315,1.3,1.3,62,0.00,,,0.00,VWS V14.01,2013-01-14 03:36:00,
2013-01-13 19:37:00,45.1,32.9,29.97,NNW,338,5.4,5.4,62,0.00,,,0.00,VWS V14.01,2013-01-14 03:37:00,
2013-01-13 19:38:00,45.1,32.9,29.97,NNW,338,0.0,5.4,62,0.00,,,0.00,VWS V14.01,2013-01-14 03:38:00,
2013-01-13 19:39:00,45.1,32.5,29.97,NW,315,0.0,0.0,61,0.00,,,0.00,VWS V14.01,2013-01-14 03:39:00,
2013-01-13 19:40:00,45.1,32.5,29.97,NNW,338,0.0,0.0,61,0.00,,,0.00,VWS V14.01,2013-01-14 03:40:00,
2013-01-13 19:41:00,45.1,32.1,29.97,NNW,338,0.0,0.0,60,0.00,,,0.00,VWS V14.01,2013-01-14 03:41:00,
2013-01-13 19:42:00,45.1,32.1,29.97,NNW,338,0.0,0.0,60,0.00,,,0.00,VWS V14.01,2013-01-14 03:42:00,
2013-01-13 19:43:00,45.1,32.1,29.97,NNW,338,0.0,0.0,60,0.00,,,0.00,VWS V14.01,2013-01-14 03:43:00,
2013-01-13 19:44:00,45.1,32.1,30.00,NNW,338,6.5,6.5,60,0.00,,,0.00,VWS V14.01,2013-01-14 03:44:00,
2013-01-13 19:45:00,45.1,32.1,30.00,NNW,338,4.9,6.5,60,0.00,,,0.00,VWS V14.01,2013-01-14 03:45:00,
2013-01-13 19:46:00,45.1,32.1,30.00,NNW,338,5.4,5.4,60,0.00,,,0.00,VWS V14.01,2013-01-14 03:46:00,
2013-01-13 19:47:00,45.1,32.1,30.00,NNW,338,5.4,5.4,60,0.00,,,0.00,VWS V14.01,2013-01-14 03:47:00,
2013-01-13 19:48:00,45.1,32.1,30.00,NNW,338,0.0,5.4,60,0.00,,,0.00,VWS V14.01,2013-01-14 03:48:00,
2013-01-13 19:49:00,45.1,31.7,30.00,NNW,338,0.0,0.0,59,0.00,,,0.00,VWS V14.01,2013-01-14 03:49:00,
2013-01-13 19:50:00,45.1,31.7,30.00,NNW,338,0.0,0.0,59,0.00,,,0.00,VWS V14.01,2013-01-14 03:50:00,
2013-01-13 19:51:00,45.0,31.5,30.00,NNW,338,0.0,0.0,59,0.00,,,0.00,VWS V14.01,2013-01-14 03:51:00,
2013-01-13 19:52:00,45.0,31.5,30.00,NW,315,0.0,0.0,59,0.00,,,0.00,VWS V14.01,2013-01-14 03:52:00,
2013-01-13 19:53:00,45.0,31.5,30.00,NNW,338,0.0,0.0,59,0.00,,,0.00,VWS V14.01,2013-01-14 03:53:00,
2013-01-13 19:54:00,45.0,31.5,30.00,NNW,338,0.0,0.0,59,0.00,,,0.00,VWS V14.01,2013-01-14 03:54:00,
2013-01-13 19:55:00,45.0,31.5,30.00,NNW,338,0.0,0.0,59,0.00,,,0.00,VWS V14.01,2013-01-14 03:55:00,
2013-01-13 19:56:00,45.0,31.5,30.00,NW,315,0.0,0.0,59,0.00,,,0.00,VWS V14.01,2013-01-14 03:56:00,
2013-01-13 19:57:00,45.0,31.5,30.00,NNW,338,0.0,0.0,59,0.00,,,0.00,VWS V14.01,2013-01-14 03:57:00,
2013-01-13 19:58:00,44.8,31.3,30.00,NNW,338,2.5,2.5,59,0.00,,,0.00,VWS V14.01,2013-01-14 03:58:00,
2013-01-13 19:59:00,44.8,31.3,30.00,NNW,338,2.9,2.9,59,0.00,,,0.00,VWS V14.01,2013-01-14 03:59:00,
2013-01-13 20:00:00,44.8,31.3,30.00,NNW,338,0.0,2.9,59,0.00,,,0.00,VWS V14.01,2013-01-14 04:00:00,
2013-01-13 20:01:00,45.0,31.5,30.00,NNW,338,4.9,4.9,59,0.00,,,0.00,VWS V14.01,2013-01-14 04:01:00,
2013-01-13 20:02:00,45.0,31.5,30.00,NNW,338,4.9,4.9,59,0.00,,,0.00,VWS V14.01,2013-01-14 04:02:00,
2013-01-13 20:03:00,45.0,31.5,30.00,NW,315,4.0,4.9,59,0.00,,,0.00,VWS V14.01,2013-01-14 04:03:00,
2013-01-13 20:04:00,45.0,31.1,30.00,NNW,338,0.0,4.0,58,0.00,,,0.00,VWS V14.01,2013-01-14 04:04:00,
2013-01-13 20:05:00,44.8,31.3,30.00,NNW,338,0.0,0.0,59,0.00,,,0.00,VWS V14.01,2013-01-14 04:05:00,
2013-01-13 20:06:00,44.8,31.3,30.00,NNW,338,6.3,6.3,59,0.00,,,0.00,VWS V14.01,2013-01-14 04:06:00,
2013-01-13 20:07:00,45.0,31.5,30.00,NNW,338,4.3,6.3,59,0.00,,,0.00,VWS V14.01,2013-01-14 04:07:00,
2013-01-13 20:08:00,45.0,31.5,30.00,NNW,338,0.0,4.3,59,0.00,,,0.00,VWS V14.01,2013-01-14 04:08:00,
2013-01-13 20:09:00,44.8,31.3,30.00,NNW,338,0.0,0.0,59,0.00,,,0.00,VWS V14.01,2013-01-14 04:09:00,
2013-01-13 20:10:00,44.8,31.3,30.00,NNW,338,5.6,5.6,59,0.00,,,0.00,VWS V14.01,2013-01-14 04:10:00,
2013-01-13 20:11:00,44.8,31.8,30.00,NW,315,3.4,3.4,60,0.00,,,0.00,VWS V14.01,2013-01-14 04:11:00,
2013-01-13 20:12:00,44.6,31.6,30.00,NNW,338,0.0,3.4,60,0.00,,,0.00,VWS V14.01,2013-01-14 04:12:00,
2013-01-13 20:13:00,44.6,31.6,30.00,NNW,338,0.0,0.0,60,0.00,,,0.00,VWS V14.01,2013-01-14 04:13:00,
2013-01-13 20:14:00,44.6,31.6,30.00,NW,315,2.7,2.7,60,0.00,,,0.00,VWS V14.01,2013-01-14 04:14:00,
2013-01-13 20:15:00,44.6,31.6,30.00,NNW,338,0.0,2.7,60,0.00,,,0.00,VWS V14.01,2013-01-14 04:15:00,
2013-01-13 20:16:00,44.8,31.8,30.00,NW,315,1.1,1.1,60,0.00,,,0.00,VWS V14.01,2013-01-14 04:16:00,
2013-01-13 20:17:00,44.8,31.8,30.00,NNW,338,0.0,1.1,60,0.00,,,0.00,VWS V14.01,2013-01-14 04:17:00,
2013-01-13 20:18:00,44.6,31.6,30.00,WNW,292,0.0,0.0,60,0.00,,,0.00,VWS V14.01,2013-01-14 04:18:00,
2013-01-13 20:19:00,44.6,31.6,30.00,NW,315,0.0,0.0,60,0.00,,,0.00,VWS V14.01,2013-01-14 04:19:00,
2013-01-13 20:20:00,44.6,31.6,30.00,NW,315,0.0,0.0,60,0.00,,,0.00,VWS V14.01,2013-01-14 04:20:00,
2013-01-13 20:21:00,44.6,31.6,30.00,NNW,338,0.0,0.0,60,0.00,,,0.00,VWS V14.01,2013-01-14 04:21:00,
2013-01-13 20:22:00,44.6,31.6,30.00,NW,315,0.0,0.0,60,0.00,,,0.00,VWS V14.01,2013-01-14 04:22:00,
2013-01-13 20:23:00,44.6,31.6,30.00,NW,315,0.0,0.0,60,0.00,,,0.00,VWS V14.01,2013-01-14 04:23:00,
2013-01-13 20:24:00,44.6,31.6,30.00,NW,315,0.0,0.0,60,0.00,,,0.00,VWS V14.01,2013-01-14 04:24:00,
2013-01-13 20:25:00,44.6,31.6,30.00,NW,315,0.0,0.0,60,0.00,,,0.00,VWS V14.01,2013-01-14 04:25:00,
2013-01-13 20:26:00,44.6,31.2,30.00,NW,315,0.0,0.0,59,0.00,,,0.00,VWS V14.01,2013-01-14 04:26:00,
2013-01-13 20:27:00,44.6,31.2,30.00,NW,315,0.0,0.0,59,0.00,,,0.00,VWS V14.01,2013-01-14 04:27:00,
2013-01-13 20:28:00,44.4,31.4,30.00,NW,315,8.1,8.1,60,0.00,,,0.00,VWS V14.01,2013-01-14 04:28:00,
2013-01-13 20:29:00,44.4,31.4,30.00,West,270,0.0,8.1,60,0.00,,,0.00,VWS V14.01,2013-01-14 04:29:00,
2013-01-13 20:30:00,44.4,31.4,30.00,West,270,0.0,0.0,60,0.00,,,0.00,VWS V14.01,2013-01-14 04:30:00,
2013-01-13 20:31:00,44.4,31.4,30.00,NNW,338,0.0,0.0,60,0.00,,,0.00,VWS V14.01,2013-01-14 04:31:00,
2013-01-13 20:32:00,44.4,31.4,30.00,NNW,338,0.0,0.0,60,0.00,,,0.00,VWS V14.01,2013-01-14 04:32:00,
2013-01-13 20:33:00,44.4,31.4,30.00,NW,315,0.0,0.0,60,0.00,,,0.00,VWS V14.01,2013-01-14 04:33:00,
2013-01-13 20:34:00,44.2,31.2,30.00,NW,315,4.7,4.7,60,0.00,,,0.00,VWS V14.01,2013-01-14 04:34:00,
2013-01-13 20:35:00,44.2,31.7,30.00,NW,315,0.0,4.7,61,0.00,,,0.00,VWS V14.01,2013-01-14 04:35:00,
2013-01-13 20:36:00,44.2,31.7,30.00,NNW,338,0.0,0.0,61,0.00,,,0.00,VWS V14.01,2013-01-14 04:36:00,
2013-01-13 20:37:00,44.2,31.7,30.00,NNW,338,0.0,0.0,61,0.00,,,0.00,VWS V14.01,2013-01-14 04:37:00,
2013-01-13 20:38:00,44.2,31.7,30.00,WNW,292,2.5,2.5,61,0.00,,,0.00,VWS V14.01,2013-01-14 04:38:00,
2013-01-13 20:39:00,44.2,31.2,30.00,WNW,292,2.5,2.5,60,0.00,,,0.00,VWS V14.01,2013-01-14 04:39:00,
2013-01-13 20:40:00,44.2,31.2,30.00,NW,315,2.2,2.5,60,0.00,,,0.00,VWS V14.01,2013-01-14 04:40:00,
2013-01-13 20:41:00,44.2,31.2,30.00,NNW,338,0.0,0.0,60,0.00,,,0.00,VWS V14.01,2013-01-14 04:41:00,
2013-01-13 20:42:00,44.4,31.4,30.00,NNW,338,0.0,0.0,60,0.00,,,0.00,VWS V14.01,2013-01-14 04:42:00,
2013-01-13 20:43:00,44.4,31.4,30.00,North,0,0.0,0.0,60,0.00,,,0.00,VWS V14.01,2013-01-14 04:43:00,
2013-01-13 20:44:00,44.4,31.8,30.00,North,0,0.0,0.0,61,0.00,,,0.00,VWS V14.01,2013-01-14 04:44:00,
2013-01-13 20:45:00,44.4,31.8,30.00,NNW,338,0.0,0.0,61,0.00,,,0.00,VWS V14.01,2013-01-14 04:45:00,
2013-01-13 20:46:00,44.4,31.4,30.00,NNE,22,0.0,0.0,60,0.00,,,0.00,VWS V14.01,2013-01-14 04:46:00,
2013-01-13 20:47:00,44.4,31.4,30.00,North,0,0.0,0.0,60,0.00,,,0.00,VWS V14.01,2013-01-14 04:47:00,
2013-01-13 20:48:00,44.2,31.2,30.00,NNE,22,0.0,0.0,60,0.00,,,0.00,VWS V14.01,2013-01-14 04:48:00,
2013-01-13 20:49:00,44.2,31.2,30.00,NNE,22,0.0,0.0,60,0.00,,,0.00,VWS V14.01,2013-01-14 04:49:00,
2013-01-13 20:50:00,44.4,31.4,30.00,NNE,22,0.0,0.0,60,0.00,,,0.00,VWS V14.01,2013-01-14 04:50:00,
2013-01-13 20:51:00,44.6,31.2,30.00,NE,45,0.0,0.0,59,0.00,,,0.00,VWS V14.01,2013-01-14 04:51:00,
2013-01-13 20:52:00,44.6,31.2,30.00,North,0,0.0,0.0,59,0.00,,,0.00,VWS V14.01,2013-01-14 04:52:00,
2013-01-13 20:53:00,44.6,30.8,30.00,NNE,22,0.0,0.0,58,0.00,,,0.00,VWS V14.01,2013-01-14 04:53:00,
2013-01-13 20:54:00,44.6,30.8,30.00,NNE,22,7.4,7.4,58,0.00,,,0.00,VWS V14.01,2013-01-14 04:54:00,
2013-01-13 20:55:00,44.8,30.5,30.00,NNW,338,3.1,7.4,57,0.00,,,0.00,VWS V14.01,2013-01-14 04:55:00,
2013-01-13 20:56:00,44.8,30.1,30.00,NNE,22,8.7,8.7,56,0.00,,,0.00,VWS V14.01,2013-01-14 04:56:00,
2013-01-13 20:57:00,44.8,30.1,30.00,NNE,22,8.7,8.7,56,0.00,,,0.00,VWS V14.01,2013-01-14 04:57:00,
2013-01-13 20:58:00,44.8,28.7,30.00,NNW,338,7.4,8.7,53,0.00,,,0.00,VWS V14.01,2013-01-14 04:58:00,
2013-01-13 20:59:00,44.8,28.7,30.00,North,0,8.1,8.1,53,0.00,,,0.00,VWS V14.01,2013-01-14 04:59:00,
2013-01-13 21:00:00,45.0,28.4,30.00,North,0,7.6,8.1,52,0.00,,,0.00,VWS V14.01,2013-01-14 05:00:00,
2013-01-13 21:01:00,45.0,28.4,30.00,NNE,22,10.5,10.5,52,0.00,,,0.00,VWS V14.01,2013-01-14 05:01:00,
2013-01-13 21:02:00,45.3,27.8,30.00,NNW,338,8.7,10.5,50,0.00,,,0.00,VWS V14.01,2013-01-14 05:02:00,
2013-01-13 21:03:00,45.3,27.8,30.00,North,0,7.8,8.7,50,0.00,,,0.00,VWS V14.01,2013-01-14 05:03:00,
2013-01-13 21:04:00,45.3,26.8,30.00,North,0,6.5,7.8,48,0.00,,,0.00,VWS V14.01,2013-01-14 05:04:00,
2013-01-13 21:05:00,45.3,27.3,30.00,NNW,338,6.5,6.5,49,0.00,,,0.00,VWS V14.01,2013-01-14 05:05:00,
2013-01-13 21:06:00,45.3,27.3,30.00,North,0,7.6,7.6,49,0.00,,,0.00,VWS V14.01,2013-01-14 05:06:00,
2013-01-13 21:07:00,45.3,26.8,30.00,NNE,22,7.4,7.4,48,0.00,,,0.00,VWS V14.01,2013-01-14 05:07:00,
2013-01-13 21:08:00,45.3,26.8,30.00,North,0,7.8,7.8,48,0.00,,,0.00,VWS V14.01,2013-01-14 05:08:00,
2013-01-13 21:09:00,45.5,27.0,30.00,NNE,22,3.1,11.9,48,0.00,,,0.00,VWS V14.01,2013-01-14 05:09:00,
2013-01-13 21:10:00,45.5,27.0,30.00,NNW,338,6.5,6.5,48,0.00,,,0.00,VWS V14.01,2013-01-14 05:10:00,
2013-01-13 21:11:00,45.3,26.8,30.00,NNW,338,6.5,6.5,48,0.00,,,0.00,VWS V14.01,2013-01-14 05:11:00,
2013-01-13 21:12:00,45.3,26.8,30.00,North,0,7.6,7.6,48,0.00,,,0.00,VWS V14.01,2013-01-14 05:12:00,
2013-01-13 21:13:00,45.3,26.8,30.00,North,0,7.8,7.8,48,0.00,,,0.00,VWS V14.01,2013-01-14 05:13:00,
2013-01-13 21:14:00,45.3,26.8,30.00,North,0,7.8,7.8,48,0.00,,,0.00,VWS V14.01,2013-01-14 05:14:00,
2013-01-13 21:15:00,45.3,26.8,30.00,NNE,22,6.0,7.8,48,0.00,,,0.00,VWS V14.01,2013-01-14 05:15:00,
2013-01-13 21:16:00,45.3,26.8,30.00,NW,315,7.6,7.6,48,0.00,,,0.00,VWS V14.01,2013-01-14 05:16:00,
2013-01-13 21:17:00,45.3,26.8,30.00,NNW,338,8.7,8.7,48,0.00,,,0.00,VWS V14.01,2013-01-14 05:17:00,
2013-01-13 21:18:00,45.3,26.8,30.00,NNW,338,8.5,8.7,48,0.00,,,0.00,VWS V14.01,2013-01-14 05:18:00,
2013-01-13 21:19:00,45.3,26.8,30.00,North,0,1.3,8.5,48,0.00,,,0.00,VWS V14.01,2013-01-14 05:19:00,
2013-01-13 21:20:00,45.5,26.5,30.00,NNW,338,10.7,10.7,47,0.00,,,0.00,VWS V14.01,2013-01-14 05:20:00,
2013-01-13 21:21:00,45.5,26.5,30.00,North,0,7.8,10.7,47,0.00,,,0.00,VWS V14.01,2013-01-14 05:21:00,
2013-01-13 21:22:00,45.5,26.5,30.00,NNW,338,17.0,17.0,47,0.00,,,0.00,VWS V14.01,2013-01-14 05:22:00,
2013-01-13 21:23:00,45.5,26.5,30.00,NNW,338,12.8,17.0,47,0.00,,,0.00,VWS V14.01,2013-01-14 05:23:00,
2013-01-13 21:24:00,45.5,26.5,30.00,NNW,338,12.8,12.8,47,0.00,,,0.00,VWS V14.01,2013-01-14 05:24:00,
2013-01-13 21:25:00,45.7,24.5,30.00,NNW,338,7.4,12.8,43,0.00,,,0.00,VWS V14.01,2013-01-14 05:25:00,
2013-01-13 21:26:00,45.7,24.5,30.00,NNW,338,11.0,11.0,43,0.00,,,0.00,VWS V14.01,2013-01-14 05:26:00,
2013-01-13 21:27:00,45.7,24.5,30.00,NNW,338,11.0,11.0,43,0.00,,,0.00,VWS V14.01,2013-01-14 05:27:00,
2013-01-13 21:28:00,45.5,24.3,30.00,NNW,338,3.8,11.0,43,0.00,,,0.00,VWS V14.01,2013-01-14 05:28:00,
2013-01-13 21:29:00,45.5,24.3,30.00,North,0,0.0,3.8,43,0.00,,,0.00,VWS V14.01,2013-01-14 05:29:00,
2013-01-13 21:30:00,45.3,23.6,30.00,NNE,22,0.0,0.0,42,0.00,,,0.00,VWS V14.01,2013-01-14 05:30:00,
2013-01-13 21:31:00,45.3,23.6,30.00,NNW,338,2.9,2.9,42,0.00,,,0.00,VWS V14.01,2013-01-14 05:31:00,
2013-01-13 21:32:00,45.3,23.0,30.00,NNE,22,8.7,8.7,41,0.00,,,0.00,VWS V14.01,2013-01-14 05:32:00,
2013-01-13 21:33:00,45.3,23.0,30.00,NNE,22,7.4,8.7,41,0.00,,,0.00,VWS V14.01,2013-01-14 05:33:00,
2013-01-13 21:34:00,45.7,22.8,30.00,NNW,338,4.9,7.4,40,0.00,,,0.00,VWS V14.01,2013-01-14 05:34:00,
2013-01-13 21:35:00,45.7,22.8,30.00,NNW,338,4.9,4.9,40,0.00,,,0.00,VWS V14.01,2013-01-14 05:35:00,
2013-01-13 21:36:00,45.7,22.8,30.00,NNE,22,10.7,10.7,40,0.00,,,0.00,VWS V14.01,2013-01-14 05:36:00,
2013-01-13 21:37:00,45.7,22.2,30.00,North,0,7.4,9.8,39,0.00,,,0.00,VWS V14.01,2013-01-14 05:37:00,
2013-01-13 21:38:00,45.7,22.2,30.00,North,0,7.4,9.8,39,0.00,,,0.00,VWS V14.01,2013-01-14 05:38:00,
2013-01-13 21:39:00,45.7,22.2,30.00,North,0,11.2,11.2,39,0.00,,,0.00,VWS V14.01,2013-01-14 05:39:00,
2013-01-13 21:40:00,45.7,22.2,30.00,NNW,338,6.0,11.2,39,0.00,,,0.00,VWS V14.01,2013-01-14 05:40:00,
2013-01-13 21:41:00,45.7,22.2,30.00,North,0,7.2,7.2,39,0.00,,,0.00,VWS V14.01,2013-01-14 05:41:00,
2013-01-13 21:42:00,45.5,22.0,30.00,North,0,7.4,7.4,39,0.00,,,0.00,VWS V14.01,2013-01-14 05:42:00,
2013-01-13 21:43:00,45.5,22.0,30.00,NNE,22,9.2,9.2,39,0.00,,,0.00,VWS V14.01,2013-01-14 05:43:00,
2013-01-13 21:44:00,45.7,22.2,30.00,NNW,338,0.0,9.2,39,0.00,,,0.00,VWS V14.01,2013-01-14 05:44:00,
2013-01-13 21:45:00,45.7,22.2,30.00,NNW,338,0.0,0.0,39,0.00,,,0.00,VWS V14.01,2013-01-14 05:45:00,
2013-01-13 21:46:00,45.5,22.0,30.00,NW,315,5.6,5.6,39,0.00,,,0.00,VWS V14.01,2013-01-14 05:46:00,
2013-01-13 21:47:00,45.5,22.0,30.00,NNW,338,5.4,5.4,39,0.00,,,0.00,VWS V14.01,2013-01-14 05:47:00,
2013-01-13 21:48:00,45.5,22.0,30.00,NNE,22,0.0,5.4,39,0.00,,,0.00,VWS V14.01,2013-01-14 05:48:00,
2013-01-13 21:49:00,45.5,22.0,30.00,NNW,338,1.1,1.1,39,0.00,,,0.00,VWS V14.01,2013-01-14 05:49:00,
2013-01-13 21:50:00,45.5,22.0,30.00,NNW,338,7.4,7.4,39,0.00,,,0.00,VWS V14.01,2013-01-14 05:50:00,
2013-01-13 21:51:00,45.5,22.0,30.00,NNW,338,7.4,7.4,39,0.00,,,0.00,VWS V14.01,2013-01-14 05:51:00,
2013-01-13 21:52:00,45.5,22.0,30.00,NNW,338,5.6,5.6,39,0.00,,,0.00,VWS V14.01,2013-01-14 05:52:00,
2013-01-13 21:53:00,45.5,22.0,30.00,NNW,338,5.6,5.6,39,0.00,,,0.00,VWS V14.01,2013-01-14 05:53:00,
2013-01-13 21:54:00,45.5,22.0,30.00,NE,45,7.6,7.6,39,0.00,,,0.00,VWS V14.01,2013-01-14 05:54:00,
2013-01-13 21:55:00,45.5,21.4,30.00,NNW,338,0.0,7.6,38,0.00,,,0.00,VWS V14.01,2013-01-14 05:55:00,
2013-01-13 21:56:00,45.5,21.4,30.00,NNW,338,0.0,0.0,38,0.00,,,0.00,VWS V14.01,2013-01-14 05:56:00,
2013-01-13 21:57:00,45.5,21.4,30.00,NNW,338,0.0,0.0,38,0.00,,,0.00,VWS V14.01,2013-01-14 05:57:00,
2013-01-13 21:58:00,45.5,21.4,30.00,NNW,338,0.0,0.0,38,0.00,,,0.00,VWS V14.01,2013-01-14 05:58:00,
2013-01-13 21:59:00,45.5,21.4,30.00,NNW,338,0.0,0.0,38,0.00,,,0.00,VWS V14.01,2013-01-14 05:59:00,
2013-01-13 22:01:00,45.3,21.8,30.00,NNW,338,2.9,3.4,39,0.00,,,0.00,VWS V14.01,2013-01-14 06:01:00,
2013-01-13 22:02:00,45.3,21.8,30.00,North,0,0.0,0.0,39,0.00,,,0.00,VWS V14.01,2013-01-14 06:02:00,
2013-01-13 22:03:00,45.3,21.8,30.00,NNW,338,0.0,0.0,39,0.00,,,0.00,VWS V14.01,2013-01-14 06:03:00,
2013-01-13 22:04:00,45.3,21.8,30.00,North,0,3.4,3.4,39,0.00,,,0.00,VWS V14.01,2013-01-14 06:04:00,
2013-01-13 22:05:00,45.3,21.8,30.00,NNW,338,0.0,3.4,39,0.00,,,0.00,VWS V14.01,2013-01-14 06:05:00,
2013-01-13 22:06:00,45.3,21.8,30.00,NNW,338,0.0,0.0,39,0.00,,,0.00,VWS V14.01,2013-01-14 06:06:00,
2013-01-13 22:07:00,45.3,21.8,30.00,NNW,338,0.0,0.0,39,0.00,,,0.00,VWS V14.01,2013-01-14 06:07:00,
2013-01-13 22:08:00,45.3,21.8,30.00,NW,315,0.0,0.0,39,0.00,,,0.00,VWS V14.01,2013-01-14 06:08:00,
2013-01-13 22:09:00,45.3,21.8,30.00,NNW,338,0.0,0.0,39,0.00,,,0.00,VWS V14.01,2013-01-14 06:09:00,
2013-01-13 22:10:00,45.3,21.8,30.00,North,0,0.0,0.0,39,0.00,,,0.00,VWS V14.01,2013-01-14 06:10:00,
2013-01-13 22:11:00,45.3,21.8,30.00,NNE,22,0.0,0.0,39,0.00,,,0.00,VWS V14.01,2013-01-14 06:11:00,
2013-01-13 22:12:00,45.3,21.8,30.00,NNE,22,0.0,0.0,39,0.00,,,0.00,VWS V14.01,2013-01-14 06:12:00,
2013-01-13 22:13:00,45.3,21.8,30.00,NNE,22,0.0,0.0,39,0.00,,,0.00,VWS V14.01,2013-01-14 06:13:00,
2013-01-13 22:14:00,45.3,21.8,30.00,NNE,22,1.6,1.6,39,0.00,,,0.00,VWS V14.01,2013-01-14 06:14:00,
2013-01-13 22:15:00,45.3,21.8,30.00,NNW,338,6.5,6.5,39,0.00,,,0.00,VWS V14.01,2013-01-14 06:15:00,
2013-01-13 22:16:00,45.3,21.8,30.00,NNE,22,5.6,6.5,39,0.00,,,0.00,VWS V14.01,2013-01-14 06:16:00,
2013-01-13 22:17:00,45.3,21.8,30.00,NNE,22,3.1,3.1,39,0.00,,,0.00,VWS V14.01,2013-01-14 06:17:00,
2013-01-13 22:18:00,45.3,21.2,30.00,North,0,1.3,3.1,38,0.00,,,0.00,VWS V14.01,2013-01-14 06:18:00,
2013-01-13 22:19:00,45.3,21.2,30.00,North,0,0.0,1.3,38,0.00,,,0.00,VWS V14.01,2013-01-14 06:19:00,
2013-01-13 22:20:00,45.3,21.2,30.00,North,0,0.0,0.0,38,0.00,,,0.00,VWS V14.01,2013-01-14 06:20:00,
2013-01-13 22:21:00,45.3,21.2,30.00,NNW,338,4.7,4.7,38,0.00,,,0.00,VWS V14.01,2013-01-14 06:21:00,
2013-01-13 22:22:00,45.3,21.2,30.00,North,0,0.0,0.0,38,0.00,,,0.00,VWS V14.01,2013-01-14 06:22:00,
2013-01-13 22:23:00,45.3,21.2,30.00,NNE,22,0.0,0.0,38,0.00,,,0.00,VWS V14.01,2013-01-14 06:23:00,
2013-01-13 22:24:00,45.3,21.2,30.00,NNE,22,0.0,0.0,38,0.00,,,0.00,VWS V14.01,2013-01-14 06:24:00,
2013-01-13 22:25:00,45.3,21.2,30.00,NNE,22,0.0,0.0,38,0.00,,,0.00,VWS V14.01,2013-01-14 06:25:00,
2013-01-13 22:26:00,45.3,21.2,30.00,NNW,338,6.3,6.3,38,0.00,,,0.00,VWS V14.01,2013-01-14 06:26:00,
2013-01-13 22:27:00,45.3,21.2,30.00,NNW,338,1.6,1.6,38,0.00,,,0.00,VWS V14.01,2013-01-14 06:27:00,
2013-01-13 22:28:00,45.3,21.2,30.00,NNE,22,0.0,1.6,38,0.00,,,0.00,VWS V14.01,2013-01-14 06:28:00,
2013-01-13 22:29:00,45.3,21.2,30.00,NNE,22,0.0,0.0,38,0.00,,,0.00,VWS V14.01,2013-01-14 06:29:00,
2013-01-13 22:30:00,45.3,21.2,30.00,NNW,338,6.0,6.0,38,0.00,,,0.00,VWS V14.01,2013-01-14 06:30:00,
2013-01-13 22:31:00,45.3,21.2,30.00,North,0,1.6,6.0,38,0.00,,,0.00,VWS V14.01,2013-01-14 06:31:00,
2013-01-13 22:32:00,45.3,21.2,30.00,North,0,2.0,2.0,38,0.00,,,0.00,VWS V14.01,2013-01-14 06:32:00,
2013-01-13 22:33:00,45.3,21.2,30.00,North,0,2.0,2.0,38,0.00,,,0.00,VWS V14.01,2013-01-14 06:33:00,
2013-01-13 22:34:00,45.3,21.2,30.00,NNE,22,0.0,2.0,38,0.00,,,0.00,VWS V14.01,2013-01-14 06:34:00,
2013-01-13 22:35:00,45.3,21.2,30.00,NE,45,7.6,7.6,38,0.00,,,0.00,VWS V14.01,2013-01-14 06:35:00,
2013-01-13 22:36:00,45.3,21.2,30.00,NNW,338,7.4,7.6,38,0.00,,,0.00,VWS V14.01,2013-01-14 06:36:00,
2013-01-13 22:37:00,45.3,21.2,30.00,North,0,4.9,4.9,38,0.00,,,0.00,VWS V14.01,2013-01-14 06:37:00,
2013-01-13 22:38:00,45.3,21.2,30.00,North,0,3.6,4.9,38,0.00,,,0.00,VWS V14.01,2013-01-14 06:38:00,
2013-01-13 22:39:00,45.3,20.6,30.00,NE,45,3.6,3.6,37,0.00,,,0.00,VWS V14.01,2013-01-14 06:39:00,
2013-01-13 22:40:00,45.3,20.6,30.00,NE,45,3.6,3.6,37,0.00,,,0.00,VWS V14.01,2013-01-14 06:40:00,
2013-01-13 22:41:00,45.3,20.6,30.00,NNE,22,6.3,6.3,37,0.00,,,0.00,VWS V14.01,2013-01-14 06:41:00,
2013-01-13 22:42:00,45.3,20.6,30.00,NNE,22,8.5,8.5,37,0.00,,,0.00,VWS V14.01,2013-01-14 06:42:00,
2013-01-13 22:43:00,45.3,20.6,30.00,NNE,22,4.3,8.5,37,0.00,,,0.00,VWS V14.01,2013-01-14 06:43:00,
2013-01-13 22:44:00,45.5,20.8,30.00,NNE,22,5.8,5.8,37,0.00,,,0.00,VWS V14.01,2013-01-14 06:44:00,
2013-01-13 22:45:00,45.5,20.8,30.00,NNE,22,6.5,6.5,37,0.00,,,0.00,VWS V14.01,2013-01-14 06:45:00,
2013-01-13 22:46:00,45.5,20.1,30.00,NNE,22,0.0,6.5,36,0.00,,,0.00,VWS V14.01,2013-01-14 06:46:00,
2013-01-13 22:47:00,45.5,20.1,30.00,North,0,8.5,8.5,36,0.00,,,0.00,VWS V14.01,2013-01-14 06:47:00,
2013-01-13 22:48:00,45.3,19.3,30.00,North,0,8.5,8.5,35,0.00,,,0.00,VWS V14.01,2013-01-14 06:48:00,
2013-01-13 22:49:00,45.3,19.3,30.00,North,0,8.5,8.5,35,0.00,,,0.00,VWS V14.01,2013-01-14 06:49:00,
2013-01-13 22:50:00,45.3,19.3,30.00,North,0,8.5,8.5,35,0.00,,,0.00,VWS V14.01,2013-01-14 06:50:00,
2013-01-13 22:51:00,45.5,19.5,30.00,North,0,0.0,8.5,35,0.00,,,0.00,VWS V14.01,2013-01-14 06:51:00,
2013-01-13 22:52:00,45.5,19.5,30.00,North,0,0.0,0.0,35,0.00,,,0.00,VWS V14.01,2013-01-14 06:52:00,
2013-01-13 22:53:00,45.5,19.5,30.00,NE,45,3.4,3.4,35,0.00,,,0.00,VWS V14.01,2013-01-14 06:53:00,
2013-01-13 22:54:00,45.5,19.5,30.00,NNE,22,8.7,8.7,35,0.00,,,0.00,VWS V14.01,2013-01-14 06:54:00,
2013-01-13 22:55:00,45.5,18.8,30.00,NE,45,0.0,8.7,34,0.00,,,0.00,VWS V14.01,2013-01-14 06:55:00,
2013-01-13 22:56:00,45.5,18.8,30.00,North,0,0.0,0.0,34,0.00,,,0.00,VWS V14.01,2013-01-14 06:56:00,
2013-01-13 22:57:00,45.5,18.8,30.00,North,0,6.9,6.9,34,0.00,,,0.00,VWS V14.01,2013-01-14 06:57:00,
2013-01-13 22:58:00,45.5,18.8,30.00,NNW,338,10.1,10.1,34,0.00,,,0.00,VWS V14.01,2013-01-14 06:58:00,
2013-01-13 22:59:00,45.9,18.4,30.00,North,0,10.5,10.5,33,0.00,,,0.00,VWS V14.01,2013-01-14 06:59:00,
2013-01-13 23:00:00,45.7,18.2,30.00,North,0,10.5,10.5,33,0.00,,,0.00,VWS V14.01,2013-01-14 07:00:00,
2013-01-13 23:01:00,45.7,18.2,30.00,North,0,7.4,10.5,33,0.00,,,0.00,VWS V14.01,2013-01-14 07:01:00,
2013-01-13 23:02:00,45.7,18.2,30.00,NNE,22,8.5,8.5,33,0.00,,,0.00,VWS V14.01,2013-01-14 07:02:00,
2013-01-13 23:03:00,45.7,18.2,30.00,NNE,22,8.5,8.5,33,0.00,,,0.00,VWS V14.01,2013-01-14 07:03:00,
2013-01-13 23:04:00,45.9,17.7,30.00,North,0,8.5,8.5,32,0.00,,,0.00,VWS V14.01,2013-01-14 07:04:00,
2013-01-13 23:05:00,45.9,17.7,30.00,North,0,3.6,8.5,32,0.00,,,0.00,VWS V14.01,2013-01-14 07:05:00,
2013-01-13 23:06:00,45.7,17.5,30.00,NNE,22,4.9,4.9,32,0.00,,,0.00,VWS V14.01,2013-01-14 07:06:00,
2013-01-13 23:07:00,45.7,17.5,30.00,NE,45,11.0,11.0,32,0.00,,,0.00,VWS V14.01,2013-01-14 07:07:00,
2013-01-13 23:08:00,45.7,17.5,30.00,North,0,8.7,11.0,32,0.00,,,0.00,VWS V14.01,2013-01-14 07:08:00,
2013-01-13 23:09:00,45.7,17.5,30.00,NE,45,4.7,8.7,32,0.00,,,0.00,VWS V14.01,2013-01-14 07:09:00,
2013-01-13 23:10:00,45.7,17.5,30.00,NE,45,4.7,4.7,32,0.00,,,0.00,VWS V14.01,2013-01-14 07:10:00,
2013-01-13 23:11:00,45.5,17.4,30.00,NNE,22,7.8,7.8,32,0.00,,,0.00,VWS V14.01,2013-01-14 07:11:00,
2013-01-13 23:12:00,45.5,17.4,30.00,NNE,22,12.8,12.8,32,0.00,,,0.00,VWS V14.01,2013-01-14 07:12:00,
2013-01-13 23:13:00,45.5,17.4,30.00,NNE,22,6.5,12.8,32,0.00,,,0.00,VWS V14.01,2013-01-14 07:13:00,
2013-01-13 23:14:00,45.3,17.2,30.03,NNE,22,0.0,6.5,32,0.00,,,0.00,VWS V14.01,2013-01-14 07:14:00,
2013-01-13 23:15:00,45.3,17.2,30.03,NNW,338,0.0,0.0,32,0.00,,,0.00,VWS V14.01,2013-01-14 07:15:00,
2013-01-13 23:16:00,45.3,17.2,30.03,NNE,22,8.5,8.5,32,0.00,,,0.00,VWS V14.01,2013-01-14 07:16:00,
2013-01-13 23:17:00,45.3,17.2,30.03,NNE,22,10.1,10.1,32,0.00,,,0.00,VWS V14.01,2013-01-14 07:17:00,
2013-01-13 23:18:00,45.5,17.4,30.03,NNE,22,10.1,10.1,32,0.00,,,0.00,VWS V14.01,2013-01-14 07:18:00,
2013-01-13 23:19:00,45.5,17.4,30.03,NNW,338,3.8,10.1,32,0.00,,,0.00,VWS V14.01,2013-01-14 07:19:00,
2013-01-13 23:20:00,45.5,16.6,30.03,NNE,22,9.2,9.2,31,0.00,,,0.00,VWS V14.01,2013-01-14 07:20:00,
2013-01-13 23:21:00,45.5,16.6,30.03,North,0,5.8,9.2,31,0.00,,,0.00,VWS V14.01,2013-01-14 07:21:00,
2013-01-13 23:22:00,45.5,16.6,30.03,NNE,22,9.4,9.4,31,0.00,,,0.00,VWS V14.01,2013-01-14 07:22:00,
2013-01-13 23:23:00,45.5,17.4,30.03,NE,45,8.7,9.4,32,0.00,,,0.00,VWS V14.01,2013-01-14 07:23:00,
2013-01-13 23:24:00,45.5,17.4,30.03,NNE,22,5.6,8.7,32,0.00,,,0.00,VWS V14.01,2013-01-14 07:24:00,
2013-01-13 23:25:00,45.5,17.4,30.03,NNE,22,7.6,7.6,32,0.00,,,0.00,VWS V14.01,2013-01-14 07:25:00,
2013-01-13 23:26:00,45.5,17.4,30.03,NNE,22,3.8,7.6,32,0.00,,,0.00,VWS V14.01,2013-01-14 07:26:00,
2013-01-13 23:27:00,45.3,17.2,30.03,NNE,22,5.6,5.6,32,0.00,,,0.00,VWS V14.01,2013-01-14 07:27:00,
2013-01-13 23:28:00,45.3,17.2,30.03,NNE,22,4.3,5.6,32,0.00,,,0.00,VWS V14.01,2013-01-14 07:28:00,
2013-01-13 23:29:00,45.1,17.1,30.03,NNE,22,0.0,4.3,32,0.00,,,0.00,VWS V14.01,2013-01-14 07:29:00,
2013-01-13 23:30:00,45.1,17.1,30.03,NNW,338,1.1,1.1,32,0.00,,,0.00,VWS V14.01,2013-01-14 07:30:00,
2013-01-13 23:31:00,45.1,17.1,30.03,NNW,338,4.9,4.9,32,0.00,,,0.00,VWS V14.01,2013-01-14 07:31:00,
2013-01-13 23:32:00,45.1,17.1,30.03,NNW,338,6.3,8.7,32,0.00,,,0.00,VWS V14.01,2013-01-14 07:32:00,
2013-01-13 23:33:00,45.1,17.1,30.03,NE,45,15.7,15.7,32,0.00,,,0.00,VWS V14.01,2013-01-14 07:33:00,
2013-01-13 23:34:00,45.1,17.1,30.03,NNE,22,12.5,15.7,32,0.00,,,0.00,VWS V14.01,2013-01-14 07:34:00,
2013-01-13 23:35:00,45.1,17.1,30.03,North,0,10.5,12.5,32,0.00,,,0.00,VWS V14.01,2013-01-14 07:35:00,
2013-01-13 23:36:00,45.1,17.1,30.03,NNW,338,7.8,10.5,32,0.00,,,0.00,VWS V14.01,2013-01-14 07:36:00,
2013-01-13 23:37:00,45.1,17.1,30.03,North,0,12.5,12.5,32,0.00,,,0.00,VWS V14.01,2013-01-14 07:37:00,
2013-01-13 23:38:00,45.1,17.1,30.03,NNE,22,12.8,12.8,32,0.00,,,0.00,VWS V14.01,2013-01-14 07:38:00,
2013-01-13 23:39:00,45.1,17.1,30.03,NNW,338,7.8,12.8,32,0.00,,,0.00,VWS V14.01,2013-01-14 07:39:00,
2013-01-13 23:40:00,45.1,17.1,30.03,NE,45,8.1,8.1,32,0.00,,,0.00,VWS V14.01,2013-01-14 07:40:00,
2013-01-13 23:41:00,45.0,16.9,30.03,NNE,22,4.7,8.1,32,0.00,,,0.00,VWS V14.01,2013-01-14 07:41:00,
2013-01-13 23:42:00,45.0,16.9,30.03,NNW,338,11.0,11.0,32,0.00,,,0.00,VWS V14.01,2013-01-14 07:42:00,
2013-01-13 23:43:00,45.0,16.9,30.03,NNE,22,15.4,15.4,32,0.00,,,0.00,VWS V14.01,2013-01-14 07:43:00,
2013-01-13 23:44:00,44.8,16.7,30.03,NNW,338,10.1,15.4,32,0.00,,,0.00,VWS V14.01,2013-01-14 07:44:00,
2013-01-13 23:45:00,44.8,16.7,30.03,North,0,12.5,12.5,32,0.00,,,0.00,VWS V14.01,2013-01-14 07:45:00,
2013-01-13 23:46:00,45.0,17.6,30.03,NNE,22,10.5,12.5,33,0.00,,,0.00,VWS V14.01,2013-01-14 07:46:00,
2013-01-13 23:47:00,45.0,17.6,30.03,NE,45,22.2,22.2,33,0.00,,,0.00,VWS V14.01,2013-01-14 07:47:00,
2013-01-13 23:48:00,45.0,17.6,30.03,NE,45,18.6,22.2,33,0.00,,,0.00,VWS V14.01,2013-01-14 07:48:00,
2013-01-13 23:49:00,45.0,17.6,30.03,NNW,338,15.9,18.6,33,0.00,,,0.00,VWS V14.01,2013-01-14 07:49:00,
2013-01-13 23:50:00,45.0,16.9,30.03,NNW,338,10.3,15.9,32,0.00,,,0.00,VWS V14.01,2013-01-14 07:50:00,
2013-01-13 23:51:00,45.0,16.9,30.03,North,0,12.5,12.5,32,0.00,,,0.00,VWS V14.01,2013-01-14 07:51:00,
2013-01-13 23:52:00,45.0,16.9,30.03,NNE,22,11.9,11.9,32,0.00,,,0.00,VWS V14.01,2013-01-14 07:52:00,
2013-01-13 23:53:00,44.8,16.7,30.03,NNE,22,11.9,11.9,32,0.00,,,0.00,VWS V14.01,2013-01-14 07:53:00,
2013-01-13 23:54:00,44.8,16.7,30.03,North,0,8.5,11.9,32,0.00,,,0.00,VWS V14.01,2013-01-14 07:54:00,
2013-01-13 23:55:00,44.6,16.6,30.03,NNW,338,7.8,8.5,32,0.00,,,0.00,VWS V14.01,2013-01-14 07:55:00,
2013-01-13 23:56:00,44.6,16.6,30.03,North,0,15.7,15.7,32,0.00,,,0.00,VWS V14.01,2013-01-14 07:56:00,
2013-01-13 23:57:00,44.8,16.7,30.03,NNE,22,10.1,15.7,32,0.00,,,0.00,VWS V14.01,2013-01-14 07:57:00,
2013-01-13 23:58:00,44.8,16.7,30.03,North,0,1.1,10.1,32,0.00,,,0.00,VWS V14.01,2013-01-14 07:58:00,
2013-01-13 23:59:00,44.6,16.6,30.03,NE,45,10.5,10.5,32,0.00,,,0.00,VWS V14.01,2013-01-14 07:59:00,